Wetterdaten: Mittwoch, 20.01.2021
Datum Zeit Temp. 2m Temp +5 cm Feuchte A. Luftdruck Regen Wind Richtung Richtung Sonnenschein UV Solar Taupunkt Windchill Windben
20.01.2021 00:00 1,3 C 0,6 C 87 % 1010,5 hPa 0,0 l/m 20,9 km/h (4 Bft) S-SW 202 0 min 0,0 UV-I 0 W/m -0,6 C -8,3 C 27,4 km/h (4 Bft)
20.01.2021 00:01 1,3 C 0,6 C 87 % 1010,5 hPa 0,0 l/m 22,5 km/h (4 Bft) S-SW 202 0 min 0,0 UV-I 0 W/m -0,6 C -9,0 C 32,2 km/h (5 Bft)
20.01.2021 00:02 1,3 C 0,6 C 87 % 1010,5 hPa 0,0 l/m 20,9 km/h (4 Bft) S 180 0 min 0,0 UV-I 0 W/m -0,6 C -8,3 C 33,8 km/h (5 Bft)
20.01.2021 00:03 1,3 C 0,6 C 87 % 1010,5 hPa 0,0 l/m 20,9 km/h (4 Bft) S 180 0 min 0,0 UV-I 0 W/m -0,6 C -8,3 C 30,6 km/h (5 Bft)
20.01.2021 00:04 1,3 C 0,6 C 87 % 1010,5 hPa 0,0 l/m 20,9 km/h (4 Bft) S-SW 202 0 min 0,0 UV-I 0 W/m -0,6 C -8,3 C 32,2 km/h (5 Bft)
20.01.2021 00:05 1,3 C 0,6 C 87 % 1010,4 hPa 0,0 l/m 19,3 km/h (3 Bft) S-SW 202 0 min 0,0 UV-I 0 W/m -0,6 C -7,6 C 30,6 km/h (5 Bft)
20.01.2021 00:06 1,3 C 0,6 C 87 % 1010,4 hPa 0,0 l/m 20,9 km/h (4 Bft) S 180 0 min 0,0 UV-I 0 W/m -0,6 C -8,3 C 27,4 km/h (4 Bft)
20.01.2021 00:07 1,3 C 0,6 C 87 % 1010,4 hPa 0,0 l/m 19,3 km/h (3 Bft) S-SW 202 0 min 0,0 UV-I 0 W/m -0,6 C -7,6 C 27,4 km/h (4 Bft)
20.01.2021 00:08 1,3 C 0,6 C 87 % 1010,3 hPa 0,0 l/m 19,3 km/h (3 Bft) S 180 0 min 0,0 UV-I 0 W/m -0,6 C -7,6 C 24,1 km/h (4 Bft)
20.01.2021 00:09 1,3 C 0,6 C 87 % 1010,3 hPa 0,0 l/m 19,3 km/h (3 Bft) S-SW 202 0 min 0,0 UV-I 0 W/m -0,6 C -7,6 C 24,1 km/h (4 Bft)
20.01.2021 00:10 1,2 C 0,6 C 87 % 1010,2 hPa 0,0 l/m 22,5 km/h (4 Bft) S-SW 202 0 min 0,0 UV-I 0 W/m -0,7 C -9,1 C 30,6 km/h (5 Bft)
20.01.2021 00:11 1,3 C 0,6 C 87 % 1010,3 hPa 0,0 l/m 22,5 km/h (4 Bft) S 180 0 min 0,0 UV-I 0 W/m -0,6 C -9,0 C 35,4 km/h (5 Bft)
20.01.2021 00:12 1,3 C 0,6 C 87 % 1010,4 hPa 0,0 l/m 20,9 km/h (4 Bft) S-SW 202 0 min 0,0 UV-I 0 W/m -0,6 C -8,3 C 29,0 km/h (5 Bft)
20.01.2021 00:13 1,3 C 0,6 C 87 % 1010,3 hPa 0,0 l/m 19,3 km/h (3 Bft) S-SW 202 0 min 0,0 UV-I 0 W/m -0,6 C -7,6 C 33,8 km/h (5 Bft)
20.01.2021 00:14 1,3 C 0,6 C 87 % 1010,3 hPa 0,0 l/m 19,3 km/h (3 Bft) S 180 0 min 0,0 UV-I 0 W/m -0,6 C -7,6 C 25,7 km/h (4 Bft)
20.01.2021 00:15 1,3 C 0,6 C 87 % 1010,3 hPa 0,0 l/m 17,7 km/h (3 Bft) S-SW 202 0 min 0,0 UV-I 0 W/m -0,6 C -6,9 C 29,0 km/h (5 Bft)
20.01.2021 00:16 1,3 C 0,6 C 87 % 1010,3 hPa 0,0 l/m 20,9 km/h (4 Bft) S-SW 202 0 min 0,0 UV-I 0 W/m -0,6 C -8,3 C 30,6 km/h (5 Bft)
20.01.2021 00:17 1,3 C 0,6 C 87 % 1010,2 hPa 0,0 l/m 19,3 km/h (3 Bft) S 180 0 min 0,0 UV-I 0 W/m -0,6 C -7,6 C 27,4 km/h (4 Bft)
20.01.2021 00:18 1,3 C 0,6 C 87 % 1010,3 hPa 0,0 l/m 20,9 km/h (4 Bft) S-SW 202 0 min 0,0 UV-I 0 W/m -0,6 C -8,3 C 25,7 km/h (4 Bft)
20.01.2021 00:19 1,3 C 0,6 C 87 % 1010,3 hPa 0,0 l/m 20,9 km/h (4 Bft) S 180 0 min 0,0 UV-I 0 W/m -0,6 C -8,3 C 32,2 km/h (5 Bft)
20.01.2021 00:20 1,3 C 0,6 C 87 % 1010,2 hPa 0,0 l/m 17,7 km/h (3 Bft) S-SW 202 0 min 0,0 UV-I 0 W/m -0,6 C -6,9 C 25,7 km/h (4 Bft)
20.01.2021 00:21 1,3 C 0,6 C 87 % 1010,3 hPa 0,0 l/m 19,3 km/h (3 Bft) S-SW 202 0 min 0,0 UV-I 0 W/m -0,6 C -7,6 C 29,0 km/h (5 Bft)
20.01.2021 00:22 1,3 C 0,6 C 87 % 1010,3 hPa 0,0 l/m 16,1 km/h (3 Bft) S-SW 202 0 min 0,0 UV-I 0 W/m -0,6 C -6,0 C 27,4 km/h (4 Bft)
20.01.2021 00:23 1,3 C 0,6 C 87 % 1010,2 hPa 0,0 l/m 17,7 km/h (3 Bft) S 180 0 min 0,0 UV-I 0 W/m -0,6 C -6,9 C 27,4 km/h (4 Bft)
20.01.2021 00:24 1,3 C 0,6 C 87 % 1010,2 hPa 0,0 l/m 16,1 km/h (3 Bft) S 180 0 min 0,0 UV-I 0 W/m -0,6 C -6,0 C 22,5 km/h (4 Bft)
20.01.2021 00:25 1,3 C 0,6 C 87 % 1010,2 hPa 0,0 l/m 17,7 km/h (3 Bft) S 180 0 min 0,0 UV-I 0 W/m -0,6 C -6,9 C 20,9 km/h (4 Bft)
20.01.2021 00:26 1,3 C 0,6 C 87 % 1010,3 hPa 0,0 l/m 20,9 km/h (4 Bft) S 180 0 min 0,0 UV-I 0 W/m -0,6 C -8,3 C 33,8 km/h (5 Bft)
20.01.2021 00:27 1,3 C 0,6 C 87 % 1010,2 hPa 0,0 l/m 16,1 km/h (3 Bft) S 180 0 min 0,0 UV-I 0 W/m -0,6 C -6,0 C 27,4 km/h (4 Bft)
20.01.2021 00:28 1,3 C 0,6 C 87 % 1010,2 hPa 0,0 l/m 19,3 km/h (3 Bft) S 180 0 min 0,0 UV-I 0 W/m -0,6 C -7,6 C 29,0 km/h (5 Bft)
20.01.2021 00:29 1,3 C 0,6 C 87 % 1010,2 hPa 0,0 l/m 20,9 km/h (4 Bft) S 180 0 min 0,0 UV-I 0 W/m -0,6 C -8,3 C 27,4 km/h (4 Bft)
20.01.2021 00:30 1,3 C 0,6 C 87 % 1010,2 hPa 0,0 l/m 17,7 km/h (3 Bft) S-SW 202 0 min 0,0 UV-I 0 W/m -0,6 C -6,9 C 22,5 km/h (4 Bft)
20.01.2021 00:31 1,3 C 0,6 C 86 % 1010,2 hPa 0,0 l/m 17,7 km/h (3 Bft) S 180 0 min 0,0 UV-I 0 W/m -0,8 C -6,9 C 27,4 km/h (4 Bft)
20.01.2021 00:32 1,3 C 0,6 C 87 % 1010,3 hPa 0,0 l/m 17,7 km/h (3 Bft) S-SW 202 0 min 0,0 UV-I 0 W/m -0,6 C -6,9 C 24,1 km/h (4 Bft)
20.01.2021 00:33 1,3 C 0,6 C 87 % 1010,2 hPa 0,0 l/m 20,9 km/h (4 Bft) S-SW 202 0 min 0,0 UV-I 0 W/m -0,6 C -8,3 C 30,6 km/h (5 Bft)
20.01.2021 00:34 1,3 C 0,6 C 86 % 1010,2 hPa 0,0 l/m 19,3 km/h (3 Bft) S-SW 202 0 min 0,0 UV-I 0 W/m -0,8 C -7,6 C 27,4 km/h (4 Bft)
20.01.2021 00:35 1,3 C 0,6 C 86 % 1010,2 hPa 0,0 l/m 19,3 km/h (3 Bft) S 180 0 min 0,0 UV-I 0 W/m -0,8 C -7,6 C 30,6 km/h (5 Bft)
20.01.2021 00:36 1,3 C 0,6 C 86 % 1010,2 hPa 0,0 l/m 20,9 km/h (4 Bft) S-SW 202 0 min 0,0 UV-I 0 W/m -0,8 C -8,3 C 30,6 km/h (5 Bft)
20.01.2021 00:37 1,4 C 0,6 C 86 % 1010,0 hPa 0,0 l/m 19,3 km/h (3 Bft) S 180 0 min 0,0 UV-I 0 W/m -0,7 C -7,5 C 27,4 km/h (4 Bft)
20.01.2021 00:38 1,3 C 0,6 C 86 % 1010,1 hPa 0,0 l/m 19,3 km/h (3 Bft) S-SW 202 0 min 0,0 UV-I 0 W/m -0,8 C -7,6 C 27,4 km/h (4 Bft)
20.01.2021 00:39 1,4 C 0,6 C 86 % 1010,0 hPa 0,0 l/m 19,3 km/h (3 Bft) S-SW 202 0 min 0,0 UV-I 0 W/m -0,7 C -7,5 C 25,7 km/h (4 Bft)
20.01.2021 00:40 1,4 C 0,6 C 86 % 1010,0 hPa 0,0 l/m 16,1 km/h (3 Bft) S 180 0 min 0,0 UV-I 0 W/m -0,7 C -5,9 C 27,4 km/h (4 Bft)
20.01.2021 00:41 1,4 C 0,6 C 86 % 1010,1 hPa 0,0 l/m 17,7 km/h (3 Bft) S-SW 202 0 min 0,0 UV-I 0 W/m -0,7 C -6,7 C 24,1 km/h (4 Bft)
20.01.2021 00:42 1,4 C 0,6 C 86 % 1010,0 hPa 0,0 l/m 22,5 km/h (4 Bft) S 180 0 min 0,0 UV-I 0 W/m -0,7 C -8,9 C 30,6 km/h (5 Bft)
20.01.2021 00:43 1,4 C 0,6 C 86 % 1010,0 hPa 0,0 l/m 19,3 km/h (3 Bft) S-SW 202 0 min 0,0 UV-I 0 W/m -0,7 C -7,5 C 24,1 km/h (4 Bft)
20.01.2021 00:44 1,4 C 0,6 C 86 % 1010,1 hPa 0,0 l/m 19,3 km/h (3 Bft) S-SW 202 0 min 0,0 UV-I 0 W/m -0,7 C -7,5 C 25,7 km/h (4 Bft)
20.01.2021 00:45 1,4 C 0,6 C 86 % 1010,0 hPa 0,0 l/m 16,1 km/h (3 Bft) S-SW 202 0 min 0,0 UV-I 0 W/m -0,7 C -5,9 C 22,5 km/h (4 Bft)
20.01.2021 00:46 1,3 C 0,6 C 86 % 1010,1 hPa 0,0 l/m 19,3 km/h (3 Bft) S-SW 202 0 min 0,0 UV-I 0 W/m -0,8 C -7,6 C 24,1 km/h (4 Bft)
20.01.2021 00:47 1,4 C 0,6 C 85 % 1010,0 hPa 0,0 l/m 17,7 km/h (3 Bft) S-SW 202 0 min 0,0 UV-I 0 W/m -0,8 C -6,7 C 25,7 km/h (4 Bft)
20.01.2021 00:48 1,4 C 0,6 C 85 % 1010,0 hPa 0,0 l/m 16,1 km/h (3 Bft) S-SW 202 0 min 0,0 UV-I 0 W/m -0,8 C -5,9 C 20,9 km/h (4 Bft)
20.01.2021 00:49 1,3 C 0,6 C 85 % 1010,0 hPa 0,0 l/m 17,7 km/h (3 Bft) S-SW 202 0 min 0,0 UV-I 0 W/m -0,9 C -6,9 C 22,5 km/h (4 Bft)
20.01.2021 00:50 1,3 C 0,6 C 85 % 1010,0 hPa 0,0 l/m 17,7 km/h (3 Bft) S-SW 202 0 min 0,0 UV-I 0 W/m -0,9 C -6,9 C 25,7 km/h (4 Bft)
20.01.2021 00:51 1,3 C 0,6 C 85 % 1009,9 hPa 0,0 l/m 17,7 km/h (3 Bft) S 180 0 min 0,0 UV-I 0 W/m -0,9 C -6,9 C 25,7 km/h (4 Bft)
20.01.2021 00:52 1,3 C 0,6 C 85 % 1009,9 hPa 0,0 l/m 19,3 km/h (3 Bft) S-SW 202 0 min 0,0 UV-I 0 W/m -0,9 C -7,6 C 29,0 km/h (5 Bft)
20.01.2021 00:53 1,3 C 0,6 C 85 % 1009,8 hPa 0,0 l/m 19,3 km/h (3 Bft) S-SW 202 0 min 0,0 UV-I 0 W/m -0,9 C -7,6 C 25,7 km/h (4 Bft)
20.01.2021 00:54 1,3 C 0,6 C 85 % 1009,9 hPa 0,0 l/m 20,9 km/h (4 Bft) S 180 0 min 0,0 UV-I 0 W/m -0,9 C -8,3 C 38,6 km/h (5 Bft)
20.01.2021 00:55 1,3 C 0,6 C 85 % 1009,8 hPa 0,0 l/m 17,7 km/h (3 Bft) S 180 0 min 0,0 UV-I 0 W/m -0,9 C -6,9 C 24,1 km/h (4 Bft)
20.01.2021 00:56 1,3 C 0,6 C 85 % 1009,8 hPa 0,0 l/m 19,3 km/h (3 Bft) S 180 0 min 0,0 UV-I 0 W/m -0,9 C -7,6 C 25,7 km/h (4 Bft)
20.01.2021 00:57 1,3 C 0,6 C 85 % 1009,8 hPa 0,0 l/m 16,1 km/h (3 Bft) S 180 0 min 0,0 UV-I 0 W/m -0,9 C -6,0 C 20,9 km/h (4 Bft)
20.01.2021 00:58 1,3 C 0,6 C 85 % 1009,8 hPa 0,0 l/m 16,1 km/h (3 Bft) S-SW 202 0 min 0,0 UV-I 0 W/m -0,9 C -6,0 C 24,1 km/h (4 Bft)
20.01.2021 00:59 1,3 C 0,6 C 85 % 1009,7 hPa 0,0 l/m 14,5 km/h (3 Bft) S 180 0 min 0,0 UV-I 0 W/m -0,9 C -5,1 C 24,1 km/h (4 Bft)
20.01.2021 01:00 1,4 C 0,6 C 85 % 1009,8 hPa 0,0 l/m 17,7 km/h (3 Bft) S 180 0 min 0,0 UV-I 0 W/m -0,8 C -6,7 C 29,0 km/h (5 Bft)
20.01.2021 01:01 1,4 C 0,6 C 85 % 1009,8 hPa 0,0 l/m 19,3 km/h (3 Bft) S-SW 202 0 min 0,0 UV-I 0 W/m -0,8 C -7,5 C 35,4 km/h (5 Bft)
20.01.2021 01:02 1,4 C 0,6 C 85 % 1009,7 hPa 0,0 l/m 17,7 km/h (3 Bft) S 180 0 min 0,0 UV-I 0 W/m -0,8 C -6,7 C 25,7 km/h (4 Bft)
20.01.2021 01:03 1,3 C 0,6 C 85 % 1009,7 hPa 0,0 l/m 16,1 km/h (3 Bft) S-SW 202 0 min 0,0 UV-I 0 W/m -0,9 C -6,0 C 20,9 km/h (4 Bft)
20.01.2021 01:04 1,4 C 0,6 C 85 % 1009,8 hPa 0,0 l/m 19,3 km/h (3 Bft) S 180 0 min 0,0 UV-I 0 W/m -0,8 C -7,5 C 24,1 km/h (4 Bft)
20.01.2021 01:05 1,4 C 0,6 C 85 % 1009,7 hPa 0,0 l/m 19,3 km/h (3 Bft) S 180 0 min 0,0 UV-I 0 W/m -0,8 C -7,5 C 33,8 km/h (5 Bft)
20.01.2021 01:06 1,4 C 0,6 C 85 % 1009,8 hPa 0,0 l/m 12,9 km/h (3 Bft) S 180 0 min 0,0 UV-I 0 W/m -0,8 C -4,0 C 17,7 km/h (3 Bft)
20.01.2021 01:07 1,4 C 0,6 C 85 % 1009,7 hPa 0,0 l/m 16,1 km/h (3 Bft) S 180 0 min 0,0 UV-I 0 W/m -0,8 C -5,9 C 27,4 km/h (4 Bft)
20.01.2021 01:08 1,3 C 0,6 C 85 % 1009,7 hPa 0,0 l/m 17,7 km/h (3 Bft) S-SW 202 0 min 0,0 UV-I 0 W/m -0,9 C -6,9 C 32,2 km/h (5 Bft)
20.01.2021 01:09 1,3 C 0,0 C 85 % 1009,8 hPa 0,0 l/m 17,7 km/h (3 Bft) S-SW 202 0 min 0,0 UV-I 0 W/m -0,9 C -6,9 C 24,1 km/h (4 Bft)
20.01.2021 01:10 1,3 C 0,0 C 85 % 1009,8 hPa 0,0 l/m 24,1 km/h (4 Bft) S 180 0 min 0,0 UV-I 0 W/m -0,9 C -9,6 C 32,2 km/h (5 Bft)
20.01.2021 01:11 1,3 C 0,6 C 85 % 1009,7 hPa 0,0 l/m 20,9 km/h (4 Bft) S-SW 202 0 min 0,0 UV-I 0 W/m -0,9 C -8,3 C 27,4 km/h (4 Bft)
20.01.2021 01:12 1,4 C 0,6 C 85 % 1009,8 hPa 0,0 l/m 22,5 km/h (4 Bft) S-SW 202 0 min 0,0 UV-I 0 W/m -0,8 C -8,9 C 29,0 km/h (5 Bft)
20.01.2021 01:13 1,4 C 0,6 C 85 % 1009,7 hPa 0,0 l/m 19,3 km/h (3 Bft) S 180 0 min 0,0 UV-I 0 W/m -0,8 C -7,5 C 27,4 km/h (4 Bft)
20.01.2021 01:14 1,3 C 0,6 C 85 % 1009,7 hPa 0,0 l/m 20,9 km/h (4 Bft) S-SW 202 0 min 0,0 UV-I 0 W/m -0,9 C -8,3 C 25,7 km/h (4 Bft)
20.01.2021 01:15 1,3 C 0,6 C 85 % 1009,6 hPa 0,0 l/m 20,9 km/h (4 Bft) S-SW 202 0 min 0,0 UV-I 0 W/m -0,9 C -8,3 C 38,6 km/h (5 Bft)
20.01.2021 01:16 1,3 C 0,6 C 85 % 1009,6 hPa 0,0 l/m 19,3 km/h (3 Bft) S-SW 202 0 min 0,0 UV-I 0 W/m -0,9 C -7,6 C 40,2 km/h (6 Bft)
20.01.2021 01:17 1,3 C 0,0 C 85 % 1009,6 hPa 0,0 l/m 19,3 km/h (3 Bft) S 180 0 min 0,0 UV-I 0 W/m -0,9 C -7,6 C 27,4 km/h (4 Bft)
20.01.2021 01:18 1,3 C 0,0 C 85 % 1009,6 hPa 0,0 l/m 17,7 km/h (3 Bft) S-SW 202 0 min 0,0 UV-I 0 W/m -0,9 C -6,9 C 22,5 km/h (4 Bft)
20.01.2021 01:19 1,3 C 0,0 C 85 % 1009,6 hPa 0,0 l/m 19,3 km/h (3 Bft) S 180 0 min 0,0 UV-I 0 W/m -0,9 C -7,6 C 25,7 km/h (4 Bft)
20.01.2021 01:20 1,3 C 0,6 C 85 % 1009,5 hPa 0,0 l/m 17,7 km/h (3 Bft) S 180 0 min 0,0 UV-I 0 W/m -0,9 C -6,9 C 33,8 km/h (5 Bft)
20.01.2021 01:21 1,3 C 0,6 C 85 % 1009,5 hPa 0,0 l/m 22,5 km/h (4 Bft) S-SW 202 0 min 0,0 UV-I 0 W/m -0,9 C -9,0 C 32,2 km/h (5 Bft)
20.01.2021 01:22 1,3 C 0,6 C 85 % 1009,5 hPa 0,0 l/m 16,1 km/h (3 Bft) S 180 0 min 0,0 UV-I 0 W/m -0,9 C -6,0 C 20,9 km/h (4 Bft)
20.01.2021 01:23 1,3 C 0,0 C 85 % 1009,5 hPa 0,0 l/m 16,1 km/h (3 Bft) S-SW 202 0 min 0,0 UV-I 0 W/m -0,9 C -6,0 C 19,3 km/h (3 Bft)
20.01.2021 01:24 1,2 C 0,0 C 85 % 1009,5 hPa 0,0 l/m 19,3 km/h (3 Bft) S 180 0 min 0,0 UV-I 0 W/m -1,0 C -7,8 C 27,4 km/h (4 Bft)
20.01.2021 01:25 1,2 C 0,0 C 85 % 1009,5 hPa 0,0 l/m 20,9 km/h (4 Bft) S 180 0 min 0,0 UV-I 0 W/m -1,0 C -8,5 C 30,6 km/h (5 Bft)
20.01.2021 01:26 1,2 C 0,0 C 85 % 1009,5 hPa 0,0 l/m 19,3 km/h (3 Bft) S 180 0 min 0,0 UV-I 0 W/m -1,0 C -7,8 C 25,7 km/h (4 Bft)
20.01.2021 01:27 1,2 C 0,0 C 85 % 1009,4 hPa 0,0 l/m 19,3 km/h (3 Bft) S-SW 202 0 min 0,0 UV-I 0 W/m -1,0 C -7,8 C 29,0 km/h (5 Bft)
20.01.2021 01:28 1,2 C 0,0 C 85 % 1009,5 hPa 0,0 l/m 20,9 km/h (4 Bft) S-SW 202 0 min 0,0 UV-I 0 W/m -1,0 C -8,5 C 29,0 km/h (5 Bft)
20.01.2021 01:29 1,2 C 0,0 C 85 % 1009,5 hPa 0,0 l/m 17,7 km/h (3 Bft) S 180 0 min 0,0 UV-I 0 W/m -1,0 C -7,0 C 25,7 km/h (4 Bft)
20.01.2021 01:30 1,2 C 0,0 C 85 % 1009,4 hPa 0,0 l/m 20,9 km/h (4 Bft) S-SW 202 0 min 0,0 UV-I 0 W/m -1,0 C -8,5 C 30,6 km/h (5 Bft)
20.01.2021 01:31 1,2 C 0,0 C 85 % 1009,5 hPa 0,0 l/m 19,3 km/h (3 Bft) S 180 0 min 0,0 UV-I 0 W/m -1,0 C -7,8 C 32,2 km/h (5 Bft)
20.01.2021 01:32 1,2 C 0,0 C 85 % 1009,5 hPa 0,0 l/m 16,1 km/h (3 Bft) S 180 0 min 0,0 UV-I 0 W/m -1,0 C -6,1 C 20,9 km/h (4 Bft)
20.01.2021 01:33 1,2 C 0,0 C 85 % 1009,4 hPa 0,0 l/m 17,7 km/h (3 Bft) S 180 0 min 0,0 UV-I 0 W/m -1,0 C -7,0 C 24,1 km/h (4 Bft)
20.01.2021 01:34 1,2 C 0,0 C 85 % 1009,4 hPa 0,0 l/m 20,9 km/h (4 Bft) S 180 0 min 0,0 UV-I 0 W/m -1,0 C -8,5 C 27,4 km/h (4 Bft)
20.01.2021 01:35 1,2 C 0,0 C 85 % 1009,3 hPa 0,0 l/m 16,1 km/h (3 Bft) S-SW 202 0 min 0,0 UV-I 0 W/m -1,0 C -6,1 C 29,0 km/h (5 Bft)
20.01.2021 01:36 1,2 C 0,0 C 86 % 1009,4 hPa 0,0 l/m 20,9 km/h (4 Bft) S 180 0 min 0,0 UV-I 0 W/m -0,9 C -8,5 C 29,0 km/h (5 Bft)
20.01.2021 01:37 1,2 C 0,0 C 86 % 1009,4 hPa 0,0 l/m 16,1 km/h (3 Bft) S 180 0 min 0,0 UV-I 0 W/m -0,9 C -6,1 C 22,5 km/h (4 Bft)
20.01.2021 01:38 1,2 C 0,0 C 85 % 1009,5 hPa 0,0 l/m 19,3 km/h (3 Bft) S 180 0 min 0,0 UV-I 0 W/m -1,0 C -7,8 C 27,4 km/h (4 Bft)
20.01.2021 01:39 1,2 C 0,0 C 86 % 1009,5 hPa 0,0 l/m 17,7 km/h (3 Bft) S 180 0 min 0,0 UV-I 0 W/m -0,9 C -7,0 C 24,1 km/h (4 Bft)
20.01.2021 01:40 1,2 C 0,0 C 86 % 1009,3 hPa 0,0 l/m 17,7 km/h (3 Bft) S 180 0 min 0,0 UV-I 0 W/m -0,9 C -7,0 C 22,5 km/h (4 Bft)
20.01.2021 01:41 1,2 C 0,0 C 86 % 1009,4 hPa 0,0 l/m 17,7 km/h (3 Bft) S 180 0 min 0,0 UV-I 0 W/m -0,9 C -7,0 C 25,7 km/h (4 Bft)
20.01.2021 01:42 1,2 C 0,0 C 86 % 1009,4 hPa 0,0 l/m 14,5 km/h (3 Bft) S 180 0 min 0,0 UV-I 0 W/m -0,9 C -5,2 C 22,5 km/h (4 Bft)
20.01.2021 01:43 1,1 C 0,0 C 86 % 1009,4 hPa 0,0 l/m 14,5 km/h (3 Bft) S 180 0 min 0,0 UV-I 0 W/m -1,0 C -5,4 C 22,5 km/h (4 Bft)
20.01.2021 01:44 1,2 C 0,0 C 86 % 1009,3 hPa 0,0 l/m 17,7 km/h (3 Bft) S-SW 202 0 min 0,0 UV-I 0 W/m -0,9 C -7,0 C 22,5 km/h (4 Bft)
20.01.2021 01:45 1,1 C 0,0 C 86 % 1009,4 hPa 0,0 l/m 16,1 km/h (3 Bft) S 180 0 min 0,0 UV-I 0 W/m -1,0 C -6,3 C 22,5 km/h (4 Bft)
20.01.2021 01:46 1,2 C 0,0 C 86 % 1009,3 hPa 0,0 l/m 17,7 km/h (3 Bft) S-SW 202 0 min 0,0 UV-I 0 W/m -0,9 C -7,0 C 27,4 km/h (4 Bft)
20.01.2021 01:47 1,1 C 0,0 C 86 % 1009,4 hPa 0,0 l/m 16,1 km/h (3 Bft) S 180 0 min 0,0 UV-I 0 W/m -1,0 C -6,3 C 20,9 km/h (4 Bft)
20.01.2021 01:48 1,1 C 0,0 C 86 % 1009,3 hPa 0,0 l/m 16,1 km/h (3 Bft) S 180 0 min 0,0 UV-I 0 W/m -1,0 C -6,3 C 27,4 km/h (4 Bft)
20.01.2021 01:49 1,1 C 0,0 C 86 % 1009,3 hPa 0,0 l/m 19,3 km/h (3 Bft) S-SW 202 0 min 0,0 UV-I 0 W/m -1,0 C -7,9 C 29,0 km/h (5 Bft)
20.01.2021 01:50 1,1 C 0,0 C 86 % 1009,3 hPa 0,0 l/m 17,7 km/h (3 Bft) S 180 0 min 0,0 UV-I 0 W/m -1,0 C -7,1 C 27,4 km/h (4 Bft)
20.01.2021 01:51 1,1 C 0,0 C 86 % 1009,3 hPa 0,0 l/m 17,7 km/h (3 Bft) S 180 0 min 0,0 UV-I 0 W/m -1,0 C -7,1 C 24,1 km/h (4 Bft)
20.01.2021 01:52 1,1 C 0,0 C 86 % 1009,3 hPa 0,0 l/m 14,5 km/h (3 Bft) S-SW 202 0 min 0,0 UV-I 0 W/m -1,0 C -5,4 C 20,9 km/h (4 Bft)
20.01.2021 01:53 1,2 C 0,0 C 86 % 1009,2 hPa 0,0 l/m 17,7 km/h (3 Bft) S 180 0 min 0,0 UV-I 0 W/m -0,9 C -7,0 C 24,1 km/h (4 Bft)
20.01.2021 01:54 1,1 C 0,0 C 86 % 1009,2 hPa 0,0 l/m 16,1 km/h (3 Bft) S-SW 202 0 min 0,0 UV-I 0 W/m -1,0 C -6,3 C 22,5 km/h (4 Bft)
20.01.2021 01:55 1,1 C 0,0 C 86 % 1009,2 hPa 0,0 l/m 20,9 km/h (4 Bft) S 180 0 min 0,0 UV-I 0 W/m -1,0 C -8,6 C 32,2 km/h (5 Bft)
20.01.2021 01:56 1,1 C 0,0 C 86 % 1009,1 hPa 0,0 l/m 16,1 km/h (3 Bft) S 180 0 min 0,0 UV-I 0 W/m -1,0 C -6,3 C 22,5 km/h (4 Bft)
20.01.2021 01:57 1,1 C 0,0 C 86 % 1009,2 hPa 0,0 l/m 17,7 km/h (3 Bft) S 180 0 min 0,0 UV-I 0 W/m -1,0 C -7,1 C 24,1 km/h (4 Bft)
20.01.2021 01:58 1,1 C 0,0 C 86 % 1009,1 hPa 0,0 l/m 17,7 km/h (3 Bft) S 180 0 min 0,0 UV-I 0 W/m -1,0 C -7,1 C 22,5 km/h (4 Bft)
20.01.2021 01:59 1,2 C 0,6 C 86 % 1009,2 hPa 0,0 l/m 20,9 km/h (4 Bft) S 180 0 min 0,0 UV-I 0 W/m -0,9 C -8,5 C 30,6 km/h (5 Bft)
20.01.2021 02:00 1,2 C 0,6 C 86 % 1009,2 hPa 0,0 l/m 16,1 km/h (3 Bft) S-SW 202 0 min 0,0 UV-I 0 W/m -0,9 C -6,1 C 19,3 km/h (3 Bft)
20.01.2021 02:01 1,2 C 0,0 C 86 % 1009,3 hPa 0,0 l/m 17,7 km/h (3 Bft) S-SW 202 0 min 0,0 UV-I 0 W/m -0,9 C -7,0 C 24,1 km/h (4 Bft)
20.01.2021 02:02 1,2 C 0,6 C 86 % 1009,3 hPa 0,0 l/m 19,3 km/h (3 Bft) S-SW 202 0 min 0,0 UV-I 0 W/m -0,9 C -7,8 C 27,4 km/h (4 Bft)
20.01.2021 02:03 1,2 C 0,6 C 86 % 1009,3 hPa 0,0 l/m 19,3 km/h (3 Bft) S-SW 202 0 min 0,0 UV-I 0 W/m -0,9 C -7,8 C 25,7 km/h (4 Bft)
20.01.2021 02:04 1,2 C 0,6 C 86 % 1009,3 hPa 0,0 l/m 20,9 km/h (4 Bft) S-SW 202 0 min 0,0 UV-I 0 W/m -0,9 C -8,5 C 29,0 km/h (5 Bft)
20.01.2021 02:05 1,3 C 0,6 C 86 % 1009,3 hPa 0,0 l/m 19,3 km/h (3 Bft) S-SW 202 0 min 0,0 UV-I 0 W/m -0,8 C -7,6 C 27,4 km/h (4 Bft)
20.01.2021 02:06 1,3 C 0,6 C 86 % 1009,3 hPa 0,0 l/m 22,5 km/h (4 Bft) S-SW 202 0 min 0,0 UV-I 0 W/m -0,8 C -9,0 C 33,8 km/h (5 Bft)
20.01.2021 02:07 1,3 C 0,6 C 86 % 1009,3 hPa 0,0 l/m 20,9 km/h (4 Bft) S 180 0 min 0,0 UV-I 0 W/m -0,8 C -8,3 C 25,7 km/h (4 Bft)
20.01.2021 02:08 1,3 C 0,6 C 86 % 1009,3 hPa 0,0 l/m 19,3 km/h (3 Bft) S-SW 202 0 min 0,0 UV-I 0 W/m -0,8 C -7,6 C 24,1 km/h (4 Bft)
20.01.2021 02:09 1,3 C 0,6 C 85 % 1009,3 hPa 0,0 l/m 20,9 km/h (4 Bft) S 180 0 min 0,0 UV-I 0 W/m -0,9 C -8,3 C 29,0 km/h (5 Bft)
20.01.2021 02:10 1,4 C 0,6 C 85 % 1009,3 hPa 0,0 l/m 19,3 km/h (3 Bft) S-SW 202 0 min 0,0 UV-I 0 W/m -0,8 C -7,5 C 29,0 km/h (5 Bft)
20.01.2021 02:11 1,4 C 0,6 C 85 % 1009,2 hPa 0,0 l/m 20,9 km/h (4 Bft) S 180 0 min 0,0 UV-I 0 W/m -0,8 C -8,2 C 35,4 km/h (5 Bft)
20.01.2021 02:12 1,4 C 0,6 C 85 % 1009,2 hPa 0,0 l/m 20,9 km/h (4 Bft) S 180 0 min 0,0 UV-I 0 W/m -0,8 C -8,2 C 30,6 km/h (5 Bft)
20.01.2021 02:13 1,4 C 0,6 C 85 % 1009,3 hPa 0,0 l/m 22,5 km/h (4 Bft) S-SW 202 0 min 0,0 UV-I 0 W/m -0,8 C -8,9 C 38,6 km/h (5 Bft)
20.01.2021 02:14 1,5 C 1,1 C 85 % 1009,2 hPa 0,0 l/m 24,1 km/h (4 Bft) S 180 0 min 0,0 UV-I 0 W/m -0,7 C -9,4 C 32,2 km/h (5 Bft)
20.01.2021 02:15 1,5 C 1,1 C 85 % 1009,2 hPa 0,0 l/m 20,9 km/h (4 Bft) S 180 0 min 0,0 UV-I 0 W/m -0,7 C -8,1 C 32,2 km/h (5 Bft)
20.01.2021 02:16 1,6 C 1,1 C 85 % 1009,2 hPa 0,0 l/m 20,9 km/h (4 Bft) S-SW 202 0 min 0,0 UV-I 0 W/m -0,6 C -8,0 C 33,8 km/h (5 Bft)
20.01.2021 02:17 1,6 C 1,1 C 85 % 1009,2 hPa 0,0 l/m 24,1 km/h (4 Bft) S-SW 202 0 min 0,0 UV-I 0 W/m -0,6 C -9,2 C 37,0 km/h (5 Bft)
20.01.2021 02:18 1,6 C 1,1 C 85 % 1009,2 hPa 0,0 l/m 24,1 km/h (4 Bft) S 180 0 min 0,0 UV-I 0 W/m -0,6 C -9,2 C 37,0 km/h (5 Bft)
20.01.2021 02:19 1,7 C 1,1 C 85 % 1009,3 hPa 0,0 l/m 20,9 km/h (4 Bft) S-SW 202 0 min 0,0 UV-I 0 W/m -0,5 C -7,8 C 33,8 km/h (5 Bft)
20.01.2021 02:20 1,7 C 1,1 C 85 % 1009,2 hPa 0,0 l/m 22,5 km/h (4 Bft) S-SW 202 0 min 0,0 UV-I 0 W/m -0,5 C -8,5 C 33,8 km/h (5 Bft)
20.01.2021 02:21 1,7 C 1,1 C 85 % 1009,2 hPa 0,0 l/m 24,1 km/h (4 Bft) S 180 0 min 0,0 UV-I 0 W/m -0,5 C -9,1 C 33,8 km/h (5 Bft)
20.01.2021 02:22 1,7 C 1,1 C 85 % 1009,2 hPa 0,0 l/m 24,1 km/h (4 Bft) S-SW 202 0 min 0,0 UV-I 0 W/m -0,5 C -9,1 C 38,6 km/h (5 Bft)
20.01.2021 02:23 1,7 C 1,1 C 85 % 1009,2 hPa 0,0 l/m 22,5 km/h (4 Bft) S-SW 202 0 min 0,0 UV-I 0 W/m -0,5 C -8,5 C 30,6 km/h (5 Bft)
20.01.2021 02:24 1,7 C 1,1 C 85 % 1009,1 hPa 0,0 l/m 24,1 km/h (4 Bft) S-SW 202 0 min 0,0 UV-I 0 W/m -0,5 C -9,1 C 37,0 km/h (5 Bft)
20.01.2021 02:25 1,7 C 1,1 C 84 % 1009,1 hPa 0,0 l/m 25,7 km/h (4 Bft) S 180 0 min 0,0 UV-I 0 W/m -0,7 C -9,7 C 35,4 km/h (5 Bft)
20.01.2021 02:26 1,7 C 1,1 C 84 % 1009,2 hPa 0,0 l/m 22,5 km/h (4 Bft) S 180 0 min 0,0 UV-I 0 W/m -0,7 C -8,5 C 35,4 km/h (5 Bft)
20.01.2021 02:27 1,8 C 1,1 C 84 % 1009,3 hPa 0,0 l/m 19,3 km/h (3 Bft) S 180 0 min 0,0 UV-I 0 W/m -0,6 C -7,0 C 30,6 km/h (5 Bft)
20.01.2021 02:28 1,8 C 1,1 C 84 % 1009,3 hPa 0,0 l/m 24,1 km/h (4 Bft) S-SW 202 0 min 0,0 UV-I 0 W/m -0,6 C -9,0 C 33,8 km/h (5 Bft)
20.01.2021 02:29 1,8 C 1,1 C 84 % 1009,3 hPa 0,0 l/m 20,9 km/h (4 Bft) S-SW 202 0 min 0,0 UV-I 0 W/m -0,6 C -7,7 C 33,8 km/h (5 Bft)
20.01.2021 02:30 1,8 C 1,1 C 84 % 1009,3 hPa 0,0 l/m 22,5 km/h (4 Bft) S 180 0 min 0,0 UV-I 0 W/m -0,6 C -8,3 C 32,2 km/h (5 Bft)
20.01.2021 02:31 1,8 C 1,1 C 84 % 1009,3 hPa 0,0 l/m 27,4 km/h (4 Bft) S-SW 202 0 min 0,0 UV-I 0 W/m -0,6 C -10,1 C 35,4 km/h (5 Bft)
20.01.2021 02:32 1,8 C 1,1 C 84 % 1009,3 hPa 0,0 l/m 25,7 km/h (4 Bft) S 180 0 min 0,0 UV-I 0 W/m -0,6 C -9,5 C 32,2 km/h (5 Bft)
20.01.2021 02:33 1,8 C 1,1 C 84 % 1009,4 hPa 0,0 l/m 22,5 km/h (4 Bft) S 180 0 min 0,0 UV-I 0 W/m -0,6 C -8,3 C 33,8 km/h (5 Bft)
20.01.2021 02:34 1,8 C 1,1 C 84 % 1009,3 hPa 0,0 l/m 20,9 km/h (4 Bft) S 180 0 min 0,0 UV-I 0 W/m -0,6 C -7,7 C 29,0 km/h (5 Bft)
20.01.2021 02:35 1,8 C 1,1 C 84 % 1009,3 hPa 0,0 l/m 20,9 km/h (4 Bft) S-SW 202 0 min 0,0 UV-I 0 W/m -0,6 C -7,7 C 29,0 km/h (5 Bft)
20.01.2021 02:36 1,8 C 1,1 C 84 % 1009,4 hPa 0,0 l/m 25,7 km/h (4 Bft) S-SW 202 0 min 0,0 UV-I 0 W/m -0,6 C -9,5 C 35,4 km/h (5 Bft)
20.01.2021 02:37 1,8 C 1,1 C 84 % 1009,3 hPa 0,0 l/m 22,5 km/h (4 Bft) S-SW 202 0 min 0,0 UV-I 0 W/m -0,6 C -8,3 C 38,6 km/h (5 Bft)
20.01.2021 02:38 1,8 C 1,1 C 84 % 1009,2 hPa 0,0 l/m 24,1 km/h (4 Bft) S-SW 202 0 min 0,0 UV-I 0 W/m -0,6 C -9,0 C 35,4 km/h (5 Bft)
20.01.2021 02:39 1,8 C 1,1 C 84 % 1009,4 hPa 0,0 l/m 24,1 km/h (4 Bft) S-SW 202 0 min 0,0 UV-I 0 W/m -0,6 C -9,0 C 37,0 km/h (5 Bft)
20.01.2021 02:40 1,8 C 1,1 C 84 % 1009,3 hPa 0,0 l/m 16,1 km/h (3 Bft) S-SW 202 0 min 0,0 UV-I 0 W/m -0,6 C -5,4 C 22,5 km/h (4 Bft)
20.01.2021 02:41 1,8 C 1,1 C 84 % 1009,2 hPa 0,0 l/m 22,5 km/h (4 Bft) S-SW 202 0 min 0,0 UV-I 0 W/m -0,6 C -8,3 C 38,6 km/h (5 Bft)
20.01.2021 02:42 1,8 C 1,1 C 84 % 1009,4 hPa 0,0 l/m 22,5 km/h (4 Bft) S-SW 202 0 min 0,0 UV-I 0 W/m -0,6 C -8,3 C 33,8 km/h (5 Bft)
20.01.2021 02:43 1,8 C 1,1 C 85 % 1009,2 hPa 0,0 l/m 19,3 km/h (3 Bft) S-SW 202 0 min 0,0 UV-I 0 W/m -0,4 C -7,0 C 29,0 km/h (5 Bft)
20.01.2021 02:44 1,8 C 1,1 C 85 % 1009,3 hPa 0,0 l/m 19,3 km/h (3 Bft) S 180 0 min 0,0 UV-I 0 W/m -0,4 C -7,0 C 25,7 km/h (4 Bft)
20.01.2021 02:45 1,8 C 1,1 C 85 % 1009,2 hPa 0,0 l/m 17,7 km/h (3 Bft) S-SW 202 0 min 0,0 UV-I 0 W/m -0,4 C -6,2 C 30,6 km/h (5 Bft)
20.01.2021 02:46 1,8 C 1,1 C 85 % 1009,2 hPa 0,0 l/m 22,5 km/h (4 Bft) S-SW 202 0 min 0,0 UV-I 0 W/m -0,4 C -8,3 C 30,6 km/h (5 Bft)
20.01.2021 02:47 1,8 C 1,1 C 85 % 1009,2 hPa 0,0 l/m 17,7 km/h (3 Bft) S-SW 202 0 min 0,0 UV-I 0 W/m -0,4 C -6,2 C 24,1 km/h (4 Bft)
20.01.2021 02:48 1,8 C 1,1 C 85 % 1009,2 hPa 0,0 l/m 19,3 km/h (3 Bft) S-SW 202 0 min 0,0 UV-I 0 W/m -0,4 C -7,0 C 29,0 km/h (5 Bft)
20.01.2021 02:49 1,8 C 1,1 C 85 % 1009,2 hPa 0,0 l/m 24,1 km/h (4 Bft) S-SW 202 0 min 0,0 UV-I 0 W/m -0,4 C -9,0 C 37,0 km/h (5 Bft)
20.01.2021 02:50 1,7 C 1,1 C 85 % 1009,3 hPa 0,0 l/m 22,5 km/h (4 Bft) S-SW 202 0 min 0,0 UV-I 0 W/m -0,5 C -8,5 C 33,8 km/h (5 Bft)
20.01.2021 02:51 1,8 C 1,1 C 85 % 1009,2 hPa 0,0 l/m 22,5 km/h (4 Bft) S-SW 202 0 min 0,0 UV-I 0 W/m -0,4 C -8,3 C 30,6 km/h (5 Bft)
20.01.2021 02:52 1,8 C 1,1 C 85 % 1009,2 hPa 0,0 l/m 20,9 km/h (4 Bft) S 180 0 min 0,0 UV-I 0 W/m -0,4 C -7,7 C 32,2 km/h (5 Bft)
20.01.2021 02:53 1,8 C 1,1 C 85 % 1009,3 hPa 0,0 l/m 20,9 km/h (4 Bft) S-SW 202 0 min 0,0 UV-I 0 W/m -0,4 C -7,7 C 27,4 km/h (4 Bft)
20.01.2021 02:54 1,7 C 1,1 C 85 % 1009,2 hPa 0,0 l/m 22,5 km/h (4 Bft) S 180 0 min 0,0 UV-I 0 W/m -0,5 C -8,5 C 32,2 km/h (5 Bft)
20.01.2021 02:55 1,7 C 1,1 C 85 % 1009,2 hPa 0,0 l/m 22,5 km/h (4 Bft) S-SW 202 0 min 0,0 UV-I 0 W/m -0,5 C -8,5 C 37,0 km/h (5 Bft)
20.01.2021 02:56 1,8 C 1,1 C 85 % 1009,2 hPa 0,0 l/m 29,0 km/h (5 Bft) S-SW 202 0 min 0,0 UV-I 0 W/m -0,4 C -10,6 C 38,6 km/h (5 Bft)
20.01.2021 02:57 1,7 C 1,1 C 85 % 1009,1 hPa 0,0 l/m 20,9 km/h (4 Bft) S 180 0 min 0,0 UV-I 0 W/m -0,5 C -7,8 C 35,4 km/h (5 Bft)
20.01.2021 02:58 1,7 C 1,1 C 85 % 1009,1 hPa 0,0 l/m 20,9 km/h (4 Bft) S-SW 202 0 min 0,0 UV-I 0 W/m -0,5 C -7,8 C 32,2 km/h (5 Bft)
20.01.2021 02:59 1,8 C 1,1 C 85 % 1009,1 hPa 0,0 l/m 19,3 km/h (3 Bft) S 180 0 min 0,0 UV-I 0 W/m -0,4 C -7,0 C 27,4 km/h (4 Bft)
20.01.2021 03:00 1,8 C 1,1 C 85 % 1009,1 hPa 0,0 l/m 25,7 km/h (4 Bft) S-SW 202 0 min 0,0 UV-I 0 W/m -0,4 C -9,5 C 41,8 km/h (6 Bft)
20.01.2021 03:01 1,7 C 1,1 C 85 % 1009,0 hPa 0,0 l/m 20,9 km/h (4 Bft) S 180 0 min 0,0 UV-I 0 W/m -0,5 C -7,8 C 41,8 km/h (6 Bft)
20.01.2021 03:02 1,8 C 1,1 C 85 % 1009,1 hPa 0,0 l/m 19,3 km/h (3 Bft) S 180 0 min 0,0 UV-I 0 W/m -0,4 C -7,0 C 37,0 km/h (5 Bft)
20.01.2021 03:03 1,8 C 1,1 C 85 % 1009,0 hPa 0,0 l/m 19,3 km/h (3 Bft) S 180 0 min 0,0 UV-I 0 W/m -0,4 C -7,0 C 27,4 km/h (4 Bft)
20.01.2021 03:04 1,8 C 1,1 C 85 % 1009,1 hPa 0,0 l/m 22,5 km/h (4 Bft) S-SW 202 0 min 0,0 UV-I 0 W/m -0,4 C -8,3 C 29,0 km/h (5 Bft)
20.01.2021 03:05 1,8 C 1,1 C 85 % 1009,1 hPa 0,0 l/m 22,5 km/h (4 Bft) S 180 0 min 0,0 UV-I 0 W/m -0,4 C -8,3 C 30,6 km/h (5 Bft)
20.01.2021 03:06 1,8 C 1,1 C 85 % 1009,1 hPa 0,0 l/m 22,5 km/h (4 Bft) S-SW 202 0 min 0,0 UV-I 0 W/m -0,4 C -8,3 C 30,6 km/h (5 Bft)
20.01.2021 03:07 1,8 C 1,1 C 85 % 1009,0 hPa 0,0 l/m 24,1 km/h (4 Bft) S-SW 202 0 min 0,0 UV-I 0 W/m -0,4 C -9,0 C 33,8 km/h (5 Bft)
20.01.2021 03:08 1,8 C 1,1 C 85 % 1009,1 hPa 0,0 l/m 17,7 km/h (3 Bft) S-SW 202 0 min 0,0 UV-I 0 W/m -0,4 C -6,2 C 30,6 km/h (5 Bft)
20.01.2021 03:09 1,8 C 1,1 C 85 % 1008,9 hPa 0,0 l/m 19,3 km/h (3 Bft) S 180 0 min 0,0 UV-I 0 W/m -0,4 C -7,0 C 30,6 km/h (5 Bft)
20.01.2021 03:10 1,8 C 1,1 C 85 % 1009,1 hPa 0,0 l/m 20,9 km/h (4 Bft) S-SW 202 0 min 0,0 UV-I 0 W/m -0,4 C -7,7 C 30,6 km/h (5 Bft)
20.01.2021 03:11 1,8 C 1,1 C 85 % 1009,0 hPa 0,0 l/m 24,1 km/h (4 Bft) S-SW 202 0 min 0,0 UV-I 0 W/m -0,4 C -9,0 C 40,2 km/h (6 Bft)
20.01.2021 03:12 1,8 C 1,1 C 85 % 1009,0 hPa 0,0 l/m 22,5 km/h (4 Bft) S-SW 202 0 min 0,0 UV-I 0 W/m -0,4 C -8,3 C 30,6 km/h (5 Bft)
20.01.2021 03:13 1,9 C 1,1 C 85 % 1009,1 hPa 0,0 l/m 22,5 km/h (4 Bft) S-SW 202 0 min 0,0 UV-I 0 W/m -0,3 C -8,2 C 30,6 km/h (5 Bft)
20.01.2021 03:14 1,9 C 1,1 C 85 % 1009,0 hPa 0,0 l/m 24,1 km/h (4 Bft) S 180 0 min 0,0 UV-I 0 W/m -0,3 C -8,8 C 33,8 km/h (5 Bft)
20.01.2021 03:15 1,9 C 1,1 C 85 % 1009,0 hPa 0,0 l/m 20,9 km/h (4 Bft) S-SW 202 0 min 0,0 UV-I 0 W/m -0,3 C -7,6 C 29,0 km/h (5 Bft)
20.01.2021 03:16 1,9 C 1,1 C 85 % 1009,0 hPa 0,0 l/m 20,9 km/h (4 Bft) S-SW 202 0 min 0,0 UV-I 0 W/m -0,3 C -7,6 C 35,4 km/h (5 Bft)
20.01.2021 03:17 1,9 C 1,7 C 85 % 1009,0 hPa 0,0 l/m 27,4 km/h (4 Bft) S-SW 202 0 min 0,0 UV-I 0 W/m -0,3 C -9,9 C 37,0 km/h (5 Bft)
20.01.2021 03:18 1,9 C 1,7 C 85 % 1009,0 hPa 0,0 l/m 22,5 km/h (4 Bft) S-SW 202 0 min 0,0 UV-I 0 W/m -0,3 C -8,2 C 32,2 km/h (5 Bft)
20.01.2021 03:19 2,0 C 1,1 C 85 % 1009,1 hPa 0,0 l/m 19,3 km/h (3 Bft) S-SW 202 0 min 0,0 UV-I 0 W/m -0,3 C -6,7 C 24,1 km/h (4 Bft)
20.01.2021 03:20 2,0 C 1,1 C 85 % 1008,9 hPa 0,0 l/m 25,7 km/h (4 Bft) S-SW 202 0 min 0,0 UV-I 0 W/m -0,3 C -9,3 C 37,0 km/h (5 Bft)
20.01.2021 03:21 2,0 C 1,1 C 85 % 1009,0 hPa 0,0 l/m 24,1 km/h (4 Bft) S-SW 202 0 min 0,0 UV-I 0 W/m -0,3 C -8,7 C 32,2 km/h (5 Bft)
20.01.2021 03:22 2,1 C 1,7 C 85 % 1009,0 hPa 0,0 l/m 22,5 km/h (4 Bft) S-SW 202 0 min 0,0 UV-I 0 W/m -0,2 C -8,0 C 30,6 km/h (5 Bft)
20.01.2021 03:23 2,1 C 1,7 C 85 % 1008,9 hPa 0,0 l/m 22,5 km/h (4 Bft) S-SW 202 0 min 0,0 UV-I 0 W/m -0,2 C -8,0 C 30,6 km/h (5 Bft)
20.01.2021 03:24 2,1 C 1,7 C 85 % 1008,9 hPa 0,0 l/m 16,1 km/h (3 Bft) S-SW 202 0 min 0,0 UV-I 0 W/m -0,2 C -5,0 C 19,3 km/h (3 Bft)
20.01.2021 03:25 2,1 C 1,1 C 85 % 1008,9 hPa 0,0 l/m 17,7 km/h (3 Bft) S-SW 202 0 min 0,0 UV-I 0 W/m -0,2 C -5,9 C 22,5 km/h (4 Bft)
20.01.2021 03:26 2,1 C 1,1 C 85 % 1009,0 hPa 0,0 l/m 17,7 km/h (3 Bft) S-SW 202 0 min 0,0 UV-I 0 W/m -0,2 C -5,9 C 24,1 km/h (4 Bft)
20.01.2021 03:27 2,1 C 1,1 C 85 % 1008,9 hPa 0,0 l/m 16,1 km/h (3 Bft) S-SW 202 0 min 0,0 UV-I 0 W/m -0,2 C -5,0 C 20,9 km/h (4 Bft)
20.01.2021 03:28 2,1 C 1,1 C 85 % 1008,8 hPa 0,0 l/m 20,9 km/h (4 Bft) S-SW 202 0 min 0,0 UV-I 0 W/m -0,2 C -7,3 C 30,6 km/h (5 Bft)
20.01.2021 03:29 2,1 C 1,1 C 85 % 1008,8 hPa 0,0 l/m 22,5 km/h (4 Bft) S-SW 202 0 min 0,0 UV-I 0 W/m -0,2 C -8,0 C 29,0 km/h (5 Bft)
20.01.2021 03:30 2,1 C 1,1 C 85 % 1008,8 hPa 0,0 l/m 20,9 km/h (4 Bft) S-SW 202 0 min 0,0 UV-I 0 W/m -0,2 C -7,3 C 29,0 km/h (5 Bft)
20.01.2021 03:31 2,1 C 1,7 C 85 % 1008,8 hPa 0,0 l/m 22,5 km/h (4 Bft) S-SW 202 0 min 0,0 UV-I 0 W/m -0,2 C -8,0 C 37,0 km/h (5 Bft)
20.01.2021 03:32 2,1 C 1,7 C 85 % 1008,9 hPa 0,0 l/m 17,7 km/h (3 Bft) S-SW 202 0 min 0,0 UV-I 0 W/m -0,2 C -5,9 C 29,0 km/h (5 Bft)
20.01.2021 03:33 2,1 C 1,7 C 85 % 1008,8 hPa 0,0 l/m 22,5 km/h (4 Bft) S-SW 202 0 min 0,0 UV-I 0 W/m -0,2 C -8,0 C 32,2 km/h (5 Bft)
20.01.2021 03:34 2,1 C 1,1 C 85 % 1008,8 hPa 0,0 l/m 22,5 km/h (4 Bft) S 180 0 min 0,0 UV-I 0 W/m -0,2 C -8,0 C 32,2 km/h (5 Bft)
20.01.2021 03:35 2,1 C 1,7 C 85 % 1008,8 hPa 0,0 l/m 19,3 km/h (3 Bft) S 180 0 min 0,0 UV-I 0 W/m -0,2 C -6,6 C 25,7 km/h (4 Bft)
20.01.2021 03:36 2,1 C 1,7 C 85 % 1008,8 hPa 0,0 l/m 20,9 km/h (4 Bft) S-SW 202 0 min 0,0 UV-I 0 W/m -0,2 C -7,3 C 27,4 km/h (4 Bft)
20.01.2021 03:37 2,2 C 1,7 C 84 % 1008,8 hPa 0,0 l/m 22,5 km/h (4 Bft) S-SW 202 0 min 0,0 UV-I 0 W/m -0,2 C -7,8 C 27,4 km/h (4 Bft)
20.01.2021 03:38 2,2 C 1,7 C 84 % 1008,8 hPa 0,0 l/m 20,9 km/h (4 Bft) S-SW 202 0 min 0,0 UV-I 0 W/m -0,2 C -7,2 C 30,6 km/h (5 Bft)
20.01.2021 03:39 2,1 C 1,7 C 84 % 1008,8 hPa 0,0 l/m 17,7 km/h (3 Bft) S-SW 202 0 min 0,0 UV-I 0 W/m -0,3 C -5,9 C 24,1 km/h (4 Bft)
20.01.2021 03:40 2,2 C 1,7 C 84 % 1008,8 hPa 0,0 l/m 19,3 km/h (3 Bft) S-SW 202 0 min 0,0 UV-I 0 W/m -0,2 C -6,5 C 27,4 km/h (4 Bft)
20.01.2021 03:41 2,2 C 1,7 C 84 % 1008,8 hPa 0,0 l/m 19,3 km/h (3 Bft) S-SW 202 0 min 0,0 UV-I 0 W/m -0,2 C -6,5 C 29,0 km/h (5 Bft)
20.01.2021 03:42 2,2 C 1,7 C 84 % 1008,8 hPa 0,0 l/m 16,1 km/h (3 Bft) S-SW 202 0 min 0,0 UV-I 0 W/m -0,2 C -4,9 C 24,1 km/h (4 Bft)
20.01.2021 03:43 2,2 C 1,1 C 84 % 1008,8 hPa 0,0 l/m 22,5 km/h (4 Bft) S-SW 202 0 min 0,0 UV-I 0 W/m -0,2 C -7,8 C 33,8 km/h (5 Bft)
20.01.2021 03:44 2,2 C 1,1 C 85 % 1008,8 hPa 0,0 l/m 20,9 km/h (4 Bft) S-SW 202 0 min 0,0 UV-I 0 W/m -0,1 C -7,2 C 32,2 km/h (5 Bft)
20.01.2021 03:45 2,2 C 1,7 C 85 % 1008,8 hPa 0,0 l/m 19,3 km/h (3 Bft) S-SW 202 0 min 0,0 UV-I 0 W/m -0,1 C -6,5 C 30,6 km/h (5 Bft)
20.01.2021 03:46 2,2 C 1,7 C 85 % 1008,9 hPa 0,0 l/m 20,9 km/h (4 Bft) S-SW 202 0 min 0,0 UV-I 0 W/m -0,1 C -7,2 C 27,4 km/h (4 Bft)
20.01.2021 03:47 2,2 C 1,7 C 85 % 1008,8 hPa 0,0 l/m 19,3 km/h (3 Bft) S-SW 202 0 min 0,0 UV-I 0 W/m -0,1 C -6,5 C 27,4 km/h (4 Bft)
20.01.2021 03:48 2,2 C 1,7 C 85 % 1008,8 hPa 0,0 l/m 17,7 km/h (3 Bft) S-SW 202 0 min 0,0 UV-I 0 W/m -0,1 C -5,7 C 29,0 km/h (5 Bft)
20.01.2021 03:49 2,2 C 1,7 C 85 % 1008,8 hPa 0,0 l/m 20,9 km/h (4 Bft) S-SW 202 0 min 0,0 UV-I 0 W/m -0,1 C -7,2 C 32,2 km/h (5 Bft)
20.01.2021 03:50 2,2 C 1,7 C 85 % 1008,8 hPa 0,0 l/m 19,3 km/h (3 Bft) S-SW 202 0 min 0,0 UV-I 0 W/m -0,1 C -6,5 C 25,7 km/h (4 Bft)
20.01.2021 03:51 2,2 C 1,1 C 84 % 1008,8 hPa 0,0 l/m 20,9 km/h (4 Bft) S 180 0 min 0,0 UV-I 0 W/m -0,2 C -7,2 C 29,0 km/h (5 Bft)
20.01.2021 03:52 2,2 C 1,1 C 84 % 1008,7 hPa 0,0 l/m 19,3 km/h (3 Bft) S 180 0 min 0,0 UV-I 0 W/m -0,2 C -6,5 C 27,4 km/h (4 Bft)
20.01.2021 03:53 2,2 C 1,1 C 84 % 1008,8 hPa 0,0 l/m 17,7 km/h (3 Bft) S 180 0 min 0,0 UV-I 0 W/m -0,2 C -5,7 C 24,1 km/h (4 Bft)
20.01.2021 03:54 2,2 C 1,1 C 84 % 1008,7 hPa 0,0 l/m 16,1 km/h (3 Bft) S-SW 202 0 min 0,0 UV-I 0 W/m -0,2 C -4,9 C 20,9 km/h (4 Bft)
20.01.2021 03:55 2,2 C 1,1 C 84 % 1008,8 hPa 0,0 l/m 17,7 km/h (3 Bft) S 180 0 min 0,0 UV-I 0 W/m -0,2 C -5,7 C 29,0 km/h (5 Bft)
20.01.2021 03:56 2,1 C 1,1 C 84 % 1008,7 hPa 0,0 l/m 17,7 km/h (3 Bft) S-SW 202 0 min 0,0 UV-I 0 W/m -0,3 C -5,9 C 27,4 km/h (4 Bft)
20.01.2021 03:57 2,1 C 1,1 C 85 % 1008,6 hPa 0,0 l/m 20,9 km/h (4 Bft) S-SW 202 0 min 0,0 UV-I 0 W/m -0,2 C -7,3 C 32,2 km/h (5 Bft)
20.01.2021 03:58 2,1 C 1,1 C 85 % 1008,7 hPa 0,0 l/m 17,7 km/h (3 Bft) S-SW 202 0 min 0,0 UV-I 0 W/m -0,2 C -5,9 C 24,1 km/h (4 Bft)
20.01.2021 03:59 2,1 C 1,1 C 85 % 1008,8 hPa 0,0 l/m 19,3 km/h (3 Bft) S-SW 202 0 min 0,0 UV-I 0 W/m -0,2 C -6,6 C 30,6 km/h (5 Bft)
20.01.2021 04:00 2,1 C 1,1 C 85 % 1008,7 hPa 0,0 l/m 20,9 km/h (4 Bft) S 180 0 min 0,0 UV-I 0 W/m -0,2 C -7,3 C 35,4 km/h (5 Bft)
20.01.2021 04:01 2,1 C 1,1 C 85 % 1008,6 hPa 0,0 l/m 19,3 km/h (3 Bft) S-SW 202 0 min 0,0 UV-I 0 W/m -0,2 C -6,6 C 27,4 km/h (4 Bft)
20.01.2021 04:02 2,1 C 1,1 C 85 % 1008,8 hPa 0,0 l/m 19,3 km/h (3 Bft) S 180 0 min 0,0 UV-I 0 W/m -0,2 C -6,6 C 22,5 km/h (4 Bft)
20.01.2021 04:03 2,1 C 1,1 C 85 % 1008,6 hPa 0,0 l/m 20,9 km/h (4 Bft) S 180 0 min 0,0 UV-I 0 W/m -0,2 C -7,3 C 32,2 km/h (5 Bft)
20.01.2021 04:04 2,1 C 1,1 C 85 % 1008,6 hPa 0,0 l/m 17,7 km/h (3 Bft) S 180 0 min 0,0 UV-I 0 W/m -0,2 C -5,9 C 32,2 km/h (5 Bft)
20.01.2021 04:05 2,1 C 1,1 C 85 % 1008,6 hPa 0,0 l/m 19,3 km/h (3 Bft) S-SW 202 0 min 0,0 UV-I 0 W/m -0,2 C -6,6 C 25,7 km/h (4 Bft)
20.01.2021 04:06 2,0 C 1,1 C 85 % 1008,6 hPa 0,0 l/m 19,3 km/h (3 Bft) S-SW 202 0 min 0,0 UV-I 0 W/m -0,3 C -6,7 C 25,7 km/h (4 Bft)
20.01.2021 04:07 2,0 C 1,1 C 85 % 1008,6 hPa 0,0 l/m 22,5 km/h (4 Bft) S 180 0 min 0,0 UV-I 0 W/m -0,3 C -8,1 C 32,2 km/h (5 Bft)
20.01.2021 04:08 1,9 C 1,1 C 85 % 1008,6 hPa 0,0 l/m 19,3 km/h (3 Bft) S-SW 202 0 min 0,0 UV-I 0 W/m -0,3 C -6,9 C 25,7 km/h (4 Bft)
20.01.2021 04:09 1,9 C 1,1 C 85 % 1008,6 hPa 0,0 l/m 19,3 km/h (3 Bft) S-SW 202 0 min 0,0 UV-I 0 W/m -0,3 C -6,9 C 30,6 km/h (5 Bft)
20.01.2021 04:10 1,9 C 1,1 C 85 % 1008,5 hPa 0,0 l/m 19,3 km/h (3 Bft) S-SW 202 0 min 0,0 UV-I 0 W/m -0,3 C -6,9 C 29,0 km/h (5 Bft)
20.01.2021 04:11 1,9 C 1,1 C 85 % 1008,6 hPa 0,0 l/m 24,1 km/h (4 Bft) S-SW 202 0 min 0,0 UV-I 0 W/m -0,3 C -8,8 C 33,8 km/h (5 Bft)
20.01.2021 04:12 1,9 C 1,1 C 85 % 1008,6 hPa 0,0 l/m 19,3 km/h (3 Bft) S-SW 202 0 min 0,0 UV-I 0 W/m -0,3 C -6,9 C 29,0 km/h (5 Bft)
20.01.2021 04:13 1,9 C 1,1 C 85 % 1008,6 hPa 0,0 l/m 20,9 km/h (4 Bft) S 180 0 min 0,0 UV-I 0 W/m -0,3 C -7,6 C 25,7 km/h (4 Bft)
20.01.2021 04:14 1,9 C 1,1 C 85 % 1008,5 hPa 0,0 l/m 20,9 km/h (4 Bft) S 180 0 min 0,0 UV-I 0 W/m -0,3 C -7,6 C 30,6 km/h (5 Bft)
20.01.2021 04:15 1,9 C 1,1 C 85 % 1008,5 hPa 0,0 l/m 17,7 km/h (3 Bft) S-SW 202 0 min 0,0 UV-I 0 W/m -0,3 C -6,1 C 25,7 km/h (4 Bft)
20.01.2021 04:16 1,8 C 1,1 C 85 % 1008,5 hPa 0,0 l/m 16,1 km/h (3 Bft) S-SW 202 0 min 0,0 UV-I 0 W/m -0,4 C -5,4 C 22,5 km/h (4 Bft)
20.01.2021 04:17 1,8 C 1,1 C 85 % 1008,5 hPa 0,0 l/m 19,3 km/h (3 Bft) S 180 0 min 0,0 UV-I 0 W/m -0,4 C -7,0 C 30,6 km/h (5 Bft)
20.01.2021 04:18 1,8 C 1,1 C 85 % 1008,4 hPa 0,0 l/m 16,1 km/h (3 Bft) S 180 0 min 0,0 UV-I 0 W/m -0,4 C -5,4 C 24,1 km/h (4 Bft)
20.01.2021 04:19 1,8 C 1,1 C 85 % 1008,4 hPa 0,0 l/m 22,5 km/h (4 Bft) S 180 0 min 0,0 UV-I 0 W/m -0,4 C -8,3 C 30,6 km/h (5 Bft)
20.01.2021 04:20 1,8 C 1,1 C 85 % 1008,5 hPa 0,0 l/m 17,7 km/h (3 Bft) S 180 0 min 0,0 UV-I 0 W/m -0,4 C -6,2 C 27,4 km/h (4 Bft)
20.01.2021 04:21 1,8 C 1,1 C 85 % 1008,5 hPa 0,0 l/m 17,7 km/h (3 Bft) S-SW 202 0 min 0,0 UV-I 0 W/m -0,4 C -6,2 C 22,5 km/h (4 Bft)
20.01.2021 04:22 1,8 C 1,1 C 85 % 1008,4 hPa 0,0 l/m 17,7 km/h (3 Bft) S 180 0 min 0,0 UV-I 0 W/m -0,4 C -6,2 C 24,1 km/h (4 Bft)
20.01.2021 04:23 1,8 C 1,1 C 85 % 1008,4 hPa 0,0 l/m 20,9 km/h (4 Bft) S-SW 202 0 min 0,0 UV-I 0 W/m -0,4 C -7,7 C 27,4 km/h (4 Bft)
20.01.2021 04:24 1,8 C 1,1 C 85 % 1008,4 hPa 0,0 l/m 17,7 km/h (3 Bft) S-SW 202 0 min 0,0 UV-I 0 W/m -0,4 C -6,2 C 20,9 km/h (4 Bft)
20.01.2021 04:25 1,8 C 0,6 C 85 % 1008,4 hPa 0,0 l/m 17,7 km/h (3 Bft) S-SW 202 0 min 0,0 UV-I 0 W/m -0,4 C -6,2 C 27,4 km/h (4 Bft)
20.01.2021 04:26 1,8 C 1,1 C 85 % 1008,3 hPa 0,0 l/m 14,5 km/h (3 Bft) S-SW 202 0 min 0,0 UV-I 0 W/m -0,4 C -4,5 C 20,9 km/h (4 Bft)
20.01.2021 04:27 1,8 C 0,6 C 85 % 1008,4 hPa 0,0 l/m 14,5 km/h (3 Bft) S-SW 202 0 min 0,0 UV-I 0 W/m -0,4 C -4,5 C 22,5 km/h (4 Bft)
20.01.2021 04:28 1,7 C 0,6 C 85 % 1008,3 hPa 0,0 l/m 14,5 km/h (3 Bft) S-SW 202 0 min 0,0 UV-I 0 W/m -0,5 C -4,6 C 22,5 km/h (4 Bft)
20.01.2021 04:29 1,7 C 0,6 C 85 % 1008,4 hPa 0,0 l/m 17,7 km/h (3 Bft) S-SW 202 0 min 0,0 UV-I 0 W/m -0,5 C -6,4 C 22,5 km/h (4 Bft)
20.01.2021 04:30 1,7 C 0,6 C 86 % 1008,4 hPa 0,0 l/m 12,9 km/h (3 Bft) S-SW 202 0 min 0,0 UV-I 0 W/m -0,4 C -3,6 C 17,7 km/h (3 Bft)
20.01.2021 04:31 1,7 C 0,6 C 86 % 1008,3 hPa 0,0 l/m 20,9 km/h (4 Bft) S-SW 202 0 min 0,0 UV-I 0 W/m -0,4 C -7,8 C 25,7 km/h (4 Bft)
20.01.2021 04:32 1,7 C 0,6 C 86 % 1008,3 hPa 0,0 l/m 17,7 km/h (3 Bft) S-SW 202 0 min 0,0 UV-I 0 W/m -0,4 C -6,4 C 27,4 km/h (4 Bft)
20.01.2021 04:33 1,7 C 0,6 C 86 % 1008,3 hPa 0,0 l/m 17,7 km/h (3 Bft) S-SW 202 0 min 0,0 UV-I 0 W/m -0,4 C -6,4 C 24,1 km/h (4 Bft)
20.01.2021 04:34 1,7 C 0,6 C 86 % 1008,3 hPa 0,0 l/m 14,5 km/h (3 Bft) S 180 0 min 0,0 UV-I 0 W/m -0,4 C -4,6 C 20,9 km/h (4 Bft)
20.01.2021 04:35 1,7 C 0,6 C 86 % 1008,3 hPa 0,0 l/m 14,5 km/h (3 Bft) S-SW 202 0 min 0,0 UV-I 0 W/m -0,4 C -4,6 C 25,7 km/h (4 Bft)
20.01.2021 04:36 1,7 C 0,6 C 86 % 1008,2 hPa 0,0 l/m 14,5 km/h (3 Bft) S-SW 202 0 min 0,0 UV-I 0 W/m -0,4 C -4,6 C 19,3 km/h (3 Bft)
20.01.2021 04:37 1,7 C 0,6 C 86 % 1008,2 hPa 0,0 l/m 14,5 km/h (3 Bft) S 180 0 min 0,0 UV-I 0 W/m -0,4 C -4,6 C 22,5 km/h (4 Bft)
20.01.2021 04:38 1,7 C 0,6 C 86 % 1008,2 hPa 0,0 l/m 14,5 km/h (3 Bft) S-SW 202 0 min 0,0 UV-I 0 W/m -0,4 C -4,6 C 17,7 km/h (3 Bft)
20.01.2021 04:39 1,7 C 0,6 C 86 % 1008,2 hPa 0,0 l/m 14,5 km/h (3 Bft) S-SW 202 0 min 0,0 UV-I 0 W/m -0,4 C -4,6 C 24,1 km/h (4 Bft)
20.01.2021 04:40 1,7 C 0,6 C 86 % 1008,1 hPa 0,0 l/m 17,7 km/h (3 Bft) S 180 0 min 0,0 UV-I 0 W/m -0,4 C -6,4 C 25,7 km/h (4 Bft)
20.01.2021 04:41 1,7 C 0,6 C 86 % 1008,2 hPa 0,0 l/m 19,3 km/h (3 Bft) S 180 0 min 0,0 UV-I 0 W/m -0,4 C -7,1 C 29,0 km/h (5 Bft)
20.01.2021 04:42 1,7 C 1,1 C 86 % 1008,1 hPa 0,0 l/m 16,1 km/h (3 Bft) S-SW 202 0 min 0,0 UV-I 0 W/m -0,4 C -5,5 C 20,9 km/h (4 Bft)
20.01.2021 04:43 1,7 C 0,6 C 86 % 1008,1 hPa 0,0 l/m 14,5 km/h (3 Bft) S 180 0 min 0,0 UV-I 0 W/m -0,4 C -4,6 C 19,3 km/h (3 Bft)
20.01.2021 04:44 1,7 C 0,6 C 86 % 1008,0 hPa 0,0 l/m 16,1 km/h (3 Bft) S-SW 202 0 min 0,0 UV-I 0 W/m -0,4 C -5,5 C 22,5 km/h (4 Bft)
20.01.2021 04:45 1,7 C 1,1 C 86 % 1007,9 hPa 0,0 l/m 20,9 km/h (4 Bft) S-SW 202 0 min 0,0 UV-I 0 W/m -0,4 C -7,8 C 30,6 km/h (5 Bft)
20.01.2021 04:46 1,7 C 1,1 C 86 % 1007,9 hPa 0,0 l/m 17,7 km/h (3 Bft) S 180 0 min 0,0 UV-I 0 W/m -0,4 C -6,4 C 22,5 km/h (4 Bft)
20.01.2021 04:47 1,7 C 1,1 C 86 % 1007,8 hPa 0,0 l/m 17,7 km/h (3 Bft) S-SW 202 0 min 0,0 UV-I 0 W/m -0,4 C -6,4 C 27,4 km/h (4 Bft)
20.01.2021 04:48 1,7 C 1,1 C 86 % 1007,9 hPa 0,0 l/m 17,7 km/h (3 Bft) S 180 0 min 0,0 UV-I 0 W/m -0,4 C -6,4 C 22,5 km/h (4 Bft)
20.01.2021 04:49 1,7 C 1,1 C 86 % 1007,8 hPa 0,0 l/m 16,1 km/h (3 Bft) S 180 0 min 0,0 UV-I 0 W/m -0,4 C -5,5 C 17,7 km/h (3 Bft)
20.01.2021 04:50 1,7 C 1,1 C 86 % 1007,9 hPa 0,0 l/m 14,5 km/h (3 Bft) S-SW 202 0 min 0,0 UV-I 0 W/m -0,4 C -4,6 C 22,5 km/h (4 Bft)
20.01.2021 04:51 1,7 C 1,1 C 86 % 1007,8 hPa 0,0 l/m 14,5 km/h (3 Bft) S-SW 202 0 min 0,0 UV-I 0 W/m -0,4 C -4,6 C 24,1 km/h (4 Bft)
20.01.2021 04:52 1,7 C 1,1 C 86 % 1007,8 hPa 0,0 l/m 17,7 km/h (3 Bft) S 180 0 min 0,0 UV-I 0 W/m -0,4 C -6,4 C 27,4 km/h (4 Bft)
20.01.2021 04:53 1,8 C 1,1 C 86 % 1007,8 hPa 0,0 l/m 19,3 km/h (3 Bft) S 180 0 min 0,0 UV-I 0 W/m -0,3 C -7,0 C 29,0 km/h (5 Bft)
20.01.2021 04:54 1,8 C 1,1 C 86 % 1007,8 hPa 0,0 l/m 16,1 km/h (3 Bft) S-SW 202 0 min 0,0 UV-I 0 W/m -0,3 C -5,4 C 25,7 km/h (4 Bft)
20.01.2021 04:55 1,8 C 1,1 C 86 % 1007,8 hPa 0,0 l/m 20,9 km/h (4 Bft) S 180 0 min 0,0 UV-I 0 W/m -0,3 C -7,7 C 27,4 km/h (4 Bft)
20.01.2021 04:56 1,8 C 1,1 C 86 % 1007,8 hPa 0,0 l/m 20,9 km/h (4 Bft) S 180 0 min 0,0 UV-I 0 W/m -0,3 C -7,7 C 30,6 km/h (5 Bft)
20.01.2021 04:57 1,8 C 1,1 C 86 % 1007,8 hPa 0,0 l/m 22,5 km/h (4 Bft) S-SW 202 0 min 0,0 UV-I 0 W/m -0,3 C -8,3 C 32,2 km/h (5 Bft)
20.01.2021 04:58 1,8 C 1,1 C 85 % 1007,7 hPa 0,0 l/m 19,3 km/h (3 Bft) S-SW 202 0 min 0,0 UV-I 0 W/m -0,4 C -7,0 C 27,4 km/h (4 Bft)
20.01.2021 04:59 1,8 C 1,1 C 85 % 1007,8 hPa 0,0 l/m 19,3 km/h (3 Bft) S 180 0 min 0,0 UV-I 0 W/m -0,4 C -7,0 C 22,5 km/h (4 Bft)
20.01.2021 05:00 1,8 C 1,1 C 85 % 1007,8 hPa 0,0 l/m 20,9 km/h (4 Bft) S 180 0 min 0,0 UV-I 0 W/m -0,4 C -7,7 C 33,8 km/h (5 Bft)
20.01.2021 05:01 1,9 C 1,1 C 85 % 1007,7 hPa 0,0 l/m 17,7 km/h (3 Bft) S 180 0 min 0,0 UV-I 0 W/m -0,3 C -6,1 C 22,5 km/h (4 Bft)
20.01.2021 05:02 1,9 C 1,1 C 85 % 1007,8 hPa 0,0 l/m 14,5 km/h (3 Bft) S 180 0 min 0,0 UV-I 0 W/m -0,3 C -4,4 C 20,9 km/h (4 Bft)
20.01.2021 05:03 1,9 C 1,1 C 85 % 1007,6 hPa 0,0 l/m 16,1 km/h (3 Bft) S-SW 202 0 min 0,0 UV-I 0 W/m -0,3 C -5,3 C 22,5 km/h (4 Bft)
20.01.2021 05:04 1,9 C 1,1 C 85 % 1007,7 hPa 0,0 l/m 17,7 km/h (3 Bft) S-SW 202 0 min 0,0 UV-I 0 W/m -0,3 C -6,1 C 22,5 km/h (4 Bft)
20.01.2021 05:05 1,9 C 1,1 C 85 % 1007,7 hPa 0,0 l/m 17,7 km/h (3 Bft) S 180 0 min 0,0 UV-I 0 W/m -0,3 C -6,1 C 27,4 km/h (4 Bft)
20.01.2021 05:06 1,8 C 1,1 C 85 % 1007,7 hPa 0,0 l/m 24,1 km/h (4 Bft) S 180 0 min 0,0 UV-I 0 W/m -0,4 C -9,0 C 38,6 km/h (5 Bft)
20.01.2021 05:07 1,9 C 1,1 C 85 % 1007,7 hPa 0,0 l/m 19,3 km/h (3 Bft) S 180 0 min 0,0 UV-I 0 W/m -0,3 C -6,9 C 27,4 km/h (4 Bft)
20.01.2021 05:08 1,9 C 1,1 C 85 % 1007,7 hPa 0,0 l/m 19,3 km/h (3 Bft) S 180 0 min 0,0 UV-I 0 W/m -0,3 C -6,9 C 29,0 km/h (5 Bft)
20.01.2021 05:09 1,9 C 1,1 C 85 % 1007,8 hPa 0,0 l/m 20,9 km/h (4 Bft) S-SW 202 0 min 0,0 UV-I 0 W/m -0,3 C -7,6 C 30,6 km/h (5 Bft)
20.01.2021 05:10 1,9 C 1,1 C 85 % 1007,7 hPa 0,0 l/m 19,3 km/h (3 Bft) S 180 0 min 0,0 UV-I 0 W/m -0,3 C -6,9 C 27,4 km/h (4 Bft)
20.01.2021 05:11 1,9 C 1,1 C 85 % 1007,8 hPa 0,0 l/m 20,9 km/h (4 Bft) S 180 0 min 0,0 UV-I 0 W/m -0,3 C -7,6 C 33,8 km/h (5 Bft)
20.01.2021 05:12 1,9 C 1,1 C 85 % 1007,8 hPa 0,0 l/m 16,1 km/h (3 Bft) S 180 0 min 0,0 UV-I 0 W/m -0,3 C -5,3 C 20,9 km/h (4 Bft)
20.01.2021 05:13 2,0 C 1,1 C 85 % 1007,8 hPa 0,0 l/m 17,7 km/h (3 Bft) S 180 0 min 0,0 UV-I 0 W/m -0,3 C -6,0 C 22,5 km/h (4 Bft)
20.01.2021 05:14 1,9 C 1,1 C 85 % 1007,7 hPa 0,0 l/m 19,3 km/h (3 Bft) S-SW 202 0 min 0,0 UV-I 0 W/m -0,3 C -6,9 C 27,4 km/h (4 Bft)
20.01.2021 05:15 1,9 C 1,1 C 85 % 1007,7 hPa 0,0 l/m 19,3 km/h (3 Bft) S 180 0 min 0,0 UV-I 0 W/m -0,3 C -6,9 C 25,7 km/h (4 Bft)
20.01.2021 05:16 1,9 C 1,1 C 85 % 1007,7 hPa 0,0 l/m 16,1 km/h (3 Bft) S-SW 202 0 min 0,0 UV-I 0 W/m -0,3 C -5,3 C 22,5 km/h (4 Bft)
20.01.2021 05:17 1,9 C 1,1 C 85 % 1007,7 hPa 0,0 l/m 20,9 km/h (4 Bft) S 180 0 min 0,0 UV-I 0 W/m -0,3 C -7,6 C 30,6 km/h (5 Bft)
20.01.2021 05:18 2,0 C 1,1 C 85 % 1007,8 hPa 0,0 l/m 19,3 km/h (3 Bft) S 180 0 min 0,0 UV-I 0 W/m -0,3 C -6,7 C 27,4 km/h (4 Bft)
20.01.2021 05:19 1,9 C 1,1 C 85 % 1007,8 hPa 0,0 l/m 17,7 km/h (3 Bft) S 180 0 min 0,0 UV-I 0 W/m -0,3 C -6,1 C 25,7 km/h (4 Bft)
20.01.2021 05:20 2,0 C 1,1 C 85 % 1007,8 hPa 0,0 l/m 14,5 km/h (3 Bft) S 180 0 min 0,0 UV-I 0 W/m -0,3 C -4,3 C 24,1 km/h (4 Bft)
20.01.2021 05:21 1,9 C 1,1 C 85 % 1007,8 hPa 0,0 l/m 20,9 km/h (4 Bft) S-SW 202 0 min 0,0 UV-I 0 W/m -0,3 C -7,6 C 30,6 km/h (5 Bft)
20.01.2021 05:22 1,9 C 1,1 C 85 % 1007,9 hPa 0,0 l/m 17,7 km/h (3 Bft) S 180 0 min 0,0 UV-I 0 W/m -0,3 C -6,1 C 24,1 km/h (4 Bft)
20.01.2021 05:23 1,9 C 1,1 C 85 % 1007,8 hPa 0,0 l/m 16,1 km/h (3 Bft) S 180 0 min 0,0 UV-I 0 W/m -0,3 C -5,3 C 19,3 km/h (3 Bft)
20.01.2021 05:24 1,9 C 1,1 C 85 % 1007,7 hPa 0,0 l/m 16,1 km/h (3 Bft) S 180 0 min 0,0 UV-I 0 W/m -0,3 C -5,3 C 24,1 km/h (4 Bft)
20.01.2021 05:25 1,9 C 1,1 C 85 % 1007,8 hPa 0,0 l/m 20,9 km/h (4 Bft) S 180 0 min 0,0 UV-I 0 W/m -0,3 C -7,6 C 25,7 km/h (4 Bft)
20.01.2021 05:26 1,9 C 1,1 C 85 % 1007,8 hPa 0,0 l/m 16,1 km/h (3 Bft) S 180 0 min 0,0 UV-I 0 W/m -0,3 C -5,3 C 20,9 km/h (4 Bft)
20.01.2021 05:27 1,9 C 1,1 C 85 % 1007,7 hPa 0,0 l/m 16,1 km/h (3 Bft) S 180 0 min 0,0 UV-I 0 W/m -0,3 C -5,3 C 22,5 km/h (4 Bft)
20.01.2021 05:28 1,9 C 1,1 C 85 % 1007,8 hPa 0,0 l/m 20,9 km/h (4 Bft) S 180 0 min 0,0 UV-I 0 W/m -0,3 C -7,6 C 27,4 km/h (4 Bft)
20.01.2021 05:29 1,9 C 1,1 C 85 % 1007,8 hPa 0,0 l/m 17,7 km/h (3 Bft) S 180 0 min 0,0 UV-I 0 W/m -0,3 C -6,1 C 22,5 km/h (4 Bft)
20.01.2021 05:30 2,0 C 1,1 C 85 % 1007,7 hPa 0,0 l/m 20,9 km/h (4 Bft) S 180 0 min 0,0 UV-I 0 W/m -0,3 C -7,4 C 30,6 km/h (5 Bft)
20.01.2021 05:31 2,0 C 1,1 C 85 % 1007,7 hPa 0,0 l/m 19,3 km/h (3 Bft) S 180 0 min 0,0 UV-I 0 W/m -0,3 C -6,7 C 25,7 km/h (4 Bft)
20.01.2021 05:32 2,0 C 1,1 C 85 % 1007,6 hPa 0,0 l/m 17,7 km/h (3 Bft) S 180 0 min 0,0 UV-I 0 W/m -0,3 C -6,0 C 22,5 km/h (4 Bft)
20.01.2021 05:33 2,0 C 1,1 C 85 % 1007,6 hPa 0,0 l/m 17,7 km/h (3 Bft) S 180 0 min 0,0 UV-I 0 W/m -0,3 C -6,0 C 30,6 km/h (5 Bft)
20.01.2021 05:34 2,1 C 1,7 C 85 % 1007,6 hPa 0,0 l/m 16,1 km/h (3 Bft) S 180 0 min 0,0 UV-I 0 W/m -0,2 C -5,0 C 27,4 km/h (4 Bft)
20.01.2021 05:35 2,1 C 1,1 C 85 % 1007,5 hPa 0,0 l/m 20,9 km/h (4 Bft) S-SW 202 0 min 0,0 UV-I 0 W/m -0,2 C -7,3 C 32,2 km/h (5 Bft)
20.01.2021 05:36 2,1 C 1,1 C 85 % 1007,5 hPa 0,0 l/m 17,7 km/h (3 Bft) S-SW 202 0 min 0,0 UV-I 0 W/m -0,2 C -5,9 C 24,1 km/h (4 Bft)
20.01.2021 05:37 2,1 C 1,1 C 85 % 1007,5 hPa 0,0 l/m 20,9 km/h (4 Bft) S 180 0 min 0,0 UV-I 0 W/m -0,2 C -7,3 C 27,4 km/h (4 Bft)
20.01.2021 05:38 2,1 C 1,1 C 85 % 1007,5 hPa 0,0 l/m 17,7 km/h (3 Bft) S 180 0 min 0,0 UV-I 0 W/m -0,2 C -5,9 C 25,7 km/h (4 Bft)
20.01.2021 05:39 2,1 C 1,1 C 85 % 1007,6 hPa 0,0 l/m 17,7 km/h (3 Bft) S-SW 202 0 min 0,0 UV-I 0 W/m -0,2 C -5,9 C 27,4 km/h (4 Bft)
20.01.2021 05:40 2,1 C 1,1 C 85 % 1007,5 hPa 0,0 l/m 19,3 km/h (3 Bft) S 180 0 min 0,0 UV-I 0 W/m -0,2 C -6,6 C 33,8 km/h (5 Bft)
20.01.2021 05:41 2,1 C 1,1 C 85 % 1007,5 hPa 0,0 l/m 20,9 km/h (4 Bft) S 180 0 min 0,0 UV-I 0 W/m -0,2 C -7,3 C 27,4 km/h (4 Bft)
20.01.2021 05:42 2,1 C 1,7 C 85 % 1007,5 hPa 0,0 l/m 25,7 km/h (4 Bft) S 180 0 min 0,0 UV-I 0 W/m -0,2 C -9,1 C 35,4 km/h (5 Bft)
20.01.2021 05:43 2,1 C 1,7 C 85 % 1007,5 hPa 0,0 l/m 17,7 km/h (3 Bft) S 180 0 min 0,0 UV-I 0 W/m -0,2 C -5,9 C 37,0 km/h (5 Bft)
20.01.2021 05:44 2,2 C 1,7 C 84 % 1007,5 hPa 0,0 l/m 14,5 km/h (3 Bft) S 180 0 min 0,0 UV-I 0 W/m -0,2 C -4,0 C 24,1 km/h (4 Bft)
20.01.2021 05:45 2,2 C 1,7 C 84 % 1007,5 hPa 0,0 l/m 20,9 km/h (4 Bft) S 180 0 min 0,0 UV-I 0 W/m -0,2 C -7,2 C 30,6 km/h (5 Bft)
20.01.2021 05:46 2,2 C 1,7 C 84 % 1007,6 hPa 0,0 l/m 17,7 km/h (3 Bft) S 180 0 min 0,0 UV-I 0 W/m -0,2 C -5,7 C 25,7 km/h (4 Bft)
20.01.2021 05:47 2,2 C 1,1 C 84 % 1007,5 hPa 0,0 l/m 20,9 km/h (4 Bft) S 180 0 min 0,0 UV-I 0 W/m -0,2 C -7,2 C 32,2 km/h (5 Bft)
20.01.2021 05:48 2,2 C 1,1 C 84 % 1007,5 hPa 0,0 l/m 17,7 km/h (3 Bft) S 180 0 min 0,0 UV-I 0 W/m -0,2 C -5,7 C 25,7 km/h (4 Bft)
20.01.2021 05:49 2,1 C 1,1 C 84 % 1007,6 hPa 0,0 l/m 17,7 km/h (3 Bft) S 180 0 min 0,0 UV-I 0 W/m -0,3 C -5,9 C 27,4 km/h (4 Bft)
20.01.2021 05:50 2,1 C 1,1 C 84 % 1007,6 hPa 0,0 l/m 17,7 km/h (3 Bft) S 180 0 min 0,0 UV-I 0 W/m -0,3 C -5,9 C 25,7 km/h (4 Bft)
20.01.2021 05:51 2,1 C 1,1 C 84 % 1007,6 hPa 0,0 l/m 22,5 km/h (4 Bft) S-SW 202 0 min 0,0 UV-I 0 W/m -0,3 C -8,0 C 33,8 km/h (5 Bft)
20.01.2021 05:52 2,1 C 1,1 C 84 % 1007,6 hPa 0,0 l/m 24,1 km/h (4 Bft) S-SW 202 0 min 0,0 UV-I 0 W/m -0,3 C -8,6 C 30,6 km/h (5 Bft)
20.01.2021 05:53 2,1 C 1,1 C 84 % 1007,6 hPa 0,0 l/m 22,5 km/h (4 Bft) S 180 0 min 0,0 UV-I 0 W/m -0,3 C -8,0 C 30,6 km/h (5 Bft)
20.01.2021 05:54 2,1 C 1,1 C 84 % 1007,7 hPa 0,0 l/m 20,9 km/h (4 Bft) S-SW 202 0 min 0,0 UV-I 0 W/m -0,3 C -7,3 C 25,7 km/h (4 Bft)
20.01.2021 05:55 2,1 C 1,1 C 84 % 1007,6 hPa 0,0 l/m 17,7 km/h (3 Bft) S-SW 202 0 min 0,0 UV-I 0 W/m -0,3 C -5,9 C 25,7 km/h (4 Bft)
20.01.2021 05:56 2,1 C 1,1 C 84 % 1007,6 hPa 0,0 l/m 16,1 km/h (3 Bft) S-SW 202 0 min 0,0 UV-I 0 W/m -0,3 C -5,0 C 25,7 km/h (4 Bft)
20.01.2021 05:57 2,1 C 1,1 C 84 % 1007,5 hPa 0,0 l/m 16,1 km/h (3 Bft) S 180 0 min 0,0 UV-I 0 W/m -0,3 C -5,0 C 20,9 km/h (4 Bft)
20.01.2021 05:58 2,1 C 1,1 C 84 % 1007,5 hPa 0,0 l/m 16,1 km/h (3 Bft) S 180 0 min 0,0 UV-I 0 W/m -0,3 C -5,0 C 27,4 km/h (4 Bft)
20.01.2021 05:59 2,1 C 1,1 C 84 % 1007,5 hPa 0,0 l/m 19,3 km/h (3 Bft) S-SW 202 0 min 0,0 UV-I 0 W/m -0,3 C -6,6 C 29,0 km/h (5 Bft)
20.01.2021 06:00 2,1 C 1,1 C 84 % 1007,4 hPa 0,0 l/m 17,7 km/h (3 Bft) S 180 0 min 0,0 UV-I 0 W/m -0,3 C -5,9 C 25,7 km/h (4 Bft)
20.01.2021 06:01 2,0 C 1,1 C 84 % 1007,5 hPa 0,0 l/m 22,5 km/h (4 Bft) S-SW 202 0 min 0,0 UV-I 0 W/m -0,4 C -8,1 C 29,0 km/h (5 Bft)
20.01.2021 06:02 2,0 C 1,1 C 84 % 1007,5 hPa 0,0 l/m 27,4 km/h (4 Bft) S 180 0 min 0,0 UV-I 0 W/m -0,4 C -9,8 C 35,4 km/h (5 Bft)
20.01.2021 06:03 2,0 C 1,1 C 84 % 1007,4 hPa 0,0 l/m 17,7 km/h (3 Bft) S-SW 202 0 min 0,0 UV-I 0 W/m -0,4 C -6,0 C 30,6 km/h (5 Bft)
20.01.2021 06:04 1,9 C 1,1 C 84 % 1007,4 hPa 0,0 l/m 19,3 km/h (3 Bft) S-SW 202 0 min 0,0 UV-I 0 W/m -0,5 C -6,9 C 32,2 km/h (5 Bft)
20.01.2021 06:05 1,9 C 1,1 C 84 % 1007,4 hPa 0,0 l/m 19,3 km/h (3 Bft) S 180 0 min 0,0 UV-I 0 W/m -0,5 C -6,9 C 25,7 km/h (4 Bft)
20.01.2021 06:06 1,9 C 1,1 C 83 % 1007,5 hPa 0,0 l/m 17,7 km/h (3 Bft) S-SW 202 0 min 0,0 UV-I 0 W/m -0,7 C -6,1 C 25,7 km/h (4 Bft)
20.01.2021 06:07 1,9 C 1,1 C 83 % 1007,4 hPa 0,0 l/m 19,3 km/h (3 Bft) S-SW 202 0 min 0,0 UV-I 0 W/m -0,7 C -6,9 C 25,7 km/h (4 Bft)
20.01.2021 06:08 1,8 C 1,1 C 83 % 1007,3 hPa 0,0 l/m 19,3 km/h (3 Bft) S-SW 202 0 min 0,0 UV-I 0 W/m -0,8 C -7,0 C 30,6 km/h (5 Bft)
20.01.2021 06:09 1,8 C 1,1 C 83 % 1007,4 hPa 0,0 l/m 19,3 km/h (3 Bft) S 180 0 min 0,0 UV-I 0 W/m -0,8 C -7,0 C 24,1 km/h (4 Bft)
20.01.2021 06:10 1,8 C 1,1 C 83 % 1007,3 hPa 0,0 l/m 16,1 km/h (3 Bft) S-SW 202 0 min 0,0 UV-I 0 W/m -0,8 C -5,4 C 24,1 km/h (4 Bft)
20.01.2021 06:11 1,8 C 1,1 C 83 % 1007,3 hPa 0,0 l/m 17,7 km/h (3 Bft) S 180 0 min 0,0 UV-I 0 W/m -0,8 C -6,2 C 27,4 km/h (4 Bft)
20.01.2021 06:12 1,8 C 1,1 C 84 % 1007,3 hPa 0,0 l/m 20,9 km/h (4 Bft) S-SW 202 0 min 0,0 UV-I 0 W/m -0,6 C -7,7 C 30,6 km/h (5 Bft)
20.01.2021 06:13 1,8 C 1,1 C 84 % 1007,4 hPa 0,0 l/m 20,9 km/h (4 Bft) S-SW 202 0 min 0,0 UV-I 0 W/m -0,6 C -7,7 C 27,4 km/h (4 Bft)
20.01.2021 06:14 1,7 C 1,1 C 84 % 1007,4 hPa 0,0 l/m 16,1 km/h (3 Bft) S-SW 202 0 min 0,0 UV-I 0 W/m -0,7 C -5,5 C 22,5 km/h (4 Bft)
20.01.2021 06:15 1,7 C 0,6 C 84 % 1007,4 hPa 0,0 l/m 16,1 km/h (3 Bft) S-SW 202 0 min 0,0 UV-I 0 W/m -0,7 C -5,5 C 22,5 km/h (4 Bft)
20.01.2021 06:16 1,7 C 0,6 C 84 % 1007,4 hPa 0,0 l/m 17,7 km/h (3 Bft) S-SW 202 0 min 0,0 UV-I 0 W/m -0,7 C -6,4 C 20,9 km/h (4 Bft)
20.01.2021 06:17 1,7 C 0,6 C 84 % 1007,4 hPa 0,0 l/m 20,9 km/h (4 Bft) S 180 0 min 0,0 UV-I 0 W/m -0,7 C -7,8 C 27,4 km/h (4 Bft)
20.01.2021 06:18 1,7 C 0,6 C 84 % 1007,4 hPa 0,0 l/m 16,1 km/h (3 Bft) S-SW 202 0 min 0,0 UV-I 0 W/m -0,7 C -5,5 C 29,0 km/h (5 Bft)
20.01.2021 06:19 1,7 C 0,6 C 84 % 1007,3 hPa 0,0 l/m 17,7 km/h (3 Bft) S 180 0 min 0,0 UV-I 0 W/m -0,7 C -6,4 C 25,7 km/h (4 Bft)
20.01.2021 06:20 1,7 C 1,1 C 84 % 1007,5 hPa 0,0 l/m 17,7 km/h (3 Bft) S-SW 202 0 min 0,0 UV-I 0 W/m -0,7 C -6,4 C 33,8 km/h (5 Bft)
20.01.2021 06:21 1,7 C 1,1 C 84 % 1007,4 hPa 0,0 l/m 24,1 km/h (4 Bft) S 180 0 min 0,0 UV-I 0 W/m -0,7 C -9,1 C 35,4 km/h (5 Bft)
20.01.2021 06:22 1,7 C 1,1 C 84 % 1007,4 hPa 0,0 l/m 19,3 km/h (3 Bft) S-SW 202 0 min 0,0 UV-I 0 W/m -0,7 C -7,1 C 24,1 km/h (4 Bft)
20.01.2021 06:23 1,7 C 1,1 C 84 % 1007,4 hPa 0,0 l/m 19,3 km/h (3 Bft) S 180 0 min 0,0 UV-I 0 W/m -0,7 C -7,1 C 29,0 km/h (5 Bft)
20.01.2021 06:24 1,7 C 1,1 C 84 % 1007,3 hPa 0,0 l/m 19,3 km/h (3 Bft) S-SW 202 0 min 0,0 UV-I 0 W/m -0,7 C -7,1 C 29,0 km/h (5 Bft)
20.01.2021 06:25 1,7 C 1,1 C 84 % 1007,5 hPa 0,0 l/m 19,3 km/h (3 Bft) S-SW 202 0 min 0,0 UV-I 0 W/m -0,7 C -7,1 C 32,2 km/h (5 Bft)
20.01.2021 06:26 1,7 C 1,1 C 84 % 1007,3 hPa 0,0 l/m 19,3 km/h (3 Bft) S 180 0 min 0,0 UV-I 0 W/m -0,7 C -7,1 C 30,6 km/h (5 Bft)
20.01.2021 06:27 1,7 C 0,6 C 84 % 1007,3 hPa 0,0 l/m 19,3 km/h (3 Bft) S-SW 202 0 min 0,0 UV-I 0 W/m -0,7 C -7,1 C 24,1 km/h (4 Bft)
20.01.2021 06:28 1,7 C 1,1 C 84 % 1007,2 hPa 0,0 l/m 16,1 km/h (3 Bft) S 180 0 min 0,0 UV-I 0 W/m -0,7 C -5,5 C 22,5 km/h (4 Bft)
20.01.2021 06:29 1,7 C 1,1 C 84 % 1007,3 hPa 0,0 l/m 19,3 km/h (3 Bft) S 180 0 min 0,0 UV-I 0 W/m -0,7 C -7,1 C 27,4 km/h (4 Bft)
20.01.2021 06:30 1,6 C 0,6 C 84 % 1007,3 hPa 0,0 l/m 17,7 km/h (3 Bft) S 180 0 min 0,0 UV-I 0 W/m -0,8 C -6,5 C 24,1 km/h (4 Bft)
20.01.2021 06:31 1,6 C 0,6 C 84 % 1007,3 hPa 0,0 l/m 17,7 km/h (3 Bft) S 180 0 min 0,0 UV-I 0 W/m -0,8 C -6,5 C 29,0 km/h (5 Bft)
20.01.2021 06:32 1,6 C 0,6 C 84 % 1007,3 hPa 0,0 l/m 17,7 km/h (3 Bft) S 180 0 min 0,0 UV-I 0 W/m -0,8 C -6,5 C 25,7 km/h (4 Bft)
20.01.2021 06:33 1,6 C 0,6 C 84 % 1007,1 hPa 0,0 l/m 17,7 km/h (3 Bft) S 180 0 min 0,0 UV-I 0 W/m -0,8 C -6,5 C 22,5 km/h (4 Bft)
20.01.2021 06:34 1,6 C 0,6 C 84 % 1007,1 hPa 0,0 l/m 14,5 km/h (3 Bft) S 180 0 min 0,0 UV-I 0 W/m -0,8 C -4,8 C 20,9 km/h (4 Bft)
20.01.2021 06:35 1,6 C 0,6 C 84 % 1007,1 hPa 0,0 l/m 22,5 km/h (4 Bft) S 180 0 min 0,0 UV-I 0 W/m -0,8 C -8,6 C 33,8 km/h (5 Bft)
20.01.2021 06:36 1,6 C 0,6 C 84 % 1007,0 hPa 0,0 l/m 19,3 km/h (3 Bft) S 180 0 min 0,0 UV-I 0 W/m -0,8 C -7,2 C 27,4 km/h (4 Bft)
20.01.2021 06:37 1,5 C 0,6 C 84 % 1007,1 hPa 0,0 l/m 17,7 km/h (3 Bft) S 180 0 min 0,0 UV-I 0 W/m -0,9 C -6,6 C 27,4 km/h (4 Bft)
20.01.2021 06:38 1,5 C 0,6 C 84 % 1007,0 hPa 0,0 l/m 17,7 km/h (3 Bft) S-SW 202 0 min 0,0 UV-I 0 W/m -0,9 C -6,6 C 27,4 km/h (4 Bft)
20.01.2021 06:39 1,6 C 0,6 C 84 % 1007,0 hPa 0,0 l/m 20,9 km/h (4 Bft) S 180 0 min 0,0 UV-I 0 W/m -0,8 C -8,0 C 30,6 km/h (5 Bft)
20.01.2021 06:40 1,5 C 0,6 C 84 % 1007,1 hPa 0,0 l/m 19,3 km/h (3 Bft) S 180 0 min 0,0 UV-I 0 W/m -0,9 C -7,4 C 29,0 km/h (5 Bft)
20.01.2021 06:41 1,5 C 0,6 C 84 % 1007,1 hPa 0,0 l/m 19,3 km/h (3 Bft) S-SW 202 0 min 0,0 UV-I 0 W/m -0,9 C -7,4 C 25,7 km/h (4 Bft)
20.01.2021 06:42 1,5 C 0,6 C 84 % 1007,1 hPa 0,0 l/m 19,3 km/h (3 Bft) S-SW 202 0 min 0,0 UV-I 0 W/m -0,9 C -7,4 C 25,7 km/h (4 Bft)
20.01.2021 06:43 1,6 C 0,6 C 84 % 1007,1 hPa 0,0 l/m 22,5 km/h (4 Bft) S 180 0 min 0,0 UV-I 0 W/m -0,8 C -8,6 C 30,6 km/h (5 Bft)
20.01.2021 06:44 1,6 C 0,6 C 84 % 1007,2 hPa 0,0 l/m 19,3 km/h (3 Bft) S 180 0 min 0,0 UV-I 0 W/m -0,8 C -7,2 C 29,0 km/h (5 Bft)
20.01.2021 06:45 1,6 C 0,6 C 84 % 1007,1 hPa 0,0 l/m 16,1 km/h (3 Bft) S-SW 202 0 min 0,0 UV-I 0 W/m -0,8 C -5,7 C 20,9 km/h (4 Bft)
20.01.2021 06:46 1,6 C 0,6 C 84 % 1007,1 hPa 0,0 l/m 17,7 km/h (3 Bft) S-SW 202 0 min 0,0 UV-I 0 W/m -0,8 C -6,5 C 22,5 km/h (4 Bft)
20.01.2021 06:47 1,6 C 0,6 C 84 % 1007,2 hPa 0,0 l/m 17,7 km/h (3 Bft) S-SW 202 0 min 0,0 UV-I 0 W/m -0,8 C -6,5 C 25,7 km/h (4 Bft)
20.01.2021 06:48 1,5 C 0,6 C 84 % 1007,1 hPa 0,0 l/m 17,7 km/h (3 Bft) S-SW 202 0 min 0,0 UV-I 0 W/m -0,9 C -6,6 C 24,1 km/h (4 Bft)
20.01.2021 06:49 1,5 C 0,6 C 84 % 1007,1 hPa 0,0 l/m 20,9 km/h (4 Bft) S 180 0 min 0,0 UV-I 0 W/m -0,9 C -8,1 C 29,0 km/h (5 Bft)
20.01.2021 06:50 1,5 C 0,6 C 84 % 1007,1 hPa 0,0 l/m 16,1 km/h (3 Bft) S 180 0 min 0,0 UV-I 0 W/m -0,9 C -5,8 C 27,4 km/h (4 Bft)
20.01.2021 06:51 1,5 C 0,6 C 84 % 1007,2 hPa 0,0 l/m 17,7 km/h (3 Bft) S-SW 202 0 min 0,0 UV-I 0 W/m -0,9 C -6,6 C 27,4 km/h (4 Bft)
20.01.2021 06:52 1,4 C 0,6 C 84 % 1007,2 hPa 0,0 l/m 16,1 km/h (3 Bft) S-SW 202 0 min 0,0 UV-I 0 W/m -1,0 C -5,9 C 22,5 km/h (4 Bft)
20.01.2021 06:53 1,5 C 0,6 C 84 % 1007,1 hPa 0,0 l/m 17,7 km/h (3 Bft) S 180 0 min 0,0 UV-I 0 W/m -0,9 C -6,6 C 22,5 km/h (4 Bft)
20.01.2021 06:54 1,4 C 0,6 C 84 % 1007,2 hPa 0,0 l/m 22,5 km/h (4 Bft) S-SW 202 0 min 0,0 UV-I 0 W/m -1,0 C -8,9 C 30,6 km/h (5 Bft)
20.01.2021 06:55 1,5 C 0,6 C 84 % 1007,2 hPa 0,0 l/m 22,5 km/h (4 Bft) S-SW 202 0 min 0,0 UV-I 0 W/m -0,9 C -8,7 C 33,8 km/h (5 Bft)
20.01.2021 06:56 1,4 C 0,6 C 84 % 1007,3 hPa 0,0 l/m 20,9 km/h (4 Bft) S 180 0 min 0,0 UV-I 0 W/m -1,0 C -8,2 C 24,1 km/h (4 Bft)
20.01.2021 06:57 1,4 C 0,6 C 84 % 1007,1 hPa 0,0 l/m 17,7 km/h (3 Bft) S 180 0 min 0,0 UV-I 0 W/m -1,0 C -6,7 C 24,1 km/h (4 Bft)
20.01.2021 06:58 1,5 C 0,6 C 84 % 1007,2 hPa 0,0 l/m 20,9 km/h (4 Bft) S-SW 202 0 min 0,0 UV-I 0 W/m -0,9 C -8,1 C 29,0 km/h (5 Bft)
20.01.2021 06:59 1,5 C 0,6 C 84 % 1007,2 hPa 0,0 l/m 22,5 km/h (4 Bft) S-SW 202 0 min 0,0 UV-I 0 W/m -0,9 C -8,7 C 32,2 km/h (5 Bft)
20.01.2021 07:00 1,5 C 0,6 C 84 % 1007,2 hPa 0,0 l/m 22,5 km/h (4 Bft) S-SW 202 0 min 0,0 UV-I 0 W/m -0,9 C -8,7 C 27,4 km/h (4 Bft)
20.01.2021 07:01 1,5 C 0,6 C 84 % 1007,2 hPa 0,0 l/m 20,9 km/h (4 Bft) S-SW 202 0 min 0,0 UV-I 0 W/m -0,9 C -8,1 C 30,6 km/h (5 Bft)
20.01.2021 07:02 1,6 C 0,6 C 84 % 1007,2 hPa 0,0 l/m 20,9 km/h (4 Bft) S-SW 202 0 min 0,0 UV-I 0 W/m -0,8 C -8,0 C 29,0 km/h (5 Bft)
20.01.2021 07:03 1,6 C 0,6 C 84 % 1007,1 hPa 0,0 l/m 19,3 km/h (3 Bft) S-SW 202 0 min 0,0 UV-I 0 W/m -0,8 C -7,2 C 24,1 km/h (4 Bft)
20.01.2021 07:04 1,6 C 0,6 C 84 % 1007,0 hPa 0,0 l/m 17,7 km/h (3 Bft) S-SW 202 0 min 0,0 UV-I 0 W/m -0,8 C -6,5 C 24,1 km/h (4 Bft)
20.01.2021 07:05 1,6 C 0,6 C 84 % 1007,1 hPa 0,0 l/m 19,3 km/h (3 Bft) S-SW 202 0 min 0,0 UV-I 0 W/m -0,8 C -7,2 C 25,7 km/h (4 Bft)
20.01.2021 07:06 1,6 C 0,6 C 84 % 1007,1 hPa 0,0 l/m 19,3 km/h (3 Bft) S-SW 202 0 min 0,0 UV-I 0 W/m -0,8 C -7,2 C 24,1 km/h (4 Bft)
20.01.2021 07:07 1,5 C 0,6 C 84 % 1007,0 hPa 0,0 l/m 17,7 km/h (3 Bft) S-SW 202 0 min 0,0 UV-I 0 W/m -0,9 C -6,6 C 24,1 km/h (4 Bft)
20.01.2021 07:08 1,5 C 0,6 C 84 % 1007,1 hPa 0,0 l/m 16,1 km/h (3 Bft) S-SW 202 0 min 0,0 UV-I 0 W/m -0,9 C -5,8 C 24,1 km/h (4 Bft)
20.01.2021 07:09 1,5 C 0,6 C 84 % 1007,0 hPa 0,0 l/m 17,7 km/h (3 Bft) S-SW 202 0 min 0,0 UV-I 0 W/m -0,9 C -6,6 C 24,1 km/h (4 Bft)
20.01.2021 07:10 1,5 C 0,6 C 84 % 1007,0 hPa 0,0 l/m 17,7 km/h (3 Bft) S-SW 202 0 min 0,0 UV-I 0 W/m -0,9 C -6,6 C 24,1 km/h (4 Bft)
20.01.2021 07:11 1,5 C 0,6 C 84 % 1007,0 hPa 0,0 l/m 20,9 km/h (4 Bft) S-SW 202 0 min 0,0 UV-I 0 W/m -0,9 C -8,1 C 27,4 km/h (4 Bft)
20.01.2021 07:12 1,5 C 0,6 C 84 % 1007,0 hPa 0,0 l/m 17,7 km/h (3 Bft) S-SW 202 0 min 0,0 UV-I 0 W/m -0,9 C -6,6 C 25,7 km/h (4 Bft)
20.01.2021 07:13 1,4 C 0,6 C 84 % 1006,9 hPa 0,0 l/m 16,1 km/h (3 Bft) S 180 0 min 0,0 UV-I 0 W/m -1,0 C -5,9 C 24,1 km/h (4 Bft)
20.01.2021 07:14 1,5 C 0,6 C 84 % 1006,9 hPa 0,0 l/m 17,7 km/h (3 Bft) S 180 0 min 0,0 UV-I 0 W/m -0,9 C -6,6 C 24,1 km/h (4 Bft)
20.01.2021 07:15 1,4 C 0,6 C 84 % 1006,9 hPa 0,0 l/m 17,7 km/h (3 Bft) S-SW 202 0 min 0,0 UV-I 0 W/m -1,0 C -6,7 C 24,1 km/h (4 Bft)
20.01.2021 07:16 1,5 C 0,6 C 84 % 1006,9 hPa 0,0 l/m 19,3 km/h (3 Bft) S-SW 202 0 min 0,0 UV-I 0 W/m -0,9 C -7,4 C 25,7 km/h (4 Bft)
20.01.2021 07:17 1,4 C 1,1 C 84 % 1007,0 hPa 0,0 l/m 19,3 km/h (3 Bft) S-SW 202 0 min 0,0 UV-I 0 W/m -1,0 C -7,5 C 29,0 km/h (5 Bft)
20.01.2021 07:18 1,5 C 1,1 C 85 % 1007,0 hPa 0,0 l/m 16,1 km/h (3 Bft) S-SW 202 0 min 0,0 UV-I 0 W/m -0,7 C -5,8 C 20,9 km/h (4 Bft)
20.01.2021 07:19 1,5 C 1,1 C 85 % 1006,9 hPa 0,0 l/m 17,7 km/h (3 Bft) S 180 0 min 0,0 UV-I 0 W/m -0,7 C -6,6 C 25,7 km/h (4 Bft)
20.01.2021 07:20 1,6 C 0,6 C 84 % 1006,9 hPa 0,0 l/m 19,3 km/h (3 Bft) S 180 0 min 0,0 UV-I 0 W/m -0,8 C -7,2 C 30,6 km/h (5 Bft)
20.01.2021 07:21 1,6 C 1,1 C 84 % 1006,7 hPa 0,0 l/m 17,7 km/h (3 Bft) S-SW 202 0 min 0,0 UV-I 0 W/m -0,8 C -6,5 C 30,6 km/h (5 Bft)
20.01.2021 07:22 1,6 C 1,1 C 84 % 1006,8 hPa 0,0 l/m 19,3 km/h (3 Bft) S-SW 202 0 min 0,0 UV-I 0 W/m -0,8 C -7,2 C 29,0 km/h (5 Bft)
20.01.2021 07:23 1,7 C 1,1 C 84 % 1006,8 hPa 0,0 l/m 19,3 km/h (3 Bft) S-SW 202 0 min 0,0 UV-I 0 W/m -0,7 C -7,1 C 30,6 km/h (5 Bft)
20.01.2021 07:24 1,7 C 1,1 C 84 % 1006,7 hPa 0,0 l/m 17,7 km/h (3 Bft) S-SW 202 0 min 0,0 UV-I 0 W/m -0,7 C -6,4 C 24,1 km/h (4 Bft)
20.01.2021 07:25 1,7 C 1,1 C 84 % 1006,6 hPa 0,0 l/m 16,1 km/h (3 Bft) S 180 0 min 0,0 UV-I 0 W/m -0,7 C -5,5 C 22,5 km/h (4 Bft)
20.01.2021 07:26 1,7 C 1,1 C 84 % 1006,7 hPa 0,0 l/m 17,7 km/h (3 Bft) S-SW 202 0 min 0,0 UV-I 0 W/m -0,7 C -6,4 C 27,4 km/h (4 Bft)
20.01.2021 07:27 1,7 C 1,1 C 84 % 1006,6 hPa 0,0 l/m 19,3 km/h (3 Bft) S 180 0 min 0,0 UV-I 0 W/m -0,7 C -7,1 C 27,4 km/h (4 Bft)
20.01.2021 07:28 1,7 C 1,1 C 84 % 1006,6 hPa 0,0 l/m 14,5 km/h (3 Bft) S-SW 202 0 min 0,0 UV-I 0 W/m -0,7 C -4,6 C 24,1 km/h (4 Bft)
20.01.2021 07:29 1,7 C 1,1 C 84 % 1006,6 hPa 0,0 l/m 16,1 km/h (3 Bft) S 180 0 min 0,0 UV-I 0 W/m -0,7 C -5,5 C 22,5 km/h (4 Bft)
20.01.2021 07:30 1,7 C 1,1 C 84 % 1006,6 hPa 0,0 l/m 14,5 km/h (3 Bft) S 180 0 min 0,0 UV-I 0 W/m -0,7 C -4,6 C 24,1 km/h (4 Bft)
20.01.2021 07:31 1,8 C 1,1 C 84 % 1006,6 hPa 0,0 l/m 14,5 km/h (3 Bft) S 180 0 min 0,0 UV-I 0 W/m -0,6 C -4,5 C 20,9 km/h (4 Bft)
20.01.2021 07:32 1,8 C 1,1 C 84 % 1006,6 hPa 0,0 l/m 16,1 km/h (3 Bft) S-SW 202 0 min 0,0 UV-I 0 W/m -0,6 C -5,4 C 22,5 km/h (4 Bft)
20.01.2021 07:33 1,8 C 1,1 C 84 % 1006,6 hPa 0,0 l/m 20,9 km/h (4 Bft) S 180 0 min 0,0 UV-I 0 W/m -0,6 C -7,7 C 29,0 km/h (5 Bft)
20.01.2021 07:34 1,7 C 1,1 C 84 % 1006,6 hPa 0,0 l/m 17,7 km/h (3 Bft) S 180 0 min 0,0 UV-I 0 W/m -0,7 C -6,4 C 24,1 km/h (4 Bft)
20.01.2021 07:35 1,7 C 1,1 C 84 % 1006,6 hPa 0,0 l/m 17,7 km/h (3 Bft) S 180 0 min 0,0 UV-I 0 W/m -0,7 C -6,4 C 27,4 km/h (4 Bft)
20.01.2021 07:36 1,7 C 1,1 C 84 % 1006,7 hPa 0,0 l/m 20,9 km/h (4 Bft) S 180 0 min 0,0 UV-I 0 W/m -0,7 C -7,8 C 30,6 km/h (5 Bft)
20.01.2021 07:37 1,7 C 1,1 C 84 % 1006,6 hPa 0,0 l/m 19,3 km/h (3 Bft) S 180 0 min 0,0 UV-I 0 W/m -0,7 C -7,1 C 30,6 km/h (5 Bft)
20.01.2021 07:38 1,7 C 1,1 C 84 % 1006,5 hPa 0,0 l/m 22,5 km/h (4 Bft) S 180 0 min 0,0 UV-I 0 W/m -0,7 C -8,5 C 32,2 km/h (5 Bft)
20.01.2021 07:39 1,7 C 1,1 C 84 % 1006,6 hPa 0,0 l/m 20,9 km/h (4 Bft) S 180 0 min 0,0 UV-I 0 W/m -0,7 C -7,8 C 32,2 km/h (5 Bft)
20.01.2021 07:40 1,7 C 1,1 C 84 % 1006,7 hPa 0,0 l/m 20,9 km/h (4 Bft) S 180 0 min 0,0 UV-I 0 W/m -0,7 C -7,8 C 30,6 km/h (5 Bft)
20.01.2021 07:41 1,7 C 1,1 C 84 % 1006,8 hPa 0,0 l/m 22,5 km/h (4 Bft) S 180 0 min 0,0 UV-I 0 W/m -0,7 C -8,5 C 35,4 km/h (5 Bft)
20.01.2021 07:42 1,8 C 1,1 C 84 % 1006,6 hPa 0,0 l/m 30,6 km/h (5 Bft) S 180 0 min 0,0 UV-I 0 W/m -0,6 C -11,0 C 43,5 km/h (6 Bft)
20.01.2021 07:43 1,8 C 1,1 C 84 % 1006,6 hPa 0,0 l/m 22,5 km/h (4 Bft) S 180 0 min 0,0 UV-I 0 W/m -0,6 C -8,3 C 32,2 km/h (5 Bft)
20.01.2021 07:44 1,8 C 1,1 C 84 % 1006,7 hPa 0,0 l/m 22,5 km/h (4 Bft) S 180 0 min 0,0 UV-I 0 W/m -0,6 C -8,3 C 40,2 km/h (6 Bft)
20.01.2021 07:45 1,8 C 1,1 C 84 % 1006,6 hPa 0,0 l/m 24,1 km/h (4 Bft) S 180 0 min 0,0 UV-I 0 W/m -0,6 C -9,0 C 35,4 km/h (5 Bft)
20.01.2021 07:46 1,8 C 1,1 C 83 % 1006,6 hPa 0,0 l/m 25,7 km/h (4 Bft) S 180 0 min 0,0 UV-I 0 W/m -0,8 C -9,5 C 35,4 km/h (5 Bft)
20.01.2021 07:47 1,8 C 1,1 C 83 % 1006,6 hPa 0,0 l/m 24,1 km/h (4 Bft) S-SW 202 0 min 0,0 UV-I 0 W/m -0,8 C -9,0 C 38,6 km/h (5 Bft)
20.01.2021 07:48 1,8 C 1,1 C 83 % 1006,7 hPa 0,0 l/m 19,3 km/h (3 Bft) S 180 0 min 0,0 UV-I 0 W/m -0,8 C -7,0 C 29,0 km/h (5 Bft)
20.01.2021 07:49 1,8 C 1,1 C 83 % 1006,6 hPa 0,0 l/m 17,7 km/h (3 Bft) S-SW 202 0 min 0,0 UV-I 0 W/m -0,8 C -6,2 C 24,1 km/h (4 Bft)
20.01.2021 07:52 1,8 C 1,1 C 83 % 1006,6 hPa 0,0 l/m 20,9 km/h (4 Bft) S 191 0 min 0,0 UV-I 0 W/m -0,8 C -7,7 C 25,7 km/h (4 Bft)
20.01.2021 07:54 1,8 C 1,1 C 83 % 1006,7 hPa 0,0 l/m 20,7 km/h (4 Bft) S-SW 198 0 min 0,0 UV-I 0 W/m -0,8 C -7,6 C 35,4 km/h (5 Bft)
20.01.2021 07:56 1,8 C 1,1 C 83 % 1006,6 hPa 0,0 l/m 20,4 km/h (4 Bft) S-SW 207 0 min 0,0 UV-I 0 W/m -0,8 C -7,5 C 30,6 km/h (5 Bft)
20.01.2021 07:58 1,8 C 1,1 C 83 % 1006,6 hPa 0,0 l/m 20,3 km/h (4 Bft) S 181 0 min 0,0 UV-I 0 W/m -0,8 C -7,4 C 27,4 km/h (4 Bft)
20.01.2021 08:00 1,9 C 1,1 C 83 % 1006,5 hPa 0,0 l/m 19,9 km/h (4 Bft) S-SW 205 0 min 0,0 UV-I 0 W/m -0,7 C -7,1 C 32,2 km/h (5 Bft)
20.01.2021 08:02 1,9 C 1,1 C 83 % 1006,8 hPa 0,0 l/m 19,5 km/h (3 Bft) S 187 0 min 0,0 UV-I 0 W/m -0,7 C -7,0 C 33,8 km/h (5 Bft)
20.01.2021 08:04 1,9 C 1,1 C 83 % 1006,8 hPa 0,0 l/m 21,4 km/h (4 Bft) S-SO 155 0 min 0,0 UV-I 0 W/m -0,7 C -7,8 C 33,8 km/h (5 Bft)
20.01.2021 08:06 2,0 C 1,1 C 83 % 1006,8 hPa 0,0 l/m 21,7 km/h (4 Bft) S-SW 194 0 min 0,0 UV-I 0 W/m -0,6 C -7,8 C 27,4 km/h (4 Bft)
20.01.2021 08:08 2,1 C 1,1 C 83 % 1006,8 hPa 0,0 l/m 22,0 km/h (4 Bft) S 184 0 min 0,0 UV-I 0 W/m -0,5 C -7,8 C 29,0 km/h (5 Bft)
20.01.2021 08:10 2,1 C 1,7 C 83 % 1006,8 hPa 0,0 l/m 24,0 km/h (4 Bft) S 175 0 min 0,0 UV-I 0 W/m -0,5 C -8,5 C 33,8 km/h (5 Bft)
20.01.2021 08:12 2,2 C 1,7 C 83 % 1006,6 hPa 0,0 l/m 24,8 km/h (4 Bft) S-SO 164 0 min 0,0 UV-I 0 W/m -0,4 C -8,7 C 37,0 km/h (5 Bft)
20.01.2021 08:14 2,2 C 1,7 C 82 % 1006,7 hPa 0,0 l/m 22,1 km/h (4 Bft) S 185 0 min 0,0 UV-I 0 W/m -0,5 C -7,7 C 37,0 km/h (5 Bft)
20.01.2021 08:16 2,2 C 1,1 C 82 % 1006,6 hPa 0,0 l/m 21,6 km/h (4 Bft) S 186 0 min 0,0 UV-I 0 W/m -0,5 C -7,5 C 37,0 km/h (5 Bft)
20.01.2021 08:18 2,2 C 1,1 C 82 % 1006,6 hPa 0,0 l/m 19,0 km/h (3 Bft) S 175 0 min 0,0 UV-I 0 W/m -0,5 C -6,3 C 29,0 km/h (5 Bft)
20.01.2021 08:20 2,1 C 1,1 C 82 % 1006,5 hPa 0,0 l/m 22,6 km/h (4 Bft) S-SW 202 0 min 0,0 UV-I 0 W/m -0,6 C -8,0 C 38,6 km/h (5 Bft)
20.01.2021 08:22 2,1 C 1,1 C 82 % 1006,6 hPa 0,0 l/m 25,0 km/h (4 Bft) S 178 0 min 0,0 UV-I 0 W/m -0,6 C -8,9 C 38,6 km/h (5 Bft)
20.01.2021 08:24 2,1 C 1,1 C 82 % 1006,7 hPa 0,0 l/m 21,2 km/h (4 Bft) S-SW 200 0 min 0,0 UV-I 0 W/m -0,6 C -7,4 C 35,4 km/h (5 Bft)
20.01.2021 08:26 2,0 C 1,1 C 82 % 1006,7 hPa 0,0 l/m 19,6 km/h (3 Bft) S-SW 207 0 min 0,0 UV-I 0 W/m -0,7 C -6,9 C 30,6 km/h (5 Bft)
20.01.2021 08:28 2,0 C 1,1 C 82 % 1006,5 hPa 0,0 l/m 23,2 km/h (4 Bft) S 169 0 min 0,0 UV-I 0 W/m -0,7 C -8,4 C 35,4 km/h (5 Bft)
20.01.2021 08:30 2,0 C 1,1 C 82 % 1006,5 hPa 0,0 l/m 16,6 km/h (3 Bft) S 177 0 min 0,0 UV-I 0 W/m -0,7 C -5,4 C 22,5 km/h (4 Bft)
20.01.2021 08:32 2,1 C 1,7 C 83 % 1006,4 hPa 0,0 l/m 21,7 km/h (4 Bft) S-SW 200 0 min 0,0 UV-I 0 W/m -0,5 C -7,6 C 38,6 km/h (5 Bft)
20.01.2021 08:34 2,1 C 1,7 C 82 % 1006,4 hPa 0,0 l/m 22,7 km/h (4 Bft) S 169 0 min 0,0 UV-I 2 W/m -0,6 C -8,0 C 33,8 km/h (5 Bft)
20.01.2021 08:36 2,1 C 1,7 C 82 % 1006,4 hPa 0,0 l/m 21,6 km/h (4 Bft) S-SW 199 0 min 0,0 UV-I 5 W/m -0,6 C -7,6 C 35,4 km/h (5 Bft)
20.01.2021 08:38 2,2 C 1,7 C 82 % 1006,3 hPa 0,0 l/m 21,9 km/h (4 Bft) S-SW 207 0 min 0,0 UV-I 5 W/m -0,5 C -7,6 C 30,6 km/h (5 Bft)
20.01.2021 08:40 2,2 C 1,7 C 82 % 1006,4 hPa 0,0 l/m 23,7 km/h (4 Bft) S 183 0 min 0,0 UV-I 7 W/m -0,5 C -8,3 C 35,4 km/h (5 Bft)
20.01.2021 08:42 2,3 C 1,7 C 82 % 1006,3 hPa 0,0 l/m 21,1 km/h (4 Bft) S-SW 211 0 min 0,0 UV-I 7 W/m -0,4 C -7,1 C 32,2 km/h (5 Bft)
20.01.2021 08:44 2,3 C 1,7 C 81 % 1006,4 hPa 0,0 l/m 23,0 km/h (4 Bft) S-SW 194 0 min 0,0 UV-I 9 W/m -0,6 C -7,9 C 43,5 km/h (6 Bft)
20.01.2021 08:46 2,3 C 1,7 C 81 % 1006,4 hPa 0,0 l/m 23,1 km/h (4 Bft) S-SO 166 0 min 0,0 UV-I 9 W/m -0,6 C -7,9 C 37,0 km/h (5 Bft)
20.01.2021 08:48 2,3 C 1,7 C 81 % 1006,3 hPa 0,0 l/m 18,3 km/h (3 Bft) S 190 0 min 0,0 UV-I 11 W/m -0,6 C -5,9 C 29,0 km/h (5 Bft)
20.01.2021 08:50 2,3 C 1,7 C 81 % 1006,4 hPa 0,0 l/m 21,5 km/h (4 Bft) S-SW 203 0 min 0,0 UV-I 12 W/m -0,6 C -7,3 C 35,4 km/h (5 Bft)
20.01.2021 08:52 2,4 C 1,7 C 81 % 1006,4 hPa 0,0 l/m 19,0 km/h (3 Bft) SW 223 0 min 0,0 UV-I 12 W/m -0,5 C -6,1 C 29,0 km/h (5 Bft)
20.01.2021 08:54 2,4 C 1,7 C 81 % 1006,4 hPa 0,0 l/m 18,8 km/h (3 Bft) SW 218 0 min 0,0 UV-I 14 W/m -0,5 C -6,0 C 25,7 km/h (4 Bft)
20.01.2021 08:56 2,4 C 1,7 C 81 % 1006,3 hPa 0,0 l/m 21,2 km/h (4 Bft) S-SW 192 0 min 0,0 UV-I 15 W/m -0,5 C -7,0 C 27,4 km/h (4 Bft)
20.01.2021 08:58 2,6 C 1,7 C 80 % 1006,4 hPa 0,0 l/m 20,0 km/h (4 Bft) S 189 0 min 0,0 UV-I 17 W/m -0,5 C -6,3 C 35,4 km/h (5 Bft)
20.01.2021 09:00 2,6 C 1,7 C 80 % 1006,3 hPa 0,0 l/m 20,0 km/h (4 Bft) S-SW 192 0 min 0,0 UV-I 18 W/m -0,5 C -6,3 C 32,2 km/h (5 Bft)
20.01.2021 09:02 2,6 C 1,7 C 80 % 1006,3 hPa 0,0 l/m 22,2 km/h (4 Bft) S-SO 157 0 min 0,0 UV-I 19 W/m -0,5 C -7,2 C 37,0 km/h (5 Bft)
20.01.2021 09:04 2,6 C 1,7 C 80 % 1006,4 hPa 0,0 l/m 24,7 km/h (4 Bft) S 174 0 min 0,0 UV-I 21 W/m -0,5 C -8,1 C 43,5 km/h (6 Bft)
20.01.2021 09:06 2,6 C 1,7 C 79 % 1006,4 hPa 0,0 l/m 20,9 km/h (4 Bft) S-SW 202 0 min 0,0 UV-I 22 W/m -0,7 C -6,7 C 38,6 km/h (5 Bft)
20.01.2021 09:08 2,6 C 1,7 C 79 % 1006,3 hPa 0,0 l/m 21,6 km/h (4 Bft) SW 220 0 min 0,0 UV-I 24 W/m -0,7 C -6,9 C 30,6 km/h (5 Bft)
20.01.2021 09:10 2,6 C 1,7 C 79 % 1006,4 hPa 0,0 l/m 21,3 km/h (4 Bft) S-SW 194 0 min 0,0 UV-I 26 W/m -0,7 C -6,8 C 33,8 km/h (5 Bft)
20.01.2021 09:12 2,6 C 1,7 C 79 % 1006,5 hPa 0,0 l/m 25,5 km/h (4 Bft) S-SW 210 0 min 0,0 UV-I 27 W/m -0,7 C -8,4 C 40,2 km/h (6 Bft)
20.01.2021 09:14 2,6 C 1,7 C 79 % 1006,4 hPa 0,0 l/m 25,3 km/h (4 Bft) SW 215 0 min 0,0 UV-I 29 W/m -0,7 C -8,3 C 37,0 km/h (5 Bft)
20.01.2021 09:16 2,6 C 1,7 C 79 % 1006,5 hPa 0,0 l/m 23,8 km/h (4 Bft) S 177 0 min 0,0 UV-I 32 W/m -0,7 C -7,8 C 33,8 km/h (5 Bft)
20.01.2021 09:18 2,5 C 1,7 C 79 % 1006,5 hPa 0,0 l/m 22,7 km/h (4 Bft) S-SO 161 0 min 0,0 UV-I 33 W/m -0,8 C -7,5 C 35,4 km/h (5 Bft)
20.01.2021 09:20 2,5 C 1,7 C 79 % 1006,3 hPa 0,0 l/m 23,5 km/h (4 Bft) S 184 0 min 0,0 UV-I 34 W/m -0,8 C -7,8 C 33,8 km/h (5 Bft)
20.01.2021 09:22 2,5 C 1,7 C 79 % 1006,4 hPa 0,0 l/m 21,5 km/h (4 Bft) S 170 0 min 0,0 UV-I 37 W/m -0,8 C -7,0 C 37,0 km/h (5 Bft)
20.01.2021 09:24 2,5 C 1,7 C 79 % 1006,3 hPa 0,0 l/m 20,3 km/h (4 Bft) SW 219 0 min 0,0 UV-I 39 W/m -0,8 C -6,5 C 32,2 km/h (5 Bft)
20.01.2021 09:26 2,5 C 1,7 C 79 % 1006,6 hPa 0,0 l/m 20,3 km/h (4 Bft) S 187 0 min 0,0 UV-I 40 W/m -0,8 C -6,5 C 32,2 km/h (5 Bft)
20.01.2021 09:28 2,6 C 1,7 C 79 % 1006,5 hPa 0,0 l/m 24,2 km/h (4 Bft) S-SW 193 0 min 0,0 UV-I 42 W/m -0,7 C -7,9 C 41,8 km/h (6 Bft)
20.01.2021 09:30 2,6 C 1,7 C 79 % 1006,6 hPa 0,0 l/m 21,8 km/h (4 Bft) S-SO 150 0 min 0,0 UV-I 44 W/m -0,7 C -7,0 C 35,4 km/h (5 Bft)
20.01.2021 09:32 2,6 C 1,7 C 78 % 1006,6 hPa 0,0 l/m 21,1 km/h (4 Bft) S 174 0 min 0,0 UV-I 46 W/m -0,8 C -6,7 C 33,8 km/h (5 Bft)
20.01.2021 09:34 2,6 C 2,2 C 78 % 1006,6 hPa 0,0 l/m 23,4 km/h (4 Bft) S 183 0 min 0,0 UV-I 49 W/m -0,8 C -7,6 C 33,8 km/h (5 Bft)
20.01.2021 09:36 2,6 C 2,2 C 78 % 1006,6 hPa 0,0 l/m 22,3 km/h (4 Bft) S-SW 198 0 min 0,0 UV-I 53 W/m -0,8 C -7,2 C 43,5 km/h (6 Bft)
20.01.2021 09:38 2,6 C 2,2 C 78 % 1006,6 hPa 0,0 l/m 19,3 km/h (3 Bft) S 171 0 min 0,0 UV-I 55 W/m -0,8 C -6,0 C 35,4 km/h (5 Bft)
20.01.2021 09:40 2,6 C 2,2 C 78 % 1006,5 hPa 0,0 l/m 21,5 km/h (4 Bft) S-SW 205 0 min 0,0 UV-I 59 W/m -0,8 C -6,9 C 41,8 km/h (6 Bft)
20.01.2021 09:42 2,6 C 2,2 C 78 % 1006,7 hPa 0,0 l/m 23,3 km/h (4 Bft) S 175 0 min 0,0 UV-I 65 W/m -0,8 C -7,6 C 37,0 km/h (5 Bft)
20.01.2021 09:44 2,6 C 2,2 C 78 % 1006,5 hPa 0,0 l/m 19,7 km/h (3 Bft) SO 143 0 min 0,0 UV-I 72 W/m -0,8 C -6,1 C 30,6 km/h (5 Bft)
20.01.2021 09:46 2,6 C 2,2 C 78 % 1006,6 hPa 0,0 l/m 19,4 km/h (3 Bft) S-SW 194 0 min 0,0 UV-I 76 W/m -0,8 C -6,0 C 29,0 km/h (5 Bft)
20.01.2021 09:48 2,6 C 2,2 C 78 % 1006,5 hPa 0,0 l/m 16,9 km/h (3 Bft) S 169 0 min 0,0 UV-I 69 W/m -0,8 C -4,8 C 32,2 km/h (5 Bft)
20.01.2021 09:50 2,6 C 2,2 C 78 % 1006,6 hPa 0,0 l/m 17,6 km/h (3 Bft) S-SO 164 0 min 0,0 UV-I 74 W/m -0,8 C -5,2 C 30,6 km/h (5 Bft)
20.01.2021 09:52 2,6 C 2,2 C 78 % 1006,7 hPa 0,0 l/m 23,8 km/h (4 Bft) S 178 0 min 0,0 UV-I 70 W/m -0,8 C -7,8 C 38,6 km/h (5 Bft)
20.01.2021 09:54 2,7 C 2,2 C 78 % 1006,6 hPa 0,0 l/m 22,0 km/h (4 Bft) S-SO 152 0 min 0,0 UV-I 81 W/m -0,7 C -7,0 C 45,1 km/h (6 Bft)
20.01.2021 09:56 2,7 C 2,8 C 78 % 1006,6 hPa 0,0 l/m 20,1 km/h (4 Bft) S 189 0 min 0,0 UV-I 101 W/m -0,7 C -6,2 C 38,6 km/h (5 Bft)
20.01.2021 09:58 2,8 C 3,3 C 77 % 1006,7 hPa 0,0 l/m 16,4 km/h (3 Bft) SW 219 0 min 0,0 UV-I 101 W/m -0,8 C -4,3 C 25,7 km/h (4 Bft)
20.01.2021 10:00 2,8 C 3,3 C 77 % 1006,8 hPa 0,0 l/m 24,1 km/h (4 Bft) S-SW 209 0 min 0,0 UV-I 108 W/m -0,8 C -7,6 C 35,4 km/h (5 Bft)
20.01.2021 10:02 2,8 C 2,8 C 77 % 1006,7 hPa 0,0 l/m 23,3 km/h (4 Bft) SW 214 0 min 0,0 UV-I 88 W/m -0,8 C -7,3 C 37,0 km/h (5 Bft)
20.01.2021 10:04 2,8 C 2,8 C 77 % 1006,6 hPa 0,0 l/m 21,3 km/h (4 Bft) S-SW 209 0 min 0,0 UV-I 66 W/m -0,8 C -6,6 C 38,6 km/h (5 Bft)
20.01.2021 10:06 2,8 C 2,2 C 77 % 1006,6 hPa 0,0 l/m 21,4 km/h (4 Bft) S-SO 159 0 min 0,0 UV-I 63 W/m -0,8 C -6,6 C 32,2 km/h (5 Bft)
20.01.2021 10:08 2,8 C 2,2 C 77 % 1006,4 hPa 0,0 l/m 24,0 km/h (4 Bft) S-SO 151 0 min 0,0 UV-I 66 W/m -0,8 C -7,6 C 38,6 km/h (5 Bft)
20.01.2021 10:10 2,8 C 2,8 C 77 % 1006,5 hPa 0,0 l/m 21,0 km/h (4 Bft) S 183 0 min 0,4 UV-I 96 W/m -0,8 C -6,4 C 37,0 km/h (5 Bft)
20.01.2021 10:12 2,8 C 3,3 C 77 % 1006,2 hPa 0,0 l/m 16,0 km/h (3 Bft) S 171 0 min 0,5 UV-I 129 W/m -0,8 C -4,1 C 24,1 km/h (4 Bft)
20.01.2021 10:14 2,8 C 3,3 C 77 % 1006,0 hPa 0,0 l/m 21,0 km/h (4 Bft) S-SW 192 0 min 0,5 UV-I 99 W/m -0,8 C -6,4 C 38,6 km/h (5 Bft)
20.01.2021 10:16 2,9 C 2,8 C 77 % 1005,9 hPa 0,0 l/m 17,9 km/h (3 Bft) S 173 0 min 0,5 UV-I 86 W/m -0,7 C -4,9 C 27,4 km/h (4 Bft)
20.01.2021 10:18 2,9 C 2,8 C 76 % 1005,8 hPa 0,0 l/m 17,0 km/h (3 Bft) S 176 0 min 0,5 UV-I 92 W/m -0,9 C -4,5 C 27,4 km/h (4 Bft)
20.01.2021 10:20 3,0 C 3,9 C 76 % 1005,9 hPa 0,0 l/m 17,4 km/h (3 Bft) S-SO 167 0 min 0,6 UV-I 140 W/m -0,8 C -4,6 C 25,7 km/h (4 Bft)
20.01.2021 10:22 3,1 C 4,4 C 76 % 1005,8 hPa 0,0 l/m 17,9 km/h (3 Bft) S-SO 165 0 min 0,6 UV-I 177 W/m -0,7 C -4,7 C 24,1 km/h (4 Bft)
20.01.2021 10:24 3,1 C 4,4 C 76 % 1005,8 hPa 0,0 l/m 15,7 km/h (3 Bft) SO 146 0 min 0,6 UV-I 169 W/m -0,7 C -3,6 C 27,4 km/h (4 Bft)
20.01.2021 10:26 3,0 C 3,9 C 77 % 1005,8 hPa 0,0 l/m 13,5 km/h (3 Bft) S 188 0 min 0,6 UV-I 125 W/m -0,6 C -2,5 C 27,4 km/h (4 Bft)
20.01.2021 10:28 2,9 C 3,3 C 77 % 1005,9 hPa 0,0 l/m 17,2 km/h (3 Bft) S 175 0 min 0,6 UV-I 100 W/m -0,7 C -4,6 C 27,4 km/h (4 Bft)
20.01.2021 10:30 2,9 C 3,3 C 77 % 1006,0 hPa 0,0 l/m 15,5 km/h (3 Bft) S 169 0 min 0,6 UV-I 129 W/m -0,7 C -3,7 C 24,1 km/h (4 Bft)
20.01.2021 10:32 2,9 C 3,3 C 77 % 1006,0 hPa 0,0 l/m 16,5 km/h (3 Bft) S 182 0 min 0,6 UV-I 164 W/m -0,7 C -4,3 C 25,7 km/h (4 Bft)
20.01.2021 10:34 3,0 C 3,3 C 77 % 1006,2 hPa 0,0 l/m 18,6 km/h (3 Bft) S-SW 200 0 min 0,6 UV-I 146 W/m -0,6 C -5,1 C 29,0 km/h (5 Bft)
20.01.2021 10:36 3,1 C 3,3 C 77 % 1006,2 hPa 0,0 l/m 15,8 km/h (3 Bft) SW 215 0 min 0,6 UV-I 156 W/m -0,5 C -3,7 C 22,5 km/h (4 Bft)
20.01.2021 10:38 3,2 C 3,9 C 77 % 1006,3 hPa 0,0 l/m 18,1 km/h (3 Bft) SW 217 0 min 0,6 UV-I 178 W/m -0,4 C -4,7 C 30,6 km/h (5 Bft)
20.01.2021 10:40 3,3 C 3,3 C 76 % 1006,4 hPa 0,0 l/m 17,6 km/h (3 Bft) S-SW 204 0 min 0,6 UV-I 123 W/m -0,5 C -4,3 C 30,6 km/h (5 Bft)
20.01.2021 10:42 3,3 C 3,3 C 76 % 1006,3 hPa 0,0 l/m 16,0 km/h (3 Bft) S-SW 207 0 min 0,6 UV-I 122 W/m -0,5 C -3,5 C 25,7 km/h (4 Bft)
20.01.2021 10:44 3,3 C 3,3 C 76 % 1006,4 hPa 0,0 l/m 16,2 km/h (3 Bft) S-SW 194 0 min 0,6 UV-I 138 W/m -0,5 C -3,6 C 24,1 km/h (4 Bft)
20.01.2021 10:46 3,3 C 3,3 C 76 % 1006,4 hPa 0,0 l/m 14,6 km/h (3 Bft) S 182 0 min 0,6 UV-I 153 W/m -0,5 C -2,8 C 22,5 km/h (4 Bft)
20.01.2021 10:48 3,2 C 3,3 C 76 % 1006,4 hPa 0,0 l/m 16,7 km/h (3 Bft) SW 216 0 min 0,7 UV-I 165 W/m -0,6 C -4,0 C 25,7 km/h (4 Bft)
20.01.2021 10:50 3,2 C 3,9 C 76 % 1006,4 hPa 0,0 l/m 18,1 km/h (3 Bft) S-SW 196 0 min 0,7 UV-I 200 W/m -0,6 C -4,7 C 29,0 km/h (5 Bft)
20.01.2021 10:52 3,2 C 3,9 C 77 % 1006,1 hPa 0,0 l/m 13,5 km/h (3 Bft) S 184 0 min 0,8 UV-I 223 W/m -0,4 C -2,3 C 22,5 km/h (4 Bft)
20.01.2021 10:54 3,3 C 4,4 C 76 % 1006,0 hPa 0,0 l/m 13,9 km/h (3 Bft) S 177 2 min 0,8 UV-I 240 W/m -0,5 C -2,4 C 20,9 km/h (4 Bft)
20.01.2021 10:56 3,6 C 5,0 C 75 % 1006,3 hPa 0,0 l/m 18,7 km/h (3 Bft) S-SO 165 2 min 0,8 UV-I 237 W/m -0,4 C -4,4 C 32,2 km/h (5 Bft)
20.01.2021 10:58 3,6 C 4,4 C 75 % 1006,3 hPa 0,0 l/m 14,2 km/h (3 Bft) S-SO 165 0 min 0,8 UV-I 204 W/m -0,4 C -2,2 C 20,9 km/h (4 Bft)
20.01.2021 11:00 3,6 C 4,4 C 75 % 1006,3 hPa 0,0 l/m 15,9 km/h (3 Bft) SW 216 0 min 0,8 UV-I 195 W/m -0,4 C -3,1 C 22,5 km/h (4 Bft)
20.01.2021 11:02 3,5 C 3,9 C 75 % 1006,3 hPa 0,0 l/m 20,9 km/h (4 Bft) S 183 0 min 0,8 UV-I 176 W/m -0,5 C -5,5 C 30,6 km/h (5 Bft)
20.01.2021 11:04 3,4 C 3,9 C 76 % 1006,3 hPa 0,0 l/m 18,4 km/h (3 Bft) S-SW 202 0 min 0,8 UV-I 183 W/m -0,4 C -4,5 C 27,4 km/h (4 Bft)
20.01.2021 11:06 3,3 C 3,3 C 76 % 1006,3 hPa 0,0 l/m 15,6 km/h (3 Bft) S-SW 196 0 min 0,8 UV-I 168 W/m -0,5 C -3,3 C 32,2 km/h (5 Bft)
20.01.2021 11:08 3,3 C 3,9 C 77 % 1006,1 hPa 0,0 l/m 15,8 km/h (3 Bft) S 170 0 min 0,8 UV-I 173 W/m -0,3 C -3,4 C 32,2 km/h (5 Bft)
20.01.2021 11:10 3,4 C 3,9 C 76 % 1006,1 hPa 0,0 l/m 20,4 km/h (4 Bft) SW 219 2 min 0,8 UV-I 238 W/m -0,4 C -5,4 C 32,2 km/h (5 Bft)
20.01.2021 11:12 3,6 C 4,4 C 76 % 1006,2 hPa 0,0 l/m 16,8 km/h (3 Bft) S-SW 211 2 min 0,9 UV-I 239 W/m -0,2 C -3,5 C 25,7 km/h (4 Bft)
20.01.2021 11:14 3,6 C 4,4 C 76 % 1006,1 hPa 0,0 l/m 17,8 km/h (3 Bft) S 180 2 min 0,9 UV-I 253 W/m -0,2 C -4,0 C 30,6 km/h (5 Bft)
20.01.2021 11:16 3,5 C 5,0 C 76 % 1006,0 hPa 0,0 l/m 18,1 km/h (3 Bft) S-SW 207 2 min 1,0 UV-I 270 W/m -0,3 C -4,3 C 24,1 km/h (4 Bft)
20.01.2021 11:18 3,6 C 5,6 C 76 % 1005,9 hPa 0,0 l/m 18,3 km/h (3 Bft) S 184 2 min 1,0 UV-I 307 W/m -0,2 C -4,2 C 29,0 km/h (5 Bft)
20.01.2021 11:20 3,7 C 5,6 C 76 % 1005,9 hPa 0,0 l/m 19,0 km/h (3 Bft) S-SW 206 2 min 1,0 UV-I 309 W/m -0,1 C -4,4 C 29,0 km/h (5 Bft)
20.01.2021 11:22 3,7 C 6,1 C 76 % 1005,8 hPa 0,0 l/m 18,0 km/h (3 Bft) S-SW 210 2 min 1,0 UV-I 306 W/m -0,1 C -4,0 C 27,4 km/h (4 Bft)
20.01.2021 11:24 3,7 C 6,1 C 76 % 1006,0 hPa 0,0 l/m 20,4 km/h (4 Bft) W-SW 255 2 min 1,0 UV-I 300 W/m -0,1 C -5,0 C 30,6 km/h (5 Bft)
20.01.2021 11:26 3,8 C 5,6 C 76 % 1006,0 hPa 0,0 l/m 21,7 km/h (4 Bft) S-SW 204 2 min 1,0 UV-I 292 W/m -0,0 C -5,4 C 29,0 km/h (5 Bft)
20.01.2021 11:28 3,8 C 5,6 C 75 % 1006,0 hPa 0,0 l/m 18,8 km/h (3 Bft) S-SW 205 2 min 0,9 UV-I 245 W/m -0,2 C -4,2 C 27,4 km/h (4 Bft)
20.01.2021 11:30 3,7 C 4,4 C 76 % 1006,0 hPa 0,0 l/m 20,1 km/h (4 Bft) S-SW 200 0 min 0,8 UV-I 157 W/m -0,1 C -4,9 C 27,4 km/h (4 Bft)
20.01.2021 11:32 3,7 C 3,9 C 75 % 1006,0 hPa 0,0 l/m 19,5 km/h (3 Bft) S-SW 208 0 min 0,9 UV-I 150 W/m -0,3 C -4,6 C 29,0 km/h (5 Bft)
20.01.2021 11:34 3,6 C 4,4 C 76 % 1005,9 hPa 0,0 l/m 15,8 km/h (3 Bft) S-SW 193 0 min 0,9 UV-I 192 W/m -0,2 C -3,0 C 22,5 km/h (4 Bft)
20.01.2021 11:36 3,7 C 4,4 C 76 % 1005,9 hPa 0,0 l/m 17,2 km/h (3 Bft) S 179 0 min 1,0 UV-I 223 W/m -0,1 C -3,6 C 24,1 km/h (4 Bft)
20.01.2021 11:38 3,7 C 5,0 C 76 % 1005,8 hPa 0,0 l/m 17,5 km/h (3 Bft) S-SW 207 2 min 1,0 UV-I 242 W/m -0,1 C -3,8 C 25,7 km/h (4 Bft)
20.01.2021 11:40 3,8 C 5,6 C 76 % 1005,7 hPa 0,0 l/m 15,4 km/h (3 Bft) S-SW 194 2 min 1,1 UV-I 267 W/m -0,0 C -2,6 C 27,4 km/h (4 Bft)
20.01.2021 11:42 3,9 C 5,6 C 76 % 1005,6 hPa 0,0 l/m 17,1 km/h (3 Bft) S-SO 158 2 min 1,1 UV-I 300 W/m 0,1 C -3,3 C 24,1 km/h (4 Bft)
20.01.2021 11:44 4,0 C 6,1 C 75 % 1005,5 hPa 0,0 l/m 13,5 km/h (3 Bft) S 174 2 min 1,1 UV-I 294 W/m -0,0 C -1,3 C 20,9 km/h (4 Bft)
20.01.2021 11:46 4,1 C 5,6 C 75 % 1005,5 hPa 0,0 l/m 18,5 km/h (3 Bft) S 173 2 min 1,1 UV-I 254 W/m 0,1 C -3,7 C 29,0 km/h (5 Bft)
20.01.2021 11:48 4,1 C 6,7 C 75 % 1005,5 hPa 0,0 l/m 16,6 km/h (3 Bft) S-SW 204 2 min 1,2 UV-I 336 W/m 0,1 C -2,8 C 25,7 km/h (4 Bft)
20.01.2021 11:50 4,2 C 6,1 C 75 % 1005,4 hPa 0,0 l/m 16,3 km/h (3 Bft) S-SW 208 2 min 1,2 UV-I 331 W/m 0,2 C -2,6 C 24,1 km/h (4 Bft)
20.01.2021 11:52 4,3 C 6,7 C 75 % 1005,1 hPa 0,0 l/m 20,0 km/h (4 Bft) S-SO 155 2 min 1,2 UV-I 337 W/m 0,3 C -4,1 C 32,2 km/h (5 Bft)
20.01.2021 11:54 4,4 C 6,7 C 74 % 1005,2 hPa 0,0 l/m 20,5 km/h (4 Bft) S-SO 167 2 min 1,2 UV-I 324 W/m 0,2 C -4,1 C 30,6 km/h (5 Bft)
20.01.2021 11:56 4,4 C 6,1 C 74 % 1005,2 hPa 0,0 l/m 18,9 km/h (3 Bft) S-SW 210 2 min 1,1 UV-I 260 W/m 0,2 C -3,5 C 29,0 km/h (5 Bft)
20.01.2021 11:58 4,4 C 5,6 C 74 % 1005,0 hPa 0,0 l/m 16,4 km/h (3 Bft) S-SW 196 2 min 1,1 UV-I 249 W/m 0,2 C -2,4 C 25,7 km/h (4 Bft)
20.01.2021 12:00 4,4 C 5,6 C 74 % 1005,0 hPa 0,0 l/m 18,1 km/h (3 Bft) S-SW 196 2 min 1,1 UV-I 248 W/m 0,2 C -3,1 C 29,0 km/h (5 Bft)
20.01.2021 12:02 4,3 C 5,0 C 74 % 1005,0 hPa 0,0 l/m 22,0 km/h (4 Bft) S-SO 159 0 min 1,1 UV-I 227 W/m 0,1 C -4,9 C 35,4 km/h (5 Bft)
20.01.2021 12:04 4,3 C 5,0 C 74 % 1004,9 hPa 0,0 l/m 19,4 km/h (3 Bft) S-SW 207 2 min 1,1 UV-I 244 W/m 0,1 C -3,8 C 32,2 km/h (5 Bft)
20.01.2021 12:06 4,2 C 5,0 C 75 % 1004,8 hPa 0,0 l/m 20,8 km/h (4 Bft) S-SW 202 2 min 1,1 UV-I 254 W/m 0,2 C -4,5 C 32,2 km/h (5 Bft)
20.01.2021 12:08 4,2 C 5,0 C 75 % 1004,8 hPa 0,0 l/m 17,4 km/h (3 Bft) S-SW 192 2 min 1,0 UV-I 238 W/m 0,2 C -3,1 C 27,4 km/h (4 Bft)
20.01.2021 12:10 4,2 C 5,0 C 76 % 1004,8 hPa 0,0 l/m 22,5 km/h (4 Bft) S-SW 201 2 min 1,1 UV-I 261 W/m 0,4 C -5,2 C 40,2 km/h (6 Bft)
20.01.2021 12:12 4,2 C 4,4 C 75 % 1004,9 hPa 0,0 l/m 22,8 km/h (4 Bft) SW 218 2 min 1,1 UV-I 251 W/m 0,2 C -5,3 C 38,6 km/h (5 Bft)
20.01.2021 12:14 4,2 C 4,4 C 76 % 1004,9 hPa 0,0 l/m 19,0 km/h (3 Bft) S 189 2 min 1,0 UV-I 236 W/m 0,4 C -3,8 C 25,7 km/h (4 Bft)
20.01.2021 12:16 4,3 C 4,4 C 76 % 1004,9 hPa 0,0 l/m 18,7 km/h (3 Bft) S 178 2 min 1,0 UV-I 239 W/m 0,5 C -3,5 C 25,7 km/h (4 Bft)
20.01.2021 12:18 4,3 C 4,4 C 75 % 1004,8 hPa 0,0 l/m 20,7 km/h (4 Bft) S-SW 199 0 min 1,0 UV-I 216 W/m 0,3 C -4,4 C 32,2 km/h (5 Bft)
20.01.2021 12:20 4,3 C 4,4 C 75 % 1004,8 hPa 0,0 l/m 18,7 km/h (3 Bft) S 186 0 min 1,0 UV-I 206 W/m 0,3 C -3,5 C 25,7 km/h (4 Bft)
20.01.2021 12:22 4,3 C 4,4 C 76 % 1004,7 hPa 0,0 l/m 19,0 km/h (3 Bft) S-SW 200 0 min 1,0 UV-I 208 W/m 0,5 C -3,7 C 29,0 km/h (5 Bft)
20.01.2021 12:24 4,2 C 4,4 C 76 % 1004,7 hPa 0,0 l/m 17,8 km/h (3 Bft) SO 140 0 min 1,0 UV-I 205 W/m 0,4 C -3,3 C 33,8 km/h (5 Bft)
20.01.2021 12:26 4,2 C 3,9 C 76 % 1004,6 hPa 0,0 l/m 24,5 km/h (4 Bft) S 177 0 min 1,0 UV-I 201 W/m 0,4 C -5,9 C 38,6 km/h (5 Bft)
20.01.2021 12:28 4,2 C 4,4 C 76 % 1004,6 hPa 0,0 l/m 16,5 km/h (3 Bft) SW 219 0 min 1,0 UV-I 210 W/m 0,4 C -2,7 C 27,4 km/h (4 Bft)
20.01.2021 12:30 4,2 C 4,4 C 76 % 1004,6 hPa 0,0 l/m 18,9 km/h (3 Bft) S 181 0 min 1,0 UV-I 207 W/m 0,4 C -3,7 C 30,6 km/h (5 Bft)
20.01.2021 12:32 4,2 C 4,4 C 76 % 1004,5 hPa 0,0 l/m 18,9 km/h (3 Bft) S-SW 207 0 min 1,0 UV-I 199 W/m 0,4 C -3,7 C 30,6 km/h (5 Bft)
20.01.2021 12:34 4,2 C 4,4 C 77 % 1004,5 hPa 0,0 l/m 19,4 km/h (3 Bft) S 184 0 min 1,0 UV-I 197 W/m 0,5 C -4,0 C 30,6 km/h (5 Bft)
20.01.2021 12:36 4,2 C 4,4 C 77 % 1004,4 hPa 0,0 l/m 19,5 km/h (3 Bft) SW 228 0 min 1,0 UV-I 210 W/m 0,5 C -4,0 C 32,2 km/h (5 Bft)
20.01.2021 12:38 4,3 C 4,4 C 77 % 1004,4 hPa 0,0 l/m 17,8 km/h (3 Bft) S-SW 195 0 min 1,1 UV-I 207 W/m 0,6 C -3,1 C 29,0 km/h (5 Bft)
20.01.2021 12:40 4,3 C 4,4 C 77 % 1004,5 hPa 0,0 l/m 17,8 km/h (3 Bft) S-SW 200 0 min 1,1 UV-I 217 W/m 0,6 C -3,1 C 24,1 km/h (4 Bft)
20.01.2021 12:42 4,3 C 4,4 C 77 % 1004,3 hPa 0,0 l/m 18,9 km/h (3 Bft) SW 219 2 min 1,1 UV-I 232 W/m 0,6 C -3,6 C 29,0 km/h (5 Bft)
20.01.2021 12:44 4,4 C 4,4 C 76 % 1004,3 hPa 0,0 l/m 18,9 km/h (3 Bft) S-SW 212 0 min 1,1 UV-I 227 W/m 0,5 C -3,5 C 27,4 km/h (4 Bft)
20.01.2021 12:46 4,4 C 5,0 C 77 % 1004,3 hPa 0,0 l/m 19,7 km/h (3 Bft) S-SW 213 2 min 1,1 UV-I 256 W/m 0,7 C -3,8 C 25,7 km/h (4 Bft)
20.01.2021 12:48 4,4 C 5,6 C 77 % 1004,3 hPa 0,0 l/m 19,9 km/h (4 Bft) SW 217 2 min 1,2 UV-I 266 W/m 0,7 C -3,9 C 32,2 km/h (5 Bft)
20.01.2021 12:50 4,4 C 5,0 C 77 % 1004,3 hPa 0,0 l/m 18,5 km/h (3 Bft) S 176 0 min 1,0 UV-I 177 W/m 0,7 C -3,3 C 32,2 km/h (5 Bft)
20.01.2021 12:52 4,4 C 4,4 C 77 % 1004,2 hPa 0,0 l/m 19,0 km/h (3 Bft) S-SW 202 0 min 1,0 UV-I 165 W/m 0,7 C -3,5 C 30,6 km/h (5 Bft)
20.01.2021 12:54 4,4 C 4,4 C 77 % 1004,2 hPa 0,0 l/m 19,4 km/h (3 Bft) S-SW 204 0 min 1,0 UV-I 185 W/m 0,7 C -3,7 C 30,6 km/h (5 Bft)
20.01.2021 12:56 4,4 C 5,0 C 77 % 1004,0 hPa 0,0 l/m 19,3 km/h (3 Bft) S-SW 201 2 min 1,2 UV-I 296 W/m 0,7 C -3,7 C 30,6 km/h (5 Bft)
20.01.2021 12:58 4,6 C 6,1 C 77 % 1004,1 hPa 0,0 l/m 22,4 km/h (4 Bft) S 169 2 min 1,4 UV-I 417 W/m 0,9 C -4,6 C 33,8 km/h (5 Bft)
20.01.2021 13:00 4,8 C 7,2 C 77 % 1003,9 hPa 0,0 l/m 17,8 km/h (3 Bft) S-SW 202 2 min 1,4 UV-I 414 W/m 1,1 C -2,5 C 30,6 km/h (5 Bft)
20.01.2021 13:02 4,8 C 6,7 C 76 % 1004,0 hPa 0,0 l/m 19,0 km/h (3 Bft) S-SW 205 2 min 1,3 UV-I 326 W/m 0,9 C -3,0 C 30,6 km/h (5 Bft)
20.01.2021 13:04 4,8 C 6,7 C 76 % 1004,0 hPa 0,0 l/m 17,1 km/h (3 Bft) SW 219 2 min 1,3 UV-I 334 W/m 0,9 C -2,2 C 25,7 km/h (4 Bft)
20.01.2021 13:06 4,9 C 7,8 C 76 % 1003,9 hPa 0,0 l/m 21,2 km/h (4 Bft) S-SO 167 2 min 1,4 UV-I 428 W/m 1,0 C -3,8 C 32,2 km/h (5 Bft)
20.01.2021 13:08 5,1 C 7,2 C 76 % 1003,8 hPa 0,0 l/m 24,7 km/h (4 Bft) S-SW 194 2 min 1,5 UV-I 435 W/m 1,2 C -4,7 C 45,1 km/h (6 Bft)
20.01.2021 13:10 5,2 C 6,7 C 75 % 1003,9 hPa 0,0 l/m 23,3 km/h (4 Bft) S-SW 196 2 min 1,3 UV-I 343 W/m 1,1 C -4,1 C 33,8 km/h (5 Bft)
20.01.2021 13:12 5,1 C 6,1 C 75 % 1003,8 hPa 0,0 l/m 22,1 km/h (4 Bft) S-SW 202 2 min 1,2 UV-I 313 W/m 1,0 C -3,8 C 41,8 km/h (6 Bft)
20.01.2021 13:14 5,1 C 5,6 C 76 % 1003,7 hPa 0,0 l/m 24,3 km/h (4 Bft) S 189 2 min 1,1 UV-I 240 W/m 1,2 C -4,6 C 38,6 km/h (5 Bft)
20.01.2021 13:16 4,9 C 5,0 C 76 % 1003,6 hPa 0,0 l/m 23,5 km/h (4 Bft) S-SW 206 0 min 1,0 UV-I 179 W/m 1,0 C -4,6 C 33,8 km/h (5 Bft)
20.01.2021 13:18 4,9 C 5,0 C 77 % 1003,7 hPa 0,0 l/m 23,2 km/h (4 Bft) S 189 0 min 1,0 UV-I 169 W/m 1,2 C -4,5 C 35,4 km/h (5 Bft)
20.01.2021 13:20 4,8 C 4,4 C 77 % 1003,6 hPa 0,0 l/m 23,8 km/h (4 Bft) S-SW 202 0 min 0,9 UV-I 157 W/m 1,1 C -4,8 C 38,6 km/h (5 Bft)
20.01.2021 13:22 4,7 C 4,4 C 78 % 1003,7 hPa 0,0 l/m 24,1 km/h (4 Bft) SW 216 0 min 0,9 UV-I 161 W/m 1,2 C -5,1 C 32,2 km/h (5 Bft)
20.01.2021 13:24 4,7 C 4,4 C 78 % 1003,8 hPa 0,0 l/m 21,9 km/h (4 Bft) S-SO 157 0 min 1,0 UV-I 174 W/m 1,2 C -4,3 C 32,2 km/h (5 Bft)
20.01.2021 13:26 4,7 C 4,4 C 78 % 1003,6 hPa 0,0 l/m 25,5 km/h (4 Bft) S 188 0 min 1,0 UV-I 188 W/m 1,2 C -5,5 C 35,4 km/h (5 Bft)
20.01.2021 13:28 4,8 C 5,6 C 78 % 1003,6 hPa 0,0 l/m 22,2 km/h (4 Bft) S-SW 195 0 min 1,1 UV-I 222 W/m 1,3 C -4,3 C 32,2 km/h (5 Bft)
20.01.2021 13:30 5,0 C 7,2 C 78 % 1003,6 hPa 0,0 l/m 23,7 km/h (4 Bft) S-SW 192 2 min 1,3 UV-I 428 W/m 1,5 C -4,5 C 37,0 km/h (5 Bft)
20.01.2021 13:32 5,3 C 7,8 C 77 % 1003,3 hPa 0,0 l/m 27,6 km/h (4 Bft) S 189 2 min 1,3 UV-I 428 W/m 1,6 C -5,3 C 49,9 km/h (6 Bft)
20.01.2021 13:34 5,4 C 7,8 C 76 % 1003,4 hPa 0,0 l/m 23,1 km/h (4 Bft) S-SW 205 2 min 1,3 UV-I 409 W/m 1,5 C -3,8 C 38,6 km/h (5 Bft)
20.01.2021 13:36 5,5 C 7,8 C 76 % 1003,4 hPa 0,0 l/m 23,8 km/h (4 Bft) SW 218 2 min 1,3 UV-I 376 W/m 1,6 C -3,9 C 38,6 km/h (5 Bft)
20.01.2021 13:38 5,5 C 7,8 C 76 % 1003,5 hPa 0,0 l/m 24,2 km/h (4 Bft) S-SW 203 2 min 1,2 UV-I 348 W/m 1,6 C -4,0 C 33,8 km/h (5 Bft)
20.01.2021 13:40 5,4 C 6,7 C 76 % 1003,4 hPa 0,0 l/m 21,3 km/h (4 Bft) S 180 2 min 1,1 UV-I 241 W/m 1,5 C -3,1 C 30,6 km/h (5 Bft)
20.01.2021 13:42 5,4 C 6,7 C 76 % 1003,4 hPa 0,0 l/m 21,7 km/h (4 Bft) S-SW 196 2 min 1,1 UV-I 288 W/m 1,5 C -3,3 C 35,4 km/h (5 Bft)
20.01.2021 13:44 5,3 C 6,7 C 76 % 1003,3 hPa 0,0 l/m 19,1 km/h (3 Bft) S-SW 199 2 min 1,2 UV-I 304 W/m 1,4 C -2,4 C 29,0 km/h (5 Bft)
20.01.2021 13:46 5,3 C 6,1 C 77 % 1003,4 hPa 0,0 l/m 20,2 km/h (4 Bft) SW 215 2 min 1,1 UV-I 263 W/m 1,6 C -2,9 C 27,4 km/h (4 Bft)
20.01.2021 13:48 5,3 C 6,1 C 77 % 1003,3 hPa 0,0 l/m 25,6 km/h (4 Bft) S 180 2 min 1,1 UV-I 293 W/m 1,6 C -4,7 C 38,6 km/h (5 Bft)
20.01.2021 13:50 5,3 C 6,7 C 77 % 1003,3 hPa 0,0 l/m 23,6 km/h (4 Bft) S 175 2 min 1,1 UV-I 309 W/m 1,6 C -4,1 C 32,2 km/h (5 Bft)
20.01.2021 13:52 5,2 C 6,7 C 77 % 1003,2 hPa 0,0 l/m 22,3 km/h (4 Bft) S-SW 198 2 min 1,1 UV-I 319 W/m 1,5 C -3,8 C 35,4 km/h (5 Bft)
20.01.2021 13:54 5,2 C 6,1 C 78 % 1003,3 hPa 0,0 l/m 19,4 km/h (3 Bft) S-SW 198 2 min 1,0 UV-I 264 W/m 1,7 C -2,7 C 25,7 km/h (4 Bft)
20.01.2021 13:56 5,2 C 6,1 C 78 % 1003,2 hPa 0,0 l/m 19,8 km/h (3 Bft) S-SW 200 2 min 1,0 UV-I 236 W/m 1,7 C -2,8 C 27,4 km/h (4 Bft)
20.01.2021 13:58 5,2 C 6,1 C 78 % 1003,1 hPa 0,0 l/m 22,6 km/h (4 Bft) SO 142 0 min 1,0 UV-I 216 W/m 1,7 C -3,9 C 32,2 km/h (5 Bft)
20.01.2021 14:00 5,2 C 5,6 C 78 % 1003,1 hPa 0,0 l/m 27,7 km/h (4 Bft) S 176 0 min 0,9 UV-I 217 W/m 1,7 C -5,5 C 40,2 km/h (6 Bft)
20.01.2021 14:02 5,2 C 5,0 C 78 % 1003,1 hPa 0,0 l/m 23,8 km/h (4 Bft) S 186 0 min 0,9 UV-I 168 W/m 1,7 C -4,3 C 32,2 km/h (5 Bft)
20.01.2021 14:04 5,1 C 5,0 C 78 % 1003,0 hPa 0,0 l/m 21,0 km/h (4 Bft) S-SW 198 0 min 0,9 UV-I 170 W/m 1,6 C -3,4 C 37,0 km/h (5 Bft)
20.01.2021 14:06 5,2 C 5,0 C 78 % 1003,0 hPa 0,0 l/m 25,1 km/h (4 Bft) S-SW 194 0 min 0,9 UV-I 180 W/m 1,7 C -4,7 C 40,2 km/h (6 Bft)
20.01.2021 14:08 5,2 C 5,0 C 78 % 1003,0 hPa 0,0 l/m 25,5 km/h (4 Bft) S-SW 193 0 min 0,9 UV-I 165 W/m 1,7 C -4,8 C 51,5 km/h (7 Bft)
20.01.2021 14:10 5,2 C 5,0 C 78 % 1002,9 hPa 0,0 l/m 18,7 km/h (3 Bft) S 171 0 min 0,8 UV-I 151 W/m 1,7 C -2,4 C 25,7 km/h (4 Bft)
20.01.2021 14:12 5,1 C 5,0 C 78 % 1002,8 hPa 0,0 l/m 20,7 km/h (4 Bft) S-SW 199 0 min 0,8 UV-I 141 W/m 1,6 C -3,3 C 41,8 km/h (6 Bft)
20.01.2021 14:14 5,1 C 4,4 C 79 % 1002,8 hPa 0,0 l/m 22,2 km/h (4 Bft) S 171 0 min 0,8 UV-I 144 W/m 1,8 C -3,9 C 40,2 km/h (6 Bft)
20.01.2021 14:16 5,1 C 4,4 C 79 % 1002,7 hPa 0,0 l/m 17,2 km/h (3 Bft) S 177 0 min 0,8 UV-I 148 W/m 1,8 C -1,9 C 29,0 km/h (5 Bft)
20.01.2021 14:18 5,1 C 4,4 C 79 % 1002,7 hPa 0,0 l/m 20,7 km/h (4 Bft) S-SO 159 0 min 0,8 UV-I 150 W/m 1,8 C -3,3 C 29,0 km/h (5 Bft)
20.01.2021 14:20 5,1 C 5,0 C 79 % 1002,7 hPa 0,0 l/m 17,9 km/h (3 Bft) S 180 0 min 0,8 UV-I 159 W/m 1,8 C -2,2 C 27,4 km/h (4 Bft)
20.01.2021 14:22 5,1 C 5,0 C 79 % 1002,7 hPa 0,0 l/m 21,6 km/h (4 Bft) S-SO 156 0 min 0,8 UV-I 162 W/m 1,8 C -3,7 C 37,0 km/h (5 Bft)
20.01.2021 14:24 5,2 C 5,0 C 78 % 1002,8 hPa 0,0 l/m 17,3 km/h (3 Bft) S 175 0 min 0,8 UV-I 165 W/m 1,7 C -1,8 C 29,0 km/h (5 Bft)
20.01.2021 14:26 5,1 C 5,0 C 79 % 1002,7 hPa 0,0 l/m 15,8 km/h (3 Bft) S-SW 194 0 min 0,8 UV-I 163 W/m 1,8 C -1,2 C 24,1 km/h (4 Bft)
20.01.2021 14:28 5,0 C 5,0 C 79 % 1002,7 hPa 0,0 l/m 14,2 km/h (3 Bft) S 181 0 min 0,7 UV-I 158 W/m 1,7 C -0,5 C 24,1 km/h (4 Bft)
20.01.2021 14:30 5,0 C 5,0 C 80 % 1002,7 hPa 0,0 l/m 19,3 km/h (3 Bft) SO 136 0 min 0,7 UV-I 158 W/m 1,8 C -2,9 C 32,2 km/h (5 Bft)
20.01.2021 14:32 5,1 C 5,0 C 80 % 1002,7 hPa 0,0 l/m 18,7 km/h (3 Bft) S-SO 163 0 min 0,7 UV-I 171 W/m 1,9 C -2,5 C 25,7 km/h (4 Bft)
20.01.2021 14:34 5,0 C 5,0 C 80 % 1002,5 hPa 0,0 l/m 17,1 km/h (3 Bft) S-SW 209 0 min 0,7 UV-I 168 W/m 1,8 C -1,9 C 25,7 km/h (4 Bft)
20.01.2021 14:36 4,9 C 5,0 C 80 % 1002,5 hPa 0,0 l/m 15,6 km/h (3 Bft) S 188 0 min 0,7 UV-I 161 W/m 1,7 C -1,3 C 29,0 km/h (5 Bft)
20.01.2021 14:38 4,8 C 4,4 C 81 % 1002,5 hPa 0,0 l/m 14,3 km/h (3 Bft) S-SW 205 0 min 0,7 UV-I 154 W/m 1,8 C -0,8 C 19,3 km/h (3 Bft)
20.01.2021 14:40 4,8 C 4,4 C 81 % 1002,5 hPa 0,0 l/m 15,8 km/h (3 Bft) SO 134 0 min 0,7 UV-I 152 W/m 1,8 C -1,6 C 25,7 km/h (4 Bft)
20.01.2021 14:42 4,8 C 4,4 C 82 % 1002,4 hPa 0,0 l/m 18,2 km/h (3 Bft) S-SW 200 0 min 0,7 UV-I 148 W/m 2,0 C -2,7 C 24,1 km/h (4 Bft)
20.01.2021 14:44 4,8 C 4,4 C 82 % 1002,5 hPa 0,0 l/m 14,7 km/h (3 Bft) S-SO 148 0 min 0,6 UV-I 143 W/m 2,0 C -1,0 C 19,3 km/h (3 Bft)
20.01.2021 14:46 4,8 C 5,0 C 82 % 1002,4 hPa 0,0 l/m 19,6 km/h (3 Bft) S-SO 167 0 min 0,6 UV-I 144 W/m 2,0 C -3,3 C 30,6 km/h (5 Bft)
20.01.2021 14:48 5,1 C 5,0 C 81 % 1002,3 hPa 0,0 l/m 15,4 km/h (3 Bft) S-SO 159 0 min 0,6 UV-I 160 W/m 2,1 C -1,0 C 24,1 km/h (4 Bft)
20.01.2021 14:50 5,2 C 5,6 C 81 % 1002,4 hPa 0,0 l/m 19,1 km/h (3 Bft) SO 140 0 min 0,6 UV-I 184 W/m 2,2 C -2,6 C 29,0 km/h (5 Bft)
20.01.2021 14:52 5,2 C 5,6 C 81 % 1002,2 hPa 0,0 l/m 13,7 km/h (3 Bft) S 175 0 min 0,6 UV-I 184 W/m 2,2 C 0,0 C 24,1 km/h (4 Bft)
20.01.2021 14:54 5,3 C 5,6 C 80 % 1002,3 hPa 0,0 l/m 12,7 km/h (3 Bft) S-SO 166 0 min 0,6 UV-I 166 W/m 2,1 C 0,7 C 24,1 km/h (4 Bft)
20.01.2021 14:56 5,2 C 5,6 C 81 % 1002,2 hPa 0,0 l/m 14,0 km/h (3 Bft) SO 136 0 min 0,6 UV-I 147 W/m 2,2 C -0,2 C 25,7 km/h (4 Bft)
20.01.2021 14:58 5,2 C 5,6 C 81 % 1002,2 hPa 0,0 l/m 11,6 km/h (2 Bft) S-SO 162 0 min 0,6 UV-I 153 W/m 2,2 C 1,2 C 22,5 km/h (4 Bft)
20.01.2021 15:00 5,2 C 5,6 C 81 % 1002,2 hPa 0,0 l/m 13,4 km/h (3 Bft) S 187 0 min 0,6 UV-I 132 W/m 2,2 C 0,2 C 20,9 km/h (4 Bft)
20.01.2021 15:02 5,2 C 5,0 C 81 % 1002,3 hPa 0,0 l/m 13,7 km/h (3 Bft) SO 130 0 min 0,6 UV-I 133 W/m 2,2 C 0,0 C 24,1 km/h (4 Bft)
20.01.2021 15:04 5,2 C 5,0 C 81 % 1002,3 hPa 0,0 l/m 13,8 km/h (3 Bft) S 181 0 min 0,6 UV-I 130 W/m 2,2 C -0,0 C 20,9 km/h (4 Bft)
20.01.2021 15:06 5,2 C 5,0 C 82 % 1002,3 hPa 0,0 l/m 15,8 km/h (3 Bft) S 177 0 min 0,5 UV-I 134 W/m 2,4 C -1,1 C 24,1 km/h (4 Bft)
20.01.2021 15:08 5,2 C 5,0 C 82 % 1002,3 hPa 0,0 l/m 15,4 km/h (3 Bft) S-SW 193 0 min 0,5 UV-I 130 W/m 2,4 C -0,9 C 24,1 km/h (4 Bft)
20.01.2021 15:10 5,2 C 5,0 C 82 % 1002,1 hPa 0,0 l/m 11,6 km/h (2 Bft) S 169 0 min 0,5 UV-I 156 W/m 2,4 C 1,2 C 19,3 km/h (3 Bft)
20.01.2021 15:12 5,2 C 5,6 C 82 % 1002,2 hPa 0,0 l/m 14,0 km/h (3 Bft) S 189 0 min 0,5 UV-I 160 W/m 2,4 C -0,2 C 20,9 km/h (4 Bft)
20.01.2021 15:14 5,2 C 5,6 C 82 % 1002,1 hPa 0,0 l/m 11,1 km/h (2 Bft) SO 136 0 min 0,6 UV-I 210 W/m 2,4 C 1,6 C 19,3 km/h (3 Bft)
20.01.2021 15:16 5,3 C 6,1 C 82 % 1002,2 hPa 0,0 l/m 15,9 km/h (3 Bft) S 175 0 min 0,6 UV-I 207 W/m 2,5 C -1,0 C 27,4 km/h (4 Bft)
20.01.2021 15:18 5,4 C 6,7 C 82 % 1002,3 hPa 0,0 l/m 12,1 km/h (2 Bft) S-SO 163 0 min 0,6 UV-I 225 W/m 2,6 C 1,2 C 20,9 km/h (4 Bft)
20.01.2021 15:20 5,4 C 6,7 C 82 % 1002,2 hPa 0,0 l/m 10,5 km/h (2 Bft) S 185 0 min 0,6 UV-I 223 W/m 2,6 C 2,2 C 17,7 km/h (3 Bft)
20.01.2021 15:22 5,4 C 6,7 C 82 % 1002,1 hPa 0,0 l/m 8,9 km/h (2 Bft) S-SW 207 0 min 0,5 UV-I 203 W/m 2,6 C 3,3 C 12,9 km/h (3 Bft)
20.01.2021 15:24 5,4 C 6,7 C 82 % 1001,9 hPa 0,0 l/m 13,4 km/h (3 Bft) S 169 0 min 0,5 UV-I 203 W/m 2,6 C 0,4 C 19,3 km/h (3 Bft)
20.01.2021 15:26 5,4 C 6,7 C 82 % 1001,9 hPa 0,0 l/m 12,9 km/h (3 Bft) S 184 0 min 0,5 UV-I 141 W/m 2,6 C 0,7 C 19,3 km/h (3 Bft)
20.01.2021 15:28 5,4 C 6,1 C 82 % 1002,0 hPa 0,0 l/m 12,8 km/h (3 Bft) S 172 0 min 0,5 UV-I 132 W/m 2,6 C 0,7 C 19,3 km/h (3 Bft)
20.01.2021 15:30 5,3 C 6,1 C 82 % 1001,9 hPa 0,0 l/m 12,9 km/h (3 Bft) S 180 0 min 0,5 UV-I 147 W/m 2,5 C 0,6 C 22,5 km/h (4 Bft)
20.01.2021 15:32 5,3 C 5,6 C 82 % 1001,9 hPa 0,0 l/m 12,5 km/h (3 Bft) S-SW 201 0 min 0,5 UV-I 112 W/m 2,5 C 0,8 C 24,1 km/h (4 Bft)
20.01.2021 15:34 5,3 C 5,6 C 82 % 1001,9 hPa 0,0 l/m 12,7 km/h (3 Bft) S-SO 159 0 min 0,3 UV-I 102 W/m 2,5 C 0,7 C 27,4 km/h (4 Bft)
20.01.2021 15:36 5,3 C 5,0 C 82 % 1001,9 hPa 0,0 l/m 14,2 km/h (3 Bft) S 191 0 min 0,5 UV-I 137 W/m 2,5 C -0,1 C 24,1 km/h (4 Bft)
20.01.2021 15:38 5,4 C 6,1 C 83 % 1001,9 hPa 0,0 l/m 8,8 km/h (2 Bft) S 180 0 min 0,5 UV-I 182 W/m 2,7 C 3,4 C 16,1 km/h (3 Bft)
20.01.2021 15:40 5,4 C 6,7 C 82 % 1001,9 hPa 0,0 l/m 10,9 km/h (2 Bft) S 175 0 min 0,4 UV-I 177 W/m 2,6 C 1,9 C 16,1 km/h (3 Bft)
20.01.2021 15:42 5,5 C 6,1 C 82 % 1001,9 hPa 0,0 l/m 11,7 km/h (2 Bft) S-SW 200 0 min 0,0 UV-I 136 W/m 2,7 C 1,5 C 16,1 km/h (3 Bft)
20.01.2021 15:44 5,5 C 6,1 C 82 % 1001,9 hPa 0,0 l/m 11,5 km/h (2 Bft) S 186 0 min 0,0 UV-I 114 W/m 2,7 C 1,6 C 20,9 km/h (4 Bft)
20.01.2021 15:46 5,6 C 6,1 C 82 % 1001,9 hPa 0,0 l/m 15,2 km/h (3 Bft) S 169 0 min 0,0 UV-I 127 W/m 2,8 C -0,3 C 25,7 km/h (4 Bft)
20.01.2021 15:48 5,6 C 6,1 C 82 % 1001,7 hPa 0,0 l/m 13,1 km/h (3 Bft) S 181 0 min 0,0 UV-I 134 W/m 2,8 C 0,8 C 24,1 km/h (4 Bft)
20.01.2021 15:50 5,7 C 6,1 C 82 % 1001,7 hPa 0,0 l/m 17,1 km/h (3 Bft) S-SW 207 0 min 0,0 UV-I 130 W/m 2,9 C -1,1 C 27,4 km/h (4 Bft)
20.01.2021 15:52 5,7 C 5,6 C 82 % 1001,7 hPa 0,0 l/m 13,3 km/h (3 Bft) S 184 0 min 0,0 UV-I 103 W/m 2,9 C 0,8 C 19,3 km/h (3 Bft)
20.01.2021 15:54 5,6 C 5,0 C 82 % 1001,6 hPa 0,0 l/m 14,1 km/h (3 Bft) S 171 0 min 0,0 UV-I 78 W/m 2,8 C 0,3 C 25,7 km/h (4 Bft)
20.01.2021 15:56 5,7 C 5,0 C 82 % 1001,7 hPa 0,0 l/m 17,1 km/h (3 Bft) S 182 0 min 0,0 UV-I 91 W/m 2,9 C -1,1 C 29,0 km/h (5 Bft)
20.01.2021 15:58 5,7 C 5,0 C 82 % 1001,7 hPa 0,0 l/m 11,9 km/h (2 Bft) S-SW 211 0 min 0,0 UV-I 73 W/m 2,9 C 1,6 C 24,1 km/h (4 Bft)
20.01.2021 16:00 5,6 C 5,0 C 82 % 1001,7 hPa 0,0 l/m 15,7 km/h (3 Bft) SW 215 0 min 0,0 UV-I 53 W/m 2,8 C -0,5 C 24,1 km/h (4 Bft)
20.01.2021 16:02 5,6 C 5,0 C 82 % 1001,5 hPa 0,0 l/m 14,8 km/h (3 Bft) S-SO 165 0 min 0,0 UV-I 48 W/m 2,8 C -0,1 C 27,4 km/h (4 Bft)
20.01.2021 16:04 5,7 C 4,4 C 82 % 1001,6 hPa 0,0 l/m 15,9 km/h (3 Bft) S 172 0 min 0,0 UV-I 44 W/m 2,9 C -0,5 C 25,7 km/h (4 Bft)
20.01.2021 16:06 5,7 C 4,4 C 82 % 1001,5 hPa 0,0 l/m 18,9 km/h (3 Bft) S 176 0 min 0,0 UV-I 41 W/m 2,9 C -1,8 C 30,6 km/h (5 Bft)
20.01.2021 16:08 5,7 C 4,4 C 82 % 1001,5 hPa 0,0 l/m 16,3 km/h (3 Bft) S 190 0 min 0,0 UV-I 39 W/m 2,9 C -0,7 C 27,4 km/h (4 Bft)
20.01.2021 16:10 5,6 C 4,4 C 82 % 1001,6 hPa 0,0 l/m 14,3 km/h (3 Bft) S-SW 206 0 min 0,0 UV-I 37 W/m 2,8 C 0,2 C 20,9 km/h (4 Bft)
20.01.2021 16:12 5,6 C 4,4 C 82 % 1001,6 hPa 0,0 l/m 14,4 km/h (3 Bft) S 188 0 min 0,0 UV-I 34 W/m 2,8 C 0,1 C 25,7 km/h (4 Bft)
20.01.2021 16:14 5,6 C 4,4 C 82 % 1001,6 hPa 0,0 l/m 17,8 km/h (3 Bft) SO 131 0 min 0,0 UV-I 32 W/m 2,8 C -1,5 C 27,4 km/h (4 Bft)
20.01.2021 16:16 5,6 C 4,4 C 82 % 1001,6 hPa 0,0 l/m 17,1 km/h (3 Bft) S-SO 167 0 min 0,0 UV-I 30 W/m 2,8 C -1,2 C 25,7 km/h (4 Bft)
20.01.2021 16:18 5,6 C 4,4 C 82 % 1001,5 hPa 0,0 l/m 15,3 km/h (3 Bft) SO 138 0 min 0,0 UV-I 27 W/m 2,8 C -0,3 C 20,9 km/h (4 Bft)
20.01.2021 16:20 5,6 C 4,4 C 82 % 1001,5 hPa 0,0 l/m 15,0 km/h (3 Bft) S-SW 198 0 min 0,0 UV-I 25 W/m 2,8 C -0,2 C 22,5 km/h (4 Bft)
20.01.2021 16:22 5,5 C 4,4 C 83 % 1001,5 hPa 0,0 l/m 13,9 km/h (3 Bft) S-SO 168 0 min 0,0 UV-I 24 W/m 2,8 C 0,3 C 20,9 km/h (4 Bft)
20.01.2021 16:24 5,5 C 4,4 C 83 % 1001,3 hPa 0,0 l/m 14,5 km/h (3 Bft) S 178 0 min 0,0 UV-I 23 W/m 2,8 C -0,1 C 25,7 km/h (4 Bft)
20.01.2021 16:26 5,4 C 4,4 C 83 % 1001,3 hPa 0,0 l/m 13,4 km/h (3 Bft) S 187 0 min 0,0 UV-I 22 W/m 2,7 C 0,4 C 27,4 km/h (4 Bft)
20.01.2021 16:28 5,4 C 4,4 C 83 % 1001,3 hPa 0,0 l/m 13,9 km/h (3 Bft) S-SO 163 0 min 0,0 UV-I 21 W/m 2,7 C 0,1 C 20,9 km/h (4 Bft)
20.01.2021 16:30 5,4 C 4,4 C 83 % 1001,3 hPa 0,0 l/m 13,1 km/h (3 Bft) S 175 0 min 0,0 UV-I 20 W/m 2,7 C 0,6 C 19,3 km/h (3 Bft)
20.01.2021 16:32 5,4 C 4,4 C 83 % 1001,3 hPa 0,0 l/m 12,4 km/h (3 Bft) S-SO 161 0 min 0,0 UV-I 19 W/m 2,7 C 1,0 C 25,7 km/h (4 Bft)
20.01.2021 16:34 5,4 C 4,4 C 84 % 1001,3 hPa 0,0 l/m 10,6 km/h (2 Bft) S 190 0 min 0,0 UV-I 18 W/m 2,9 C 2,1 C 19,3 km/h (3 Bft)
20.01.2021 16:36 5,3 C 3,9 C 84 % 1001,2 hPa 0,0 l/m 12,9 km/h (3 Bft) S 178 0 min 0,0 UV-I 16 W/m 2,8 C 0,6 C 19,3 km/h (3 Bft)
20.01.2021 16:38 5,3 C 3,9 C 84 % 1001,3 hPa 0,0 l/m 12,7 km/h (3 Bft) SO 142 0 min 0,0 UV-I 14 W/m 2,8 C 0,7 C 22,5 km/h (4 Bft)
20.01.2021 16:40 5,3 C 4,4 C 84 % 1001,3 hPa 0,0 l/m 15,0 km/h (3 Bft) S-SO 150 0 min 0,0 UV-I 13 W/m 2,8 C -0,6 C 22,5 km/h (4 Bft)
20.01.2021 16:42 5,4 C 4,4 C 84 % 1001,2 hPa 0,0 l/m 18,1 km/h (3 Bft) S-SO 161 0 min 0,0 UV-I 12 W/m 2,9 C -1,9 C 25,7 km/h (4 Bft)
20.01.2021 16:44 5,4 C 4,4 C 84 % 1001,3 hPa 0,0 l/m 15,2 km/h (3 Bft) S 188 0 min 0,0 UV-I 11 W/m 2,9 C -0,5 C 25,7 km/h (4 Bft)
20.01.2021 16:46 5,4 C 3,9 C 84 % 1001,3 hPa 0,0 l/m 13,8 km/h (3 Bft) S 173 0 min 0,0 UV-I 10 W/m 2,9 C 0,2 C 22,5 km/h (4 Bft)
20.01.2021 16:48 5,3 C 3,9 C 84 % 1001,3 hPa 0,0 l/m 13,6 km/h (3 Bft) S-SO 164 0 min 0,0 UV-I 9 W/m 2,8 C 0,2 C 22,5 km/h (4 Bft)
20.01.2021 16:50 5,3 C 3,9 C 84 % 1001,3 hPa 0,0 l/m 14,8 km/h (3 Bft) S 178 0 min 0,0 UV-I 8 W/m 2,8 C -0,5 C 29,0 km/h (5 Bft)
20.01.2021 16:52 5,3 C 3,9 C 85 % 1001,3 hPa 0,0 l/m 13,8 km/h (3 Bft) S 171 0 min 0,0 UV-I 7 W/m 3,0 C 0,1 C 20,9 km/h (4 Bft)
20.01.2021 16:54 5,4 C 4,4 C 85 % 1001,1 hPa 0,0 l/m 14,1 km/h (3 Bft) S-SO 152 0 min 0,0 UV-I 6 W/m 3,1 C 0,0 C 19,3 km/h (3 Bft)
20.01.2021 16:56 5,4 C 4,4 C 85 % 1001,1 hPa 0,0 l/m 18,9 km/h (3 Bft) S 180 0 min 0,0 UV-I 5 W/m 3,1 C -2,2 C 25,7 km/h (4 Bft)
20.01.2021 16:58 5,5 C 4,4 C 84 % 1001,2 hPa 0,0 l/m 16,1 km/h (3 Bft) S-SO 166 0 min 0,0 UV-I 5 W/m 3,0 C -0,9 C 25,7 km/h (4 Bft)
20.01.2021 17:00 5,6 C 4,4 C 84 % 1001,1 hPa 0,0 l/m 14,5 km/h (3 Bft) S 175 0 min 0,0 UV-I 3 W/m 3,1 C 0,1 C 20,9 km/h (4 Bft)
20.01.2021 17:02 5,5 C 4,4 C 84 % 1001,1 hPa 0,0 l/m 15,4 km/h (3 Bft) SO 140 0 min 0,0 UV-I 0 W/m 3,0 C -0,5 C 24,1 km/h (4 Bft)
20.01.2021 17:04 5,5 C 4,4 C 84 % 1001,0 hPa 0,0 l/m 13,9 km/h (3 Bft) S-SO 153 0 min 0,0 UV-I 0 W/m 3,0 C 0,3 C 20,9 km/h (4 Bft)
20.01.2021 17:06 5,4 C 3,9 C 84 % 1001,2 hPa 0,0 l/m 15,2 km/h (3 Bft) S-SO 161 0 min 0,0 UV-I 0 W/m 2,9 C -0,5 C 25,7 km/h (4 Bft)
20.01.2021 17:08 5,4 C 3,9 C 84 % 1001,1 hPa 0,0 l/m 10,8 km/h (2 Bft) S 182 0 min 0,0 UV-I 0 W/m 2,9 C 2,0 C 16,1 km/h (3 Bft)
20.01.2021 17:10 5,3 C 3,9 C 85 % 1001,2 hPa 0,0 l/m 11,9 km/h (2 Bft) S 180 0 min 0,0 UV-I 0 W/m 3,0 C 1,2 C 17,7 km/h (3 Bft)
20.01.2021 17:12 5,3 C 3,9 C 85 % 1001,2 hPa 0,0 l/m 14,2 km/h (3 Bft) S 171 0 min 0,0 UV-I 0 W/m 3,0 C -0,1 C 22,5 km/h (4 Bft)
20.01.2021 17:14 5,4 C 3,9 C 85 % 1001,3 hPa 0,0 l/m 11,7 km/h (2 Bft) S-SO 166 0 min 0,0 UV-I 0 W/m 3,1 C 1,4 C 17,7 km/h (3 Bft)
20.01.2021 17:16 5,3 C 3,9 C 85 % 1001,3 hPa 0,0 l/m 13,0 km/h (3 Bft) S 176 0 min 0,0 UV-I 0 W/m 3,0 C 0,5 C 20,9 km/h (4 Bft)
20.01.2021 17:18 5,3 C 3,9 C 85 % 1001,4 hPa 0,0 l/m 12,9 km/h (3 Bft) SO 146 0 min 0,0 UV-I 0 W/m 3,0 C 0,6 C 19,3 km/h (3 Bft)
20.01.2021 17:20 5,3 C 3,9 C 85 % 1001,2 hPa 0,0 l/m 9,2 km/h (2 Bft) S-SW 201 0 min 0,0 UV-I 0 W/m 3,0 C 3,0 C 17,7 km/h (3 Bft)
20.01.2021 17:22 5,4 C 4,4 C 85 % 1001,2 hPa 0,0 l/m 12,8 km/h (3 Bft) S-SO 147 0 min 0,0 UV-I 0 W/m 3,1 C 0,7 C 17,7 km/h (3 Bft)
20.01.2021 17:24 5,4 C 3,9 C 85 % 1001,1 hPa 0,0 l/m 13,1 km/h (3 Bft) S-SO 159 0 min 0,0 UV-I 0 W/m 3,1 C 0,6 C 19,3 km/h (3 Bft)
20.01.2021 17:26 5,4 C 3,9 C 85 % 1001,2 hPa 0,0 l/m 8,4 km/h (2 Bft) S 173 0 min 0,0 UV-I 0 W/m 3,1 C 3,7 C 14,5 km/h (3 Bft)
20.01.2021 17:28 5,4 C 3,9 C 85 % 1001,1 hPa 0,0 l/m 11,5 km/h (2 Bft) S-SO 165 0 min 0,0 UV-I 0 W/m 3,1 C 1,5 C 17,7 km/h (3 Bft)
20.01.2021 17:30 5,4 C 4,4 C 86 % 1001,1 hPa 0,0 l/m 12,9 km/h (3 Bft) SO 145 0 min 0,0 UV-I 0 W/m 3,3 C 0,7 C 24,1 km/h (4 Bft)
20.01.2021 17:32 5,4 C 4,4 C 86 % 1001,2 hPa 0,0 l/m 13,9 km/h (3 Bft) S-SW 193 0 min 0,0 UV-I 0 W/m 3,3 C 0,1 C 20,9 km/h (4 Bft)
20.01.2021 17:34 5,4 C 3,9 C 86 % 1001,1 hPa 0,0 l/m 10,9 km/h (2 Bft) S 172 0 min 0,0 UV-I 0 W/m 3,3 C 1,9 C 19,3 km/h (3 Bft)
20.01.2021 17:36 5,4 C 3,9 C 85 % 1001,1 hPa 0,0 l/m 9,2 km/h (2 Bft) S 180 0 min 0,0 UV-I 0 W/m 3,1 C 3,1 C 14,5 km/h (3 Bft)
20.01.2021 17:38 5,3 C 3,9 C 85 % 1001,1 hPa 0,0 l/m 7,6 km/h (2 Bft) S 174 0 min 0,0 UV-I 0 W/m 3,0 C 4,3 C 14,5 km/h (3 Bft)
20.01.2021 17:40 5,3 C 3,9 C 86 % 1001,1 hPa 0,0 l/m 10,2 km/h (2 Bft) S-SO 149 0 min 0,0 UV-I 0 W/m 3,2 C 2,3 C 16,1 km/h (3 Bft)
20.01.2021 17:42 5,3 C 3,9 C 86 % 1000,9 hPa 0,0 l/m 14,8 km/h (3 Bft) S 180 0 min 0,0 UV-I 0 W/m 3,2 C -0,5 C 24,1 km/h (4 Bft)
20.01.2021 17:44 5,3 C 4,4 C 86 % 1000,9 hPa 0,0 l/m 13,5 km/h (3 Bft) S-SO 148 0 min 0,0 UV-I 0 W/m 3,2 C 0,2 C 22,5 km/h (4 Bft)
20.01.2021 17:46 5,4 C 4,4 C 86 % 1000,9 hPa 0,0 l/m 16,3 km/h (3 Bft) S-SO 166 0 min 0,0 UV-I 0 W/m 3,3 C -1,1 C 22,5 km/h (4 Bft)
20.01.2021 17:48 5,4 C 4,4 C 86 % 1000,9 hPa 0,0 l/m 17,6 km/h (3 Bft) SO 124 0 min 0,0 UV-I 0 W/m 3,3 C -1,7 C 24,1 km/h (4 Bft)
20.01.2021 17:50 5,5 C 4,4 C 86 % 1000,9 hPa 0,0 l/m 9,8 km/h (2 Bft) S-SO 150 0 min 0,0 UV-I 0 W/m 3,3 C 2,8 C 14,5 km/h (3 Bft)
20.01.2021 17:52 5,4 C 4,4 C 86 % 1000,8 hPa 0,0 l/m 17,2 km/h (3 Bft) SO 142 0 min 0,0 UV-I 0 W/m 3,3 C -1,5 C 27,4 km/h (4 Bft)
20.01.2021 17:54 5,4 C 4,4 C 86 % 1000,7 hPa 0,0 l/m 15,9 km/h (3 Bft) S-SO 149 0 min 0,0 UV-I 0 W/m 3,3 C -0,9 C 22,5 km/h (4 Bft)
20.01.2021 17:56 5,4 C 4,4 C 86 % 1000,7 hPa 0,0 l/m 15,9 km/h (3 Bft) SO 131 0 min 0,0 UV-I 0 W/m 3,3 C -0,9 C 25,7 km/h (4 Bft)
20.01.2021 17:58 5,4 C 3,9 C 86 % 1000,7 hPa 0,0 l/m 13,5 km/h (3 Bft) S-SO 161 0 min 0,0 UV-I 0 W/m 3,3 C 0,4 C 25,7 km/h (4 Bft)
20.01.2021 18:00 5,4 C 3,9 C 86 % 1000,8 hPa 0,0 l/m 14,9 km/h (3 Bft) S 170 0 min 0,0 UV-I 0 W/m 3,3 C -0,4 C 30,6 km/h (5 Bft)
20.01.2021 18:02 5,4 C 4,4 C 86 % 1000,7 hPa 0,0 l/m 10,8 km/h (2 Bft) S 179 0 min 0,0 UV-I 0 W/m 3,3 C 2,0 C 22,5 km/h (4 Bft)
20.01.2021 18:04 5,4 C 3,9 C 86 % 1000,7 hPa 0,0 l/m 16,1 km/h (3 Bft) S 186 0 min 0,0 UV-I 0 W/m 3,3 C -1,0 C 22,5 km/h (4 Bft)
20.01.2021 18:06 5,3 C 3,9 C 86 % 1000,6 hPa 0,0 l/m 12,0 km/h (2 Bft) S-SO 168 0 min 0,0 UV-I 0 W/m 3,2 C 1,1 C 27,4 km/h (4 Bft)
20.01.2021 18:08 5,3 C 3,9 C 86 % 1000,8 hPa 0,0 l/m 16,1 km/h (3 Bft) S-SO 164 0 min 0,0 UV-I 0 W/m 3,2 C -1,1 C 22,5 km/h (4 Bft)
20.01.2021 18:10 5,3 C 3,9 C 86 % 1000,6 hPa 0,0 l/m 15,5 km/h (3 Bft) SO 144 0 min 0,0 UV-I 0 W/m 3,2 C -0,8 C 29,0 km/h (5 Bft)
20.01.2021 18:12 5,3 C 3,9 C 87 % 1000,7 hPa 0,0 l/m 17,1 km/h (3 Bft) S 183 0 min 0,0 UV-I 0 W/m 3,3 C -1,6 C 27,4 km/h (4 Bft)
20.01.2021 18:14 5,4 C 3,9 C 87 % 1000,8 hPa 0,0 l/m 15,8 km/h (3 Bft) S-SO 162 0 min 0,0 UV-I 0 W/m 3,4 C -0,8 C 22,5 km/h (4 Bft)
20.01.2021 18:16 5,4 C 4,4 C 87 % 1000,7 hPa 0,0 l/m 17,9 km/h (3 Bft) SO 144 0 min 0,0 UV-I 0 W/m 3,4 C -1,8 C 27,4 km/h (4 Bft)
20.01.2021 18:18 5,5 C 4,4 C 87 % 1000,7 hPa 0,0 l/m 18,7 km/h (3 Bft) SO 146 0 min 0,0 UV-I 0 W/m 3,5 C -2,0 C 27,4 km/h (4 Bft)
20.01.2021 18:20 5,5 C 3,9 C 87 % 1000,7 hPa 0,0 l/m 14,9 km/h (3 Bft) SO 128 0 min 0,0 UV-I 0 W/m 3,5 C -0,3 C 22,5 km/h (4 Bft)
20.01.2021 18:22 5,5 C 4,4 C 87 % 1000,6 hPa 0,0 l/m 16,8 km/h (3 Bft) SO 126 0 min 0,0 UV-I 0 W/m 3,5 C -1,2 C 24,1 km/h (4 Bft)
20.01.2021 18:24 5,4 C 4,4 C 87 % 1000,7 hPa 0,0 l/m 13,7 km/h (3 Bft) SO 146 0 min 0,0 UV-I 0 W/m 3,4 C 0,2 C 19,3 km/h (3 Bft)
20.01.2021 18:26 5,4 C 3,9 C 87 % 1000,7 hPa 0,0 l/m 18,4 km/h (3 Bft) S-SO 157 0 min 0,0 UV-I 0 W/m 3,4 C -2,0 C 30,6 km/h (5 Bft)
20.01.2021 18:28 5,5 C 4,4 C 87 % 1000,7 hPa 0,0 l/m 20,2 km/h (4 Bft) S-SO 152 0 min 0,0 UV-I 0 W/m 3,5 C -2,6 C 30,6 km/h (5 Bft)
20.01.2021 18:30 5,5 C 4,4 C 87 % 1000,6 hPa 0,0 l/m 14,1 km/h (3 Bft) SO 144 0 min 0,0 UV-I 0 W/m 3,5 C 0,1 C 20,9 km/h (4 Bft)
20.01.2021 18:32 5,4 C 4,4 C 87 % 1000,7 hPa 0,0 l/m 13,0 km/h (3 Bft) SO 138 0 min 0,0 UV-I 0 W/m 3,4 C 0,6 C 19,3 km/h (3 Bft)
20.01.2021 18:34 5,4 C 3,9 C 87 % 1000,6 hPa 0,0 l/m 13,7 km/h (3 Bft) SO 139 0 min 0,0 UV-I 0 W/m 3,4 C 0,2 C 22,5 km/h (4 Bft)
20.01.2021 18:36 5,4 C 3,9 C 87 % 1000,5 hPa 0,0 l/m 15,6 km/h (3 Bft) S-SW 195 0 min 0,0 UV-I 0 W/m 3,4 C -0,7 C 24,1 km/h (4 Bft)
20.01.2021 18:38 5,5 C 4,4 C 87 % 1000,5 hPa 0,0 l/m 15,4 km/h (3 Bft) S-SO 153 0 min 0,0 UV-I 0 W/m 3,5 C -0,5 C 22,5 km/h (4 Bft)
20.01.2021 18:40 5,4 C 4,4 C 87 % 1000,5 hPa 0,0 l/m 14,5 km/h (3 Bft) S-SO 155 0 min 0,0 UV-I 0 W/m 3,4 C -0,2 C 20,9 km/h (4 Bft)
20.01.2021 18:42 5,4 C 4,4 C 87 % 1000,5 hPa 0,0 l/m 15,7 km/h (3 Bft) SO 138 0 min 0,0 UV-I 0 W/m 3,4 C -0,8 C 25,7 km/h (4 Bft)
20.01.2021 18:44 5,4 C 3,9 C 87 % 1000,5 hPa 0,0 l/m 14,8 km/h (3 Bft) S-SO 147 0 min 0,0 UV-I 0 W/m 3,4 C -0,3 C 27,4 km/h (4 Bft)
20.01.2021 18:46 5,4 C 4,4 C 87 % 1000,5 hPa 0,0 l/m 15,1 km/h (3 Bft) S-SO 159 0 min 0,0 UV-I 0 W/m 3,4 C -0,5 C 22,5 km/h (4 Bft)
20.01.2021 18:48 5,4 C 3,9 C 87 % 1000,4 hPa 0,0 l/m 11,6 km/h (2 Bft) S 172 0 min 0,0 UV-I 0 W/m 3,4 C 1,5 C 16,1 km/h (3 Bft)
20.01.2021 18:50 5,3 C 3,9 C 87 % 1000,5 hPa 0,0 l/m 10,1 km/h (2 Bft) S 180 0 min 0,0 UV-I 0 W/m 3,3 C 2,3 C 19,3 km/h (3 Bft)
20.01.2021 18:52 5,3 C 3,9 C 87 % 1000,5 hPa 0,0 l/m 12,9 km/h (3 Bft) S 170 0 min 0,0 UV-I 0 W/m 3,3 C 0,6 C 20,9 km/h (4 Bft)
20.01.2021 18:54 5,3 C 3,9 C 87 % 1000,4 hPa 0,0 l/m 14,6 km/h (3 Bft) S 181 0 min 0,0 UV-I 0 W/m 3,3 C -0,4 C 22,5 km/h (4 Bft)
20.01.2021 18:56 5,3 C 3,9 C 87 % 1000,5 hPa 0,0 l/m 16,6 km/h (3 Bft) SO 142 0 min 0,0 UV-I 0 W/m 3,3 C -1,3 C 25,7 km/h (4 Bft)
20.01.2021 18:58 5,3 C 3,9 C 87 % 1000,4 hPa 0,0 l/m 12,2 km/h (2 Bft) S-SO 161 0 min 0,0 UV-I 0 W/m 3,3 C 1,0 C 19,3 km/h (3 Bft)
20.01.2021 19:00 5,3 C 4,4 C 87 % 1000,4 hPa 0,0 l/m 16,6 km/h (3 Bft) S-SO 166 0 min 0,0 UV-I 0 W/m 3,3 C -1,3 C 25,7 km/h (4 Bft)
20.01.2021 19:02 5,4 C 4,4 C 87 % 1000,4 hPa 0,0 l/m 17,1 km/h (3 Bft) S 175 0 min 0,0 UV-I 0 W/m 3,4 C -1,4 C 25,7 km/h (4 Bft)
20.01.2021 19:04 5,4 C 4,4 C 87 % 1000,4 hPa 0,0 l/m 14,6 km/h (3 Bft) S-SO 165 0 min 0,0 UV-I 0 W/m 3,4 C -0,2 C 22,5 km/h (4 Bft)
20.01.2021 19:06 5,4 C 4,4 C 87 % 1000,3 hPa 0,0 l/m 16,2 km/h (3 Bft) S-SW 196 0 min 0,0 UV-I 0 W/m 3,4 C -1,0 C 24,1 km/h (4 Bft)
20.01.2021 19:08 5,4 C 4,4 C 87 % 1000,4 hPa 0,0 l/m 14,1 km/h (3 Bft) S-SW 194 0 min 0,0 UV-I 0 W/m 3,4 C 0,0 C 24,1 km/h (4 Bft)
20.01.2021 19:10 5,4 C 3,9 C 87 % 1000,3 hPa 0,0 l/m 14,6 km/h (3 Bft) S 175 0 min 0,0 UV-I 0 W/m 3,4 C -0,2 C 24,1 km/h (4 Bft)
20.01.2021 19:12 5,4 C 4,4 C 87 % 1000,2 hPa 0,0 l/m 16,9 km/h (3 Bft) S 179 0 min 0,0 UV-I 0 W/m 3,4 C -1,3 C 27,4 km/h (4 Bft)
20.01.2021 19:14 5,4 C 4,4 C 87 % 1000,3 hPa 0,0 l/m 14,2 km/h (3 Bft) S 183 0 min 0,0 UV-I 0 W/m 3,4 C -0,0 C 20,9 km/h (4 Bft)
20.01.2021 19:16 5,4 C 4,4 C 87 % 1000,3 hPa 0,0 l/m 18,5 km/h (3 Bft) S 188 0 min 0,0 UV-I 0 W/m 3,4 C -2,0 C 25,7 km/h (4 Bft)
20.01.2021 19:18 5,4 C 4,4 C 86 % 1000,2 hPa 0,0 l/m 11,2 km/h (2 Bft) S-SO 161 0 min 0,0 UV-I 0 W/m 3,3 C 1,7 C 17,7 km/h (3 Bft)
20.01.2021 19:20 5,4 C 3,9 C 87 % 1000,2 hPa 0,0 l/m 15,5 km/h (3 Bft) S-SO 153 0 min 0,0 UV-I 0 W/m 3,4 C -0,7 C 22,5 km/h (4 Bft)
20.01.2021 19:22 5,4 C 4,4 C 87 % 1000,1 hPa 0,0 l/m 18,4 km/h (3 Bft) S-SO 154 0 min 0,0 UV-I 0 W/m 3,4 C -2,0 C 30,6 km/h (5 Bft)
20.01.2021 19:24 5,5 C 4,4 C 87 % 1000,2 hPa 0,0 l/m 11,9 km/h (2 Bft) SO 141 0 min 0,0 UV-I 0 W/m 3,5 C 1,4 C 19,3 km/h (3 Bft)
20.01.2021 19:26 5,5 C 4,4 C 87 % 1000,1 hPa 0,0 l/m 15,3 km/h (3 Bft) S-SO 161 0 min 0,0 UV-I 0 W/m 3,5 C -0,5 C 25,7 km/h (4 Bft)
20.01.2021 19:28 5,6 C 4,4 C 87 % 1000,0 hPa 0,0 l/m 14,9 km/h (3 Bft) S 185 0 min 0,0 UV-I 0 W/m 3,6 C -0,1 C 24,1 km/h (4 Bft)
20.01.2021 19:30 5,6 C 4,4 C 87 % 1000,0 hPa 0,0 l/m 14,0 km/h (3 Bft) S-SO 150 0 min 0,0 UV-I 0 W/m 3,6 C 0,3 C 24,1 km/h (4 Bft)
20.01.2021 19:32 5,6 C 4,4 C 87 % 1000,0 hPa 0,0 l/m 15,4 km/h (3 Bft) S 169 0 min 0,0 UV-I 0 W/m 3,6 C -0,4 C 32,2 km/h (5 Bft)
20.01.2021 19:34 5,6 C 4,4 C 87 % 1000,0 hPa 0,0 l/m 16,0 km/h (3 Bft) SO 142 0 min 0,0 UV-I 0 W/m 3,6 C -0,7 C 25,7 km/h (4 Bft)
20.01.2021 19:36 5,7 C 4,4 C 87 % 1000,1 hPa 0,0 l/m 16,9 km/h (3 Bft) S-SO 163 0 min 0,0 UV-I 0 W/m 3,7 C -1,0 C 25,7 km/h (4 Bft)
20.01.2021 19:38 5,7 C 4,4 C 86 % 1000,0 hPa 0,0 l/m 11,6 km/h (2 Bft) S-SW 204 0 min 0,0 UV-I 0 W/m 3,5 C 1,8 C 16,1 km/h (3 Bft)
20.01.2021 19:40 5,7 C 4,4 C 86 % 1000,0 hPa 0,0 l/m 13,2 km/h (3 Bft) S-SO 156 0 min 0,0 UV-I 0 W/m 3,5 C 0,9 C 22,5 km/h (4 Bft)
20.01.2021 19:42 5,6 C 4,4 C 86 % 1000,0 hPa 0,0 l/m 12,6 km/h (3 Bft) S-SO 167 0 min 0,0 UV-I 0 W/m 3,4 C 1,1 C 19,3 km/h (3 Bft)
20.01.2021 19:44 5,6 C 4,4 C 87 % 999,9 hPa 0,0 l/m 14,3 km/h (3 Bft) S 182 0 min 0,0 UV-I 0 W/m 3,6 C 0,2 C 22,5 km/h (4 Bft)
20.01.2021 19:46 5,6 C 4,4 C 86 % 1000,0 hPa 0,0 l/m 11,7 km/h (2 Bft) SO 142 0 min 0,0 UV-I 0 W/m 3,4 C 1,6 C 17,7 km/h (3 Bft)
20.01.2021 19:48 5,5 C 3,9 C 86 % 999,9 hPa 0,0 l/m 10,4 km/h (2 Bft) S-SO 167 0 min 0,0 UV-I 0 W/m 3,3 C 2,4 C 19,3 km/h (3 Bft)
20.01.2021 19:50 5,6 C 4,4 C 86 % 999,9 hPa 0,0 l/m 14,1 km/h (3 Bft) S-SO 163 0 min 0,0 UV-I 0 W/m 3,4 C 0,3 C 24,1 km/h (4 Bft)
20.01.2021 19:52 5,6 C 4,4 C 87 % 999,8 hPa 0,0 l/m 13,7 km/h (3 Bft) S-SO 155 0 min 0,0 UV-I 0 W/m 3,6 C 0,5 C 22,5 km/h (4 Bft)
20.01.2021 19:54 5,7 C 4,4 C 87 % 999,9 hPa 0,0 l/m 15,0 km/h (3 Bft) S-SO 161 0 min 0,0 UV-I 0 W/m 3,7 C -0,1 C 19,3 km/h (3 Bft)
20.01.2021 19:56 5,6 C 4,4 C 86 % 999,9 hPa 0,0 l/m 10,3 km/h (2 Bft) S 180 0 min 0,0 UV-I 0 W/m 3,4 C 2,5 C 17,7 km/h (3 Bft)
20.01.2021 19:58 5,6 C 4,4 C 86 % 999,8 hPa 0,0 l/m 16,1 km/h (3 Bft) S-SO 150 0 min 0,0 UV-I 0 W/m 3,4 C -0,7 C 32,2 km/h (5 Bft)
20.01.2021 20:00 5,7 C 4,4 C 87 % 999,8 hPa 0,0 l/m 17,8 km/h (3 Bft) S 181 0 min 0,0 UV-I 0 W/m 3,7 C -1,4 C 27,4 km/h (4 Bft)
20.01.2021 20:02 5,7 C 4,4 C 86 % 999,8 hPa 0,0 l/m 15,3 km/h (3 Bft) S-SO 165 0 min 0,0 UV-I 0 W/m 3,5 C -0,2 C 24,1 km/h (4 Bft)
20.01.2021 20:04 5,7 C 4,4 C 86 % 999,7 hPa 0,0 l/m 16,8 km/h (3 Bft) S-SO 157 0 min 0,0 UV-I 0 W/m 3,5 C -0,9 C 24,1 km/h (4 Bft)
20.01.2021 20:06 5,7 C 4,4 C 86 % 999,7 hPa 0,0 l/m 16,8 km/h (3 Bft) S-SO 168 0 min 0,0 UV-I 0 W/m 3,5 C -0,9 C 25,7 km/h (4 Bft)
20.01.2021 20:08 5,7 C 4,4 C 86 % 999,7 hPa 0,0 l/m 12,8 km/h (3 Bft) O-SO 122 0 min 0,0 UV-I 0 W/m 3,5 C 1,1 C 20,9 km/h (4 Bft)
20.01.2021 20:10 5,7 C 4,4 C 86 % 999,7 hPa 0,0 l/m 21,4 km/h (4 Bft) S-SO 150 0 min 0,0 UV-I 0 W/m 3,5 C -2,8 C 33,8 km/h (5 Bft)
20.01.2021 20:12 5,7 C 4,4 C 86 % 999,6 hPa 0,0 l/m 18,6 km/h (3 Bft) S 170 0 min 0,0 UV-I 0 W/m 3,5 C -1,7 C 33,8 km/h (5 Bft)
20.01.2021 20:14 5,8 C 4,4 C 86 % 999,6 hPa 0,0 l/m 17,7 km/h (3 Bft) S-SO 163 0 min 0,0 UV-I 0 W/m 3,6 C -1,2 C 32,2 km/h (5 Bft)
20.01.2021 20:16 5,7 C 4,4 C 86 % 999,6 hPa 0,0 l/m 18,0 km/h (3 Bft) SO 146 0 min 0,0 UV-I 0 W/m 3,5 C -1,5 C 30,6 km/h (5 Bft)
20.01.2021 20:18 5,8 C 4,4 C 86 % 999,6 hPa 0,0 l/m 22,2 km/h (4 Bft) S-SO 157 0 min 0,0 UV-I 0 W/m 3,6 C -2,9 C 33,8 km/h (5 Bft)
20.01.2021 20:20 5,8 C 4,4 C 86 % 999,5 hPa 0,0 l/m 19,9 km/h (4 Bft) S-SO 151 0 min 0,0 UV-I 0 W/m 3,6 C -2,1 C 33,8 km/h (5 Bft)
20.01.2021 20:22 5,8 C 5,0 C 86 % 999,5 hPa 0,0 l/m 18,3 km/h (3 Bft) SO 139 0 min 0,0 UV-I 0 W/m 3,6 C -1,5 C 24,1 km/h (4 Bft)
20.01.2021 20:24 5,8 C 4,4 C 85 % 999,5 hPa 0,0 l/m 23,5 km/h (4 Bft) S-SO 157 0 min 0,0 UV-I 0 W/m 3,5 C -3,4 C 37,0 km/h (5 Bft)
20.01.2021 20:26 5,9 C 4,4 C 85 % 999,3 hPa 0,0 l/m 20,1 km/h (4 Bft) S 170 0 min 0,0 UV-I 0 W/m 3,6 C -2,0 C 32,2 km/h (5 Bft)
20.01.2021 20:28 5,9 C 5,0 C 85 % 999,3 hPa 0,0 l/m 25,0 km/h (4 Bft) SO 130 0 min 0,0 UV-I 0 W/m 3,6 C -3,7 C 41,8 km/h (6 Bft)
20.01.2021 20:30 5,9 C 5,0 C 85 % 999,3 hPa 0,0 l/m 23,7 km/h (4 Bft) S-SO 166 0 min 0,0 UV-I 0 W/m 3,6 C -3,3 C 38,6 km/h (5 Bft)
20.01.2021 20:32 5,9 C 4,4 C 85 % 999,3 hPa 0,0 l/m 22,2 km/h (4 Bft) SO 144 0 min 0,0 UV-I 0 W/m 3,6 C -2,8 C 33,8 km/h (5 Bft)
20.01.2021 20:34 5,9 C 4,4 C 85 % 999,3 hPa 0,0 l/m 20,3 km/h (4 Bft) SO 139 0 min 0,0 UV-I 0 W/m 3,6 C -2,1 C 35,4 km/h (5 Bft)
20.01.2021 20:36 5,9 C 5,0 C 85 % 999,3 hPa 0,0 l/m 25,0 km/h (4 Bft) SO 141 0 min 0,0 UV-I 0 W/m 3,6 C -3,7 C 35,4 km/h (5 Bft)
20.01.2021 20:38 5,9 C 4,4 C 85 % 999,2 hPa 0,0 l/m 19,0 km/h (3 Bft) S 175 0 min 0,0 UV-I 0 W/m 3,6 C -1,6 C 27,4 km/h (4 Bft)
20.01.2021 20:40 5,9 C 4,4 C 85 % 999,3 hPa 0,0 l/m 22,5 km/h (4 Bft) S-SO 162 0 min 0,0 UV-I 0 W/m 3,6 C -2,9 C 35,4 km/h (5 Bft)
20.01.2021 20:42 5,9 C 4,4 C 85 % 999,3 hPa 0,0 l/m 20,4 km/h (4 Bft) S 178 0 min 0,0 UV-I 0 W/m 3,6 C -2,2 C 29,0 km/h (5 Bft)
20.01.2021 20:44 5,9 C 4,4 C 85 % 999,3 hPa 0,0 l/m 17,5 km/h (3 Bft) S-SO 163 0 min 0,0 UV-I 0 W/m 3,6 C -1,0 C 29,0 km/h (5 Bft)
20.01.2021 20:46 5,9 C 5,0 C 85 % 999,3 hPa 0,0 l/m 18,4 km/h (3 Bft) S-SO 163 0 min 0,0 UV-I 0 W/m 3,6 C -1,4 C 27,4 km/h (4 Bft)
20.01.2021 20:48 5,9 C 5,0 C 85 % 999,3 hPa 0,0 l/m 21,3 km/h (4 Bft) S 170 0 min 0,0 UV-I 0 W/m 3,6 C -2,5 C 30,6 km/h (5 Bft)
20.01.2021 20:50 5,9 C 5,0 C 85 % 999,3 hPa 0,0 l/m 19,6 km/h (3 Bft) S-SO 153 0 min 0,0 UV-I 0 W/m 3,6 C -1,9 C 33,8 km/h (5 Bft)
20.01.2021 20:52 5,9 C 5,0 C 85 % 999,3 hPa 0,0 l/m 27,6 km/h (4 Bft) S-SO 166 0 min 0,0 UV-I 0 W/m 3,6 C -4,5 C 43,5 km/h (6 Bft)
20.01.2021 20:54 5,9 C 5,0 C 85 % 999,2 hPa 0,0 l/m 20,1 km/h (4 Bft) S 175 0 min 0,0 UV-I 0 W/m 3,6 C -2,0 C 37,0 km/h (5 Bft)
20.01.2021 20:56 5,9 C 4,4 C 85 % 999,2 hPa 0,0 l/m 18,9 km/h (3 Bft) S 179 0 min 0,0 UV-I 0 W/m 3,6 C -1,6 C 33,8 km/h (5 Bft)
20.01.2021 20:58 5,9 C 4,4 C 85 % 999,2 hPa 0,0 l/m 18,0 km/h (3 Bft) S 175 0 min 0,0 UV-I 0 W/m 3,6 C -1,2 C 35,4 km/h (5 Bft)
20.01.2021 21:00 5,9 C 4,4 C 85 % 999,1 hPa 0,0 l/m 19,7 km/h (3 Bft) SO 146 0 min 0,0 UV-I 0 W/m 3,6 C -1,9 C 30,6 km/h (5 Bft)
20.01.2021 21:02 5,9 C 4,4 C 85 % 999,2 hPa 0,0 l/m 23,1 km/h (4 Bft) O 95 0 min 0,0 UV-I 0 W/m 3,6 C -3,1 C 33,8 km/h (5 Bft)
20.01.2021 21:04 5,9 C 4,4 C 85 % 999,2 hPa 0,0 l/m 22,1 km/h (4 Bft) S-SO 159 0 min 0,0 UV-I 0 W/m 3,6 C -2,8 C 30,6 km/h (5 Bft)
20.01.2021 21:06 5,9 C 4,4 C 85 % 999,1 hPa 0,0 l/m 23,7 km/h (4 Bft) S-SW 192 0 min 0,0 UV-I 0 W/m 3,6 C -3,3 C 37,0 km/h (5 Bft)
20.01.2021 21:08 5,9 C 4,4 C 85 % 999,2 hPa 0,0 l/m 20,0 km/h (4 Bft) SO 141 0 min 0,0 UV-I 0 W/m 3,6 C -2,0 C 33,8 km/h (5 Bft)
20.01.2021 21:10 5,9 C 4,4 C 85 % 999,0 hPa 0,0 l/m 20,5 km/h (4 Bft) SO 138 0 min 0,0 UV-I 0 W/m 3,6 C -2,2 C 29,0 km/h (5 Bft)
20.01.2021 21:12 5,8 C 4,4 C 85 % 999,1 hPa 0,0 l/m 20,7 km/h (4 Bft) S 170 0 min 0,0 UV-I 0 W/m 3,5 C -2,4 C 38,6 km/h (5 Bft)
20.01.2021 21:14 5,8 C 4,4 C 85 % 999,1 hPa 0,0 l/m 22,6 km/h (4 Bft) S-SW 197 0 min 0,0 UV-I 0 W/m 3,5 C -3,1 C 37,0 km/h (5 Bft)
20.01.2021 21:16 5,8 C 4,4 C 85 % 998,8 hPa 0,0 l/m 18,0 km/h (3 Bft) S-SW 196 0 min 0,0 UV-I 0 W/m 3,5 C -1,3 C 29,0 km/h (5 Bft)
20.01.2021 21:18 5,8 C 4,4 C 85 % 998,9 hPa 0,0 l/m 21,1 km/h (4 Bft) S 173 0 min 0,0 UV-I 0 W/m 3,5 C -2,6 C 37,0 km/h (5 Bft)
20.01.2021 21:20 5,8 C 4,4 C 85 % 998,8 hPa 0,0 l/m 19,3 km/h (3 Bft) S 188 0 min 0,0 UV-I 0 W/m 3,5 C -1,9 C 29,0 km/h (5 Bft)
20.01.2021 21:22 5,8 C 4,4 C 85 % 998,8 hPa 0,0 l/m 17,0 km/h (3 Bft) SO 138 0 min 0,0 UV-I 0 W/m 3,5 C -0,9 C 24,1 km/h (4 Bft)
20.01.2021 21:24 5,8 C 4,4 C 85 % 998,8 hPa 0,0 l/m 17,3 km/h (3 Bft) S-SW 193 0 min 0,0 UV-I 0 W/m 3,5 C -1,0 C 25,7 km/h (4 Bft)
20.01.2021 21:26 5,8 C 4,4 C 85 % 998,8 hPa 0,0 l/m 12,2 km/h (2 Bft) S 169 0 min 0,0 UV-I 0 W/m 3,5 C 1,6 C 17,7 km/h (3 Bft)
20.01.2021 21:28 5,7 C 4,4 C 85 % 998,8 hPa 0,0 l/m 17,0 km/h (3 Bft) S 180 0 min 0,0 UV-I 0 W/m 3,4 C -1,0 C 29,0 km/h (5 Bft)
20.01.2021 21:30 5,7 C 4,4 C 85 % 998,7 hPa 0,0 l/m 16,4 km/h (3 Bft) S 169 0 min 0,0 UV-I 0 W/m 3,4 C -0,7 C 22,5 km/h (4 Bft)
20.01.2021 21:32 5,8 C 4,4 C 85 % 998,7 hPa 0,0 l/m 19,6 km/h (3 Bft) S-SO 161 0 min 0,0 UV-I 0 W/m 3,5 C -2,0 C 33,8 km/h (5 Bft)
20.01.2021 21:34 5,8 C 4,4 C 85 % 998,8 hPa 0,0 l/m 23,3 km/h (4 Bft) S 170 0 min 0,0 UV-I 0 W/m 3,5 C -3,3 C 41,8 km/h (6 Bft)
20.01.2021 21:36 5,8 C 5,0 C 85 % 998,7 hPa 0,0 l/m 14,8 km/h (3 Bft) S-SW 196 0 min 0,0 UV-I 0 W/m 3,5 C 0,1 C 25,7 km/h (4 Bft)
20.01.2021 21:38 5,8 C 4,4 C 85 % 998,8 hPa 0,0 l/m 15,3 km/h (3 Bft) S-SO 150 0 min 0,0 UV-I 0 W/m 3,5 C -0,1 C 27,4 km/h (4 Bft)
20.01.2021 21:40 5,8 C 4,4 C 85 % 998,7 hPa 0,0 l/m 16,6 km/h (3 Bft) S-SO 151 0 min 0,0 UV-I 0 W/m 3,5 C -0,7 C 27,4 km/h (4 Bft)
20.01.2021 21:42 5,8 C 4,4 C 85 % 998,6 hPa 0,0 l/m 15,6 km/h (3 Bft) S-SO 150 0 min 0,0 UV-I 0 W/m 3,5 C -0,2 C 25,7 km/h (4 Bft)
20.01.2021 21:44 5,8 C 4,4 C 85 % 998,6 hPa 0,0 l/m 15,3 km/h (3 Bft) S-SO 158 0 min 0,0 UV-I 0 W/m 3,5 C -0,1 C 27,4 km/h (4 Bft)
20.01.2021 21:46 5,8 C 4,4 C 85 % 998,7 hPa 0,0 l/m 16,9 km/h (3 Bft) S-SO 158 0 min 0,0 UV-I 0 W/m 3,5 C -0,9 C 24,1 km/h (4 Bft)
20.01.2021 21:48 5,8 C 4,4 C 85 % 998,5 hPa 0,0 l/m 13,4 km/h (3 Bft) S-SO 149 0 min 0,0 UV-I 0 W/m 3,5 C 0,9 C 20,9 km/h (4 Bft)
20.01.2021 21:50 5,8 C 4,4 C 85 % 998,5 hPa 0,0 l/m 22,3 km/h (4 Bft) S 178 0 min 0,0 UV-I 0 W/m 3,5 C -3,0 C 35,4 km/h (5 Bft)
20.01.2021 21:52 5,8 C 4,4 C 85 % 998,4 hPa 0,0 l/m 15,4 km/h (3 Bft) SW 227 0 min 0,0 UV-I 0 W/m 3,5 C -0,2 C 20,9 km/h (4 Bft)
20.01.2021 21:54 5,7 C 4,4 C 85 % 998,5 hPa 0,0 l/m 17,3 km/h (3 Bft) S-SO 165 0 min 0,0 UV-I 0 W/m 3,4 C -1,2 C 29,0 km/h (5 Bft)
20.01.2021 21:56 5,8 C 4,4 C 85 % 998,4 hPa 0,0 l/m 18,1 km/h (3 Bft) S-SO 159 0 min 0,0 UV-I 0 W/m 3,5 C -1,4 C 25,7 km/h (4 Bft)
20.01.2021 21:58 5,7 C 4,4 C 85 % 998,3 hPa 0,0 l/m 17,0 km/h (3 Bft) S-SW 194 0 min 0,0 UV-I 0 W/m 3,4 C -1,0 C 27,4 km/h (4 Bft)
20.01.2021 22:00 5,8 C 4,4 C 85 % 998,4 hPa 0,0 l/m 16,0 km/h (3 Bft) SO 142 0 min 0,0 UV-I 0 W/m 3,5 C -0,4 C 24,1 km/h (4 Bft)
20.01.2021 22:02 5,7 C 4,4 C 85 % 998,4 hPa 0,0 l/m 16,7 km/h (3 Bft) S-SO 152 0 min 0,0 UV-I 0 W/m 3,4 C -0,9 C 25,7 km/h (4 Bft)
20.01.2021 22:04 5,8 C 4,4 C 85 % 998,4 hPa 0,0 l/m 19,1 km/h (3 Bft) SW 217 0 min 0,0 UV-I 0 W/m 3,5 C -1,8 C 25,7 km/h (4 Bft)
20.01.2021 22:06 5,7 C 4,4 C 85 % 998,3 hPa 0,0 l/m 16,1 km/h (3 Bft) S-SW 192 0 min 0,0 UV-I 0 W/m 3,4 C -0,6 C 27,4 km/h (4 Bft)
20.01.2021 22:08 5,8 C 4,4 C 85 % 998,3 hPa 0,0 l/m 21,8 km/h (4 Bft) S-SO 165 0 min 0,0 UV-I 0 W/m 3,5 C -2,8 C 38,6 km/h (5 Bft)
20.01.2021 22:10 5,8 C 4,4 C 85 % 998,3 hPa 0,0 l/m 28,7 km/h (4 Bft) S-SW 195 0 min 0,0 UV-I 0 W/m 3,5 C -4,9 C 41,8 km/h (6 Bft)
20.01.2021 22:12 5,9 C 4,4 C 85 % 998,2 hPa 0,0 l/m 18,7 km/h (3 Bft) S 178 0 min 0,0 UV-I 0 W/m 3,6 C -1,5 C 33,8 km/h (5 Bft)
20.01.2021 22:14 5,8 C 4,4 C 85 % 998,2 hPa 0,0 l/m 17,5 km/h (3 Bft) S 190 0 min 0,0 UV-I 0 W/m 3,5 C -1,1 C 35,4 km/h (5 Bft)
20.01.2021 22:16 5,9 C 4,4 C 85 % 998,2 hPa 0,0 l/m 21,6 km/h (4 Bft) S-SO 162 0 min 0,0 UV-I 0 W/m 3,6 C -2,6 C 35,4 km/h (5 Bft)
20.01.2021 22:18 5,9 C 5,0 C 85 % 998,1 hPa 0,0 l/m 20,7 km/h (4 Bft) S-SW 193 0 min 0,0 UV-I 0 W/m 3,6 C -2,3 C 35,4 km/h (5 Bft)
20.01.2021 22:20 5,9 C 4,4 C 84 % 998,1 hPa 0,0 l/m 18,0 km/h (3 Bft) S-SO 150 0 min 0,0 UV-I 0 W/m 3,4 C -1,2 C 32,2 km/h (5 Bft)
20.01.2021 22:22 5,9 C 4,4 C 85 % 998,0 hPa 0,0 l/m 20,4 km/h (4 Bft) S 186 0 min 0,0 UV-I 0 W/m 3,6 C -2,2 C 37,0 km/h (5 Bft)
20.01.2021 22:24 5,9 C 4,4 C 85 % 997,9 hPa 0,0 l/m 20,7 km/h (4 Bft) S-SW 213 0 min 0,0 UV-I 0 W/m 3,6 C -2,3 C 38,6 km/h (5 Bft)
20.01.2021 22:26 5,9 C 4,4 C 84 % 997,8 hPa 0,0 l/m 17,3 km/h (3 Bft) S-SW 198 0 min 0,0 UV-I 0 W/m 3,4 C -0,9 C 27,4 km/h (4 Bft)
20.01.2021 22:28 5,8 C 4,4 C 84 % 997,9 hPa 0,0 l/m 16,2 km/h (3 Bft) SW 218 0 min 0,0 UV-I 0 W/m 3,3 C -0,5 C 24,1 km/h (4 Bft)
20.01.2021 22:30 5,8 C 4,4 C 84 % 997,9 hPa 0,0 l/m 22,5 km/h (4 Bft) S 170 0 min 0,0 UV-I 0 W/m 3,3 C -3,0 C 37,0 km/h (5 Bft)
20.01.2021 22:32 5,9 C 4,4 C 84 % 997,9 hPa 0,0 l/m 16,7 km/h (3 Bft) S-SO 160 0 min 0,0 UV-I 0 W/m 3,4 C -0,6 C 27,4 km/h (4 Bft)
20.01.2021 22:34 5,8 C 4,4 C 84 % 998,0 hPa 0,0 l/m 20,7 km/h (4 Bft) S-SW 204 0 min 0,0 UV-I 0 W/m 3,3 C -2,4 C 30,6 km/h (5 Bft)
20.01.2021 22:36 5,8 C 4,4 C 84 % 997,9 hPa 0,0 l/m 22,4 km/h (4 Bft) S-SO 168 0 min 0,0 UV-I 0 W/m 3,3 C -3,0 C 35,4 km/h (5 Bft)
20.01.2021 22:38 5,9 C 4,4 C 84 % 997,9 hPa 0,0 l/m 24,7 km/h (4 Bft) S-SO 165 0 min 0,0 UV-I 0 W/m 3,4 C -3,6 C 37,0 km/h (5 Bft)
20.01.2021 22:40 6,0 C 5,0 C 84 % 997,9 hPa 0,0 l/m 27,1 km/h (4 Bft) S-SW 192 0 min 0,0 UV-I 0 W/m 3,5 C -4,2 C 43,5 km/h (6 Bft)
20.01.2021 22:42 6,1 C 5,0 C 84 % 997,8 hPa 0,0 l/m 19,3 km/h (3 Bft) S 177 0 min 0,0 UV-I 0 W/m 3,6 C -1,5 C 45,1 km/h (6 Bft)
20.01.2021 22:44 6,0 C 5,0 C 84 % 997,9 hPa 0,0 l/m 17,2 km/h (3 Bft) S-SO 159 0 min 0,0 UV-I 0 W/m 3,5 C -0,7 C 27,4 km/h (4 Bft)
20.01.2021 22:46 5,9 C 4,4 C 84 % 997,9 hPa 0,0 l/m 23,2 km/h (4 Bft) S-SW 197 0 min 0,0 UV-I 0 W/m 3,4 C -3,1 C 38,6 km/h (5 Bft)
20.01.2021 22:48 6,0 C 5,0 C 84 % 997,8 hPa 0,0 l/m 23,2 km/h (4 Bft) S 174 0 min 0,0 UV-I 0 W/m 3,5 C -3,0 C 35,4 km/h (5 Bft)
20.01.2021 22:50 6,1 C 5,0 C 84 % 997,7 hPa 0,0 l/m 21,2 km/h (4 Bft) S 180 0 min 0,0 UV-I 0 W/m 3,6 C -2,2 C 35,4 km/h (5 Bft)
20.01.2021 22:51 6,0 C 5,0 C 84 % 997,7 hPa 0,0 l/m 22,5 km/h (4 Bft) S-SW 202 0 min 0,0 UV-I 0 W/m 3,5 C -2,8 C 30,6 km/h (5 Bft)
20.01.2021 22:52 5,9 C 5,0 C 84 % 997,6 hPa 0,0 l/m 29,0 km/h (5 Bft) S 180 0 min 0,0 UV-I 0 W/m 3,4 C -4,9 C 40,2 km/h (6 Bft)
20.01.2021 22:54 6,1 C 5,0 C 84 % 997,6 hPa 0,0 l/m 29,3 km/h (5 Bft) SO 132 0 min 0,0 UV-I 0 W/m 3,6 C -4,7 C 37,0 km/h (5 Bft)
20.01.2021 22:56 6,1 C 5,0 C 83 % 997,5 hPa 0,0 l/m 19,7 km/h (3 Bft) S-SO 160 0 min 0,0 UV-I 0 W/m 3,4 C -1,6 C 33,8 km/h (5 Bft)
20.01.2021 22:58 6,1 C 4,4 C 83 % 997,6 hPa 0,0 l/m 23,6 km/h (4 Bft) S-SW 201 0 min 0,0 UV-I 0 W/m 3,4 C -3,0 C 45,1 km/h (6 Bft)
20.01.2021 23:00 6,2 C 5,0 C 83 % 997,5 hPa 0,0 l/m 23,6 km/h (4 Bft) S-SW 192 0 min 0,0 UV-I 0 W/m 3,5 C -2,9 C 33,8 km/h (5 Bft)
20.01.2021 23:02 6,2 C 5,0 C 83 % 997,4 hPa 0,0 l/m 22,0 km/h (4 Bft) S 170 0 min 0,0 UV-I 0 W/m 3,5 C -2,3 C 38,6 km/h (5 Bft)
20.01.2021 23:04 6,1 C 5,0 C 83 % 997,4 hPa 0,0 l/m 22,6 km/h (4 Bft) S 185 0 min 0,0 UV-I 0 W/m 3,4 C -2,7 C 38,6 km/h (5 Bft)
20.01.2021 23:06 6,2 C 5,0 C 83 % 997,3 hPa 0,0 l/m 23,5 km/h (4 Bft) S 186 0 min 0,0 UV-I 0 W/m 3,5 C -2,8 C 38,6 km/h (5 Bft)
20.01.2021 23:08 6,2 C 5,0 C 83 % 997,3 hPa 0,0 l/m 22,6 km/h (4 Bft) S 188 0 min 0,0 UV-I 0 W/m 3,5 C -2,6 C 35,4 km/h (5 Bft)
20.01.2021 23:10 6,2 C 5,0 C 83 % 997,4 hPa 0,0 l/m 21,8 km/h (4 Bft) S 174 0 min 0,0 UV-I 0 W/m 3,5 C -2,3 C 33,8 km/h (5 Bft)
20.01.2021 23:12 6,2 C 5,0 C 83 % 997,3 hPa 0,0 l/m 20,2 km/h (4 Bft) S-SW 200 0 min 0,0 UV-I 0 W/m 3,5 C -1,7 C 33,8 km/h (5 Bft)
20.01.2021 23:14 6,2 C 5,0 C 83 % 997,2 hPa 0,0 l/m 25,7 km/h (4 Bft) S-SW 205 0 min 0,0 UV-I 0 W/m 3,5 C -3,5 C 40,2 km/h (6 Bft)
20.01.2021 23:16 6,2 C 5,0 C 83 % 997,3 hPa 0,0 l/m 18,4 km/h (3 Bft) S-SW 197 0 min 0,0 UV-I 0 W/m 3,5 C -1,0 C 32,2 km/h (5 Bft)
20.01.2021 23:18 6,2 C 5,0 C 83 % 997,2 hPa 0,0 l/m 22,2 km/h (4 Bft) S-SW 192 0 min 0,0 UV-I 0 W/m 3,5 C -2,4 C 38,6 km/h (5 Bft)
20.01.2021 23:20 6,2 C 5,0 C 83 % 997,3 hPa 0,0 l/m 23,6 km/h (4 Bft) S-SW 209 0 min 0,0 UV-I 0 W/m 3,5 C -2,9 C 38,6 km/h (5 Bft)
20.01.2021 23:22 6,2 C 5,0 C 83 % 997,4 hPa 0,0 l/m 28,1 km/h (4 Bft) S 179 0 min 0,0 UV-I 0 W/m 3,5 C -4,2 C 38,6 km/h (5 Bft)
20.01.2021 23:24 6,3 C 5,0 C 83 % 997,2 hPa 0,0 l/m 17,1 km/h (3 Bft) S-SO 159 0 min 0,0 UV-I 0 W/m 3,6 C -0,3 C 24,1 km/h (4 Bft)
20.01.2021 23:26 6,2 C 5,0 C 83 % 997,3 hPa 0,0 l/m 21,6 km/h (4 Bft) S-SW 208 0 min 0,0 UV-I 0 W/m 3,5 C -2,2 C 35,4 km/h (5 Bft)
20.01.2021 23:28 6,2 C 5,0 C 83 % 997,2 hPa 0,0 l/m 25,3 km/h (4 Bft) S 177 0 min 0,0 UV-I 0 W/m 3,5 C -3,4 C 40,2 km/h (6 Bft)
20.01.2021 23:30 6,3 C 5,0 C 83 % 997,2 hPa 0,0 l/m 24,3 km/h (4 Bft) S 178 0 min 0,0 UV-I 0 W/m 3,6 C -3,0 C 35,4 km/h (5 Bft)
20.01.2021 23:32 6,3 C 5,0 C 83 % 997,1 hPa 0,0 l/m 23,1 km/h (4 Bft) S-SO 155 0 min 0,0 UV-I 0 W/m 3,6 C -2,6 C 35,4 km/h (5 Bft)
20.01.2021 23:34 6,3 C 5,0 C 83 % 997,0 hPa 0,0 l/m 20,7 km/h (4 Bft) S 172 0 min 0,0 UV-I 0 W/m 3,6 C -1,8 C 33,8 km/h (5 Bft)
20.01.2021 23:36 6,3 C 5,0 C 82 % 997,1 hPa 0,0 l/m 18,5 km/h (3 Bft) S 175 0 min 0,0 UV-I 0 W/m 3,5 C -0,9 C 29,0 km/h (5 Bft)
20.01.2021 23:38 6,3 C 5,0 C 82 % 996,9 hPa 0,0 l/m 19,0 km/h (3 Bft) S 175 0 min 0,0 UV-I 0 W/m 3,5 C -1,1 C 38,6 km/h (5 Bft)
20.01.2021 23:40 6,3 C 5,0 C 83 % 997,0 hPa 0,0 l/m 21,2 km/h (4 Bft) S-SW 211 0 min 0,0 UV-I 0 W/m 3,6 C -1,9 C 29,0 km/h (5 Bft)
20.01.2021 23:42 6,3 C 5,0 C 83 % 997,0 hPa 0,0 l/m 20,1 km/h (4 Bft) S-SO 158 0 min 0,0 UV-I 0 W/m 3,6 C -1,5 C 33,8 km/h (5 Bft)
20.01.2021 23:44 6,2 C 5,0 C 83 % 997,0 hPa 0,0 l/m 22,1 km/h (4 Bft) S-SO 168 0 min 0,0 UV-I 0 W/m 3,5 C -2,4 C 37,0 km/h (5 Bft)
20.01.2021 23:46 6,3 C 5,0 C 83 % 997,0 hPa 0,0 l/m 27,5 km/h (4 Bft) S 189 0 min 0,0 UV-I 0 W/m 3,6 C -3,9 C 45,1 km/h (6 Bft)
20.01.2021 23:48 6,4 C 5,0 C 82 % 997,0 hPa 0,0 l/m 24,8 km/h (4 Bft) S 176 0 min 0,0 UV-I 0 W/m 3,6 C -3,0 C 40,2 km/h (6 Bft)
20.01.2021 23:50 6,4 C 5,0 C 82 % 997,0 hPa 0,0 l/m 17,2 km/h (3 Bft) S-SO 167 0 min 0,0 UV-I 0 W/m 3,6 C -0,2 C 30,6 km/h (5 Bft)
20.01.2021 23:52 6,4 C 5,0 C 82 % 997,0 hPa 0,0 l/m 20,7 km/h (4 Bft) S-SW 194 0 min 0,0 UV-I 0 W/m 3,6 C -1,6 C 33,8 km/h (5 Bft)
20.01.2021 23:54 6,4 C 5,0 C 82 % 996,9 hPa 0,0 l/m 19,6 km/h (3 Bft) S 177 0 min 0,0 UV-I 0 W/m 3,6 C -1,2 C 29,0 km/h (5 Bft)
20.01.2021 23:56 6,3 C 5,0 C 82 % 997,0 hPa 0,0 l/m 17,2 km/h (3 Bft) S 175 0 min 0,0 UV-I 0 W/m 3,5 C -0,4 C 25,7 km/h (4 Bft)
20.01.2021 23:58 6,3 C 5,0 C 82 % 997,0 hPa 0,0 l/m 20,1 km/h (4 Bft) S-SW 208 0 min 0,0 UV-I 0 W/m 3,5 C -1,5 C 33,8 km/h (5 Bft)
20.01.2021 23:59 6,4 C 5,0 C 82 % 996,9 hPa 0,0 l/m 22,5 km/h (4 Bft) S-SW 202 0 min 0,0 UV-I 0 W/m 3,6 C -2,3 C 30,6 km/h (5 Bft)
_ Min-Zeit 01:43 01:09 11:54 23:38 - 17:38 - - - - - 01:24 07:42 15:22
Minimum _ 1,1 C 0,0 C 74 % 996,9 hPa - 7,6 km/h (2 Bft) - - - - - -1,0 C -11,0 C 12,9 km/h (3 Bft)
_ Max-Zeit 23:48 13:06 00:00 00:00 00:00 07:42 - - 10:54 13:08 13:08 19:36 17:38 14:08
Maximum _ 6,4 C 7,8 C 87 % 1010,5 hPa 0,0 l/m 30,6 km/h
S (5 Bft)
- - 2 min 1,5 UV-I 435 W/m 3,7 C 4,3 C 51,5 km/h
S (7 Bft)
Durchschnitt _ 3,8 C 3,2 C 83 % 1004,2 hPa #0,0 l/m 18,6 km/h (3 Bft) S - #1:56 h 0,9 UV-I 153 W/m 1,1 C -4,0 C 28,7 km/h (4 Bft)